<?xml version="1.0" encoding="UTF-8" standalone="no" ?>
<gpx xmlns="http://www.topografix.com/GPX/1/1" xmlns:xsi="http://www.w3.org/2001/XMLSchema-instance" xsi:schemaLocation="http://www.topografix.com/GPX/1/1 http://www.topografix.com/GPX/1/1/gpx.xsd" version="1.1" creator="VisuGPX - https://www.visugpx.com">
  <metadata>
    <name>Prinsuejols le buron de rajas </name>
    <desc><![CDATA[ballade a travers le plateau d\'aubrac ]]></desc>
  </metadata>
  <trk>
    <name><![CDATA[BURON]]></name>
    <trkseg>
      <trkpt lat="44.67428" lon="3.16814">
        <ele>1211.88</ele>
        <time>2014-06-28T06:52:24Z</time>
      </trkpt>
      <trkpt lat="44.67428" lon="3.168">
        <ele>1213.8</ele>
        <time>2014-06-28T06:52:37Z</time>
      </trkpt>
      <trkpt lat="44.67429" lon="3.16787">
        <ele>1214.28</ele>
        <time>2014-06-28T06:52:47Z</time>
      </trkpt>
      <trkpt lat="44.67437" lon="3.16769">
        <ele>1216.69</ele>
        <time>2014-06-28T06:53:04Z</time>
      </trkpt>
      <trkpt lat="44.67442" lon="3.16751">
        <ele>1218.61</ele>
        <time>2014-06-28T06:53:19Z</time>
      </trkpt>
      <trkpt lat="44.67442" lon="3.16735">
        <ele>1220.05</ele>
        <time>2014-06-28T06:53:35Z</time>
      </trkpt>
      <trkpt lat="44.67442" lon="3.16731">
        <ele>1220.05</ele>
        <time>2014-06-28T06:53:38Z</time>
      </trkpt>
      <trkpt lat="44.67442" lon="3.16716">
        <ele>1222.45</ele>
        <time>2014-06-28T06:53:51Z</time>
      </trkpt>
      <trkpt lat="44.67443" lon="3.1671">
        <ele>1222.93</ele>
        <time>2014-06-28T06:53:56Z</time>
      </trkpt>
      <trkpt lat="44.67446" lon="3.16688">
        <ele>1224.86</ele>
        <time>2014-06-28T06:54:09Z</time>
      </trkpt>
      <trkpt lat="44.67446" lon="3.16685">
        <ele>1225.34</ele>
        <time>2014-06-28T06:54:11Z</time>
      </trkpt>
      <trkpt lat="44.67447" lon="3.1667">
        <ele>1225.82</ele>
        <time>2014-06-28T06:54:20Z</time>
      </trkpt>
      <trkpt lat="44.67447" lon="3.16663">
        <ele>1225.82</ele>
        <time>2014-06-28T06:54:25Z</time>
      </trkpt>
      <trkpt lat="44.67449" lon="3.16647">
        <ele>1226.78</ele>
        <time>2014-06-28T06:54:35Z</time>
      </trkpt>
      <trkpt lat="44.67449" lon="3.16632">
        <ele>1228.22</ele>
        <time>2014-06-28T06:54:45Z</time>
      </trkpt>
      <trkpt lat="44.67449" lon="3.16614">
        <ele>1229.18</ele>
        <time>2014-06-28T06:54:58Z</time>
      </trkpt>
      <trkpt lat="44.67446" lon="3.16592">
        <ele>1231.11</ele>
        <time>2014-06-28T06:55:15Z</time>
      </trkpt>
      <trkpt lat="44.67443" lon="3.16571">
        <ele>1232.55</ele>
        <time>2014-06-28T06:55:31Z</time>
      </trkpt>
      <trkpt lat="44.67439" lon="3.16547">
        <ele>1233.51</ele>
        <time>2014-06-28T06:55:46Z</time>
      </trkpt>
      <trkpt lat="44.67433" lon="3.16524">
        <ele>1234.95</ele>
        <time>2014-06-28T06:56:02Z</time>
      </trkpt>
      <trkpt lat="44.67424" lon="3.16504">
        <ele>1237.35</ele>
        <time>2014-06-28T06:56:18Z</time>
      </trkpt>
      <trkpt lat="44.67416" lon="3.16486">
        <ele>1238.32</ele>
        <time>2014-06-28T06:56:33Z</time>
      </trkpt>
      <trkpt lat="44.67406" lon="3.16465">
        <ele>1241.2</ele>
        <time>2014-06-28T06:56:51Z</time>
      </trkpt>
      <trkpt lat="44.67401" lon="3.16452">
        <ele>1242.64</ele>
        <time>2014-06-28T06:57:01Z</time>
      </trkpt>
      <trkpt lat="44.67392" lon="3.16429">
        <ele>1245.53</ele>
        <time>2014-06-28T06:57:19Z</time>
      </trkpt>
      <trkpt lat="44.67381" lon="3.16411">
        <ele>1246.49</ele>
        <time>2014-06-28T06:57:36Z</time>
      </trkpt>
      <trkpt lat="44.67369" lon="3.16393">
        <ele>1249.85</ele>
        <time>2014-06-28T06:57:53Z</time>
      </trkpt>
      <trkpt lat="44.67362" lon="3.16384">
        <ele>1250.81</ele>
        <time>2014-06-28T06:58:01Z</time>
      </trkpt>
      <trkpt lat="44.67342" lon="3.16381">
        <ele>1253.7</ele>
        <time>2014-06-28T06:58:18Z</time>
      </trkpt>
      <trkpt lat="44.67328" lon="3.16385">
        <ele>1254.18</ele>
        <time>2014-06-28T06:58:31Z</time>
      </trkpt>
      <trkpt lat="44.67325" lon="3.16387">
        <ele>1255.62</ele>
        <time>2014-06-28T06:58:34Z</time>
      </trkpt>
      <trkpt lat="44.6732" lon="3.16389">
        <ele>1254.18</ele>
        <time>2014-06-28T06:58:38Z</time>
      </trkpt>
      <trkpt lat="44.67313" lon="3.16392">
        <ele>1255.14</ele>
        <time>2014-06-28T06:58:44Z</time>
      </trkpt>
      <trkpt lat="44.67309" lon="3.16394">
        <ele>1253.7</ele>
        <time>2014-06-28T06:58:47Z</time>
      </trkpt>
      <trkpt lat="44.67293" lon="3.164">
        <ele>1253.7</ele>
        <time>2014-06-28T06:59:02Z</time>
      </trkpt>
      <trkpt lat="44.67284" lon="3.16401">
        <ele>1255.14</ele>
        <time>2014-06-28T06:59:10Z</time>
      </trkpt>
      <trkpt lat="44.6727" lon="3.16406">
        <ele>1256.1</ele>
        <time>2014-06-28T06:59:24Z</time>
      </trkpt>
      <trkpt lat="44.67251" lon="3.16412">
        <ele>1256.1</ele>
        <time>2014-06-28T06:59:41Z</time>
      </trkpt>
      <trkpt lat="44.67232" lon="3.16423">
        <ele>1257.06</ele>
        <time>2014-06-28T06:59:59Z</time>
      </trkpt>
      <trkpt lat="44.67215" lon="3.16433">
        <ele>1257.06</ele>
        <time>2014-06-28T07:00:14Z</time>
      </trkpt>
      <trkpt lat="44.6721" lon="3.16435">
        <ele>1255.62</ele>
        <time>2014-06-28T07:00:18Z</time>
      </trkpt>
      <trkpt lat="44.67198" lon="3.16441">
        <ele>1255.62</ele>
        <time>2014-06-28T07:00:29Z</time>
      </trkpt>
      <trkpt lat="44.67182" lon="3.16448">
        <ele>1255.62</ele>
        <time>2014-06-28T07:00:45Z</time>
      </trkpt>
      <trkpt lat="44.67172" lon="3.16447">
        <ele>1257.06</ele>
        <time>2014-06-28T07:00:54Z</time>
      </trkpt>
      <trkpt lat="44.67157" lon="3.16429">
        <ele>1257.06</ele>
        <time>2014-06-28T07:01:11Z</time>
      </trkpt>
      <trkpt lat="44.67147" lon="3.16417">
        <ele>1257.06</ele>
        <time>2014-06-28T07:01:22Z</time>
      </trkpt>
      <trkpt lat="44.67129" lon="3.16394">
        <ele>1257.06</ele>
        <time>2014-06-28T07:01:43Z</time>
      </trkpt>
      <trkpt lat="44.67117" lon="3.16376">
        <ele>1257.06</ele>
        <time>2014-06-28T07:02:00Z</time>
      </trkpt>
      <trkpt lat="44.67104" lon="3.16362">
        <ele>1256.1</ele>
        <time>2014-06-28T07:02:15Z</time>
      </trkpt>
      <trkpt lat="44.67092" lon="3.16347">
        <ele>1255.62</ele>
        <time>2014-06-28T07:02:32Z</time>
      </trkpt>
      <trkpt lat="44.67075" lon="3.16325">
        <ele>1255.14</ele>
        <time>2014-06-28T07:02:50Z</time>
      </trkpt>
      <trkpt lat="44.6706" lon="3.16305">
        <ele>1255.14</ele>
        <time>2014-06-28T07:03:06Z</time>
      </trkpt>
      <trkpt lat="44.67054" lon="3.16297">
        <ele>1255.14</ele>
        <time>2014-06-28T07:03:14Z</time>
      </trkpt>
      <trkpt lat="44.67041" lon="3.16284">
        <ele>1255.14</ele>
        <time>2014-06-28T07:03:29Z</time>
      </trkpt>
      <trkpt lat="44.67039" lon="3.16281">
        <ele>1255.14</ele>
        <time>2014-06-28T07:03:32Z</time>
      </trkpt>
      <trkpt lat="44.67026" lon="3.16266">
        <ele>1255.14</ele>
        <time>2014-06-28T07:03:48Z</time>
      </trkpt>
      <trkpt lat="44.67015" lon="3.16253">
        <ele>1255.14</ele>
        <time>2014-06-28T07:04:01Z</time>
      </trkpt>
      <trkpt lat="44.67008" lon="3.16244">
        <ele>1256.1</ele>
        <time>2014-06-28T07:04:09Z</time>
      </trkpt>
      <trkpt lat="44.66992" lon="3.16225">
        <ele>1256.1</ele>
        <time>2014-06-28T07:04:26Z</time>
      </trkpt>
      <trkpt lat="44.6699" lon="3.16224">
        <ele>1256.1</ele>
        <time>2014-06-28T07:04:28Z</time>
      </trkpt>
      <trkpt lat="44.66988" lon="3.1622">
        <ele>1256.58</ele>
        <time>2014-06-28T07:04:31Z</time>
      </trkpt>
      <trkpt lat="44.66971" lon="3.16201">
        <ele>1257.06</ele>
        <time>2014-06-28T07:04:49Z</time>
      </trkpt>
      <trkpt lat="44.66957" lon="3.16187">
        <ele>1257.06</ele>
        <time>2014-06-28T07:05:03Z</time>
      </trkpt>
      <trkpt lat="44.66942" lon="3.1617">
        <ele>1255.14</ele>
        <time>2014-06-28T07:05:18Z</time>
      </trkpt>
      <trkpt lat="44.66928" lon="3.16154">
        <ele>1255.62</ele>
        <time>2014-06-28T07:05:33Z</time>
      </trkpt>
      <trkpt lat="44.66913" lon="3.16137">
        <ele>1256.1</ele>
        <time>2014-06-28T07:05:50Z</time>
      </trkpt>
      <trkpt lat="44.66913" lon="3.16132">
        <ele>1257.06</ele>
        <time>2014-06-28T07:06:00Z</time>
      </trkpt>
      <trkpt lat="44.66913" lon="3.16132">
        <ele>1257.54</ele>
        <time>2014-06-28T07:06:12Z</time>
      </trkpt>
      <trkpt lat="44.6691" lon="3.1613">
        <ele>1256.1</ele>
        <time>2014-06-28T07:06:16Z</time>
      </trkpt>
      <trkpt lat="44.66911" lon="3.16125">
        <ele>1256.1</ele>
        <time>2014-06-28T07:06:30Z</time>
      </trkpt>
      <trkpt lat="44.66912" lon="3.16126">
        <ele>1256.1</ele>
        <time>2014-06-28T07:06:48Z</time>
      </trkpt>
      <trkpt lat="44.6691" lon="3.16125">
        <ele>1256.1</ele>
        <time>2014-06-28T07:06:51Z</time>
      </trkpt>
      <trkpt lat="44.66896" lon="3.16113">
        <ele>1256.58</ele>
        <time>2014-06-28T07:07:04Z</time>
      </trkpt>
      <trkpt lat="44.66895" lon="3.16112">
        <ele>1256.1</ele>
        <time>2014-06-28T07:07:05Z</time>
      </trkpt>
      <trkpt lat="44.66888" lon="3.16105">
        <ele>1255.14</ele>
        <time>2014-06-28T07:07:12Z</time>
      </trkpt>
      <trkpt lat="44.66887" lon="3.16104">
        <ele>1255.14</ele>
        <time>2014-06-28T07:07:13Z</time>
      </trkpt>
      <trkpt lat="44.66881" lon="3.16097">
        <ele>1257.06</ele>
        <time>2014-06-28T07:07:19Z</time>
      </trkpt>
      <trkpt lat="44.66869" lon="3.16079">
        <ele>1255.62</ele>
        <time>2014-06-28T07:07:33Z</time>
      </trkpt>
      <trkpt lat="44.66856" lon="3.1606">
        <ele>1257.06</ele>
        <time>2014-06-28T07:07:48Z</time>
      </trkpt>
      <trkpt lat="44.66855" lon="3.16058">
        <ele>1257.06</ele>
        <time>2014-06-28T07:07:49Z</time>
      </trkpt>
      <trkpt lat="44.6685" lon="3.16048">
        <ele>1257.54</ele>
        <time>2014-06-28T07:07:57Z</time>
      </trkpt>
      <trkpt lat="44.66845" lon="3.16041">
        <ele>1257.54</ele>
        <time>2014-06-28T07:08:03Z</time>
      </trkpt>
      <trkpt lat="44.66843" lon="3.16037">
        <ele>1257.54</ele>
        <time>2014-06-28T07:08:06Z</time>
      </trkpt>
      <trkpt lat="44.66832" lon="3.16021">
        <ele>1258.02</ele>
        <time>2014-06-28T07:08:20Z</time>
      </trkpt>
      <trkpt lat="44.66827" lon="3.16015">
        <ele>1258.5</ele>
        <time>2014-06-28T07:08:25Z</time>
      </trkpt>
      <trkpt lat="44.66815" lon="3.16003">
        <ele>1258.98</ele>
        <time>2014-06-28T07:08:37Z</time>
      </trkpt>
      <trkpt lat="44.66807" lon="3.15999">
        <ele>1262.83</ele>
        <time>2014-06-28T07:08:43Z</time>
      </trkpt>
      <trkpt lat="44.66792" lon="3.15994">
        <ele>1259.94</ele>
        <time>2014-06-28T07:08:54Z</time>
      </trkpt>
      <trkpt lat="44.66778" lon="3.15991">
        <ele>1259.46</ele>
        <time>2014-06-28T07:09:05Z</time>
      </trkpt>
      <trkpt lat="44.66768" lon="3.15987">
        <ele>1260.91</ele>
        <time>2014-06-28T07:09:14Z</time>
      </trkpt>
      <trkpt lat="44.66761" lon="3.15984">
        <ele>1260.91</ele>
        <time>2014-06-28T07:09:19Z</time>
      </trkpt>
      <trkpt lat="44.66745" lon="3.15979">
        <ele>1260.91</ele>
        <time>2014-06-28T07:09:32Z</time>
      </trkpt>
      <trkpt lat="44.6674" lon="3.15978">
        <ele>1261.87</ele>
        <time>2014-06-28T07:09:36Z</time>
      </trkpt>
      <trkpt lat="44.6672" lon="3.15973">
        <ele>1261.87</ele>
        <time>2014-06-28T07:09:51Z</time>
      </trkpt>
      <trkpt lat="44.66705" lon="3.15968">
        <ele>1262.83</ele>
        <time>2014-06-28T07:10:04Z</time>
      </trkpt>
      <trkpt lat="44.667" lon="3.15966">
        <ele>1262.83</ele>
        <time>2014-06-28T07:10:08Z</time>
      </trkpt>
      <trkpt lat="44.66697" lon="3.15966">
        <ele>1261.39</ele>
        <time>2014-06-28T07:10:10Z</time>
      </trkpt>
      <trkpt lat="44.66674" lon="3.15965">
        <ele>1260.91</ele>
        <time>2014-06-28T07:10:27Z</time>
      </trkpt>
      <trkpt lat="44.6667" lon="3.15965">
        <ele>1260.91</ele>
        <time>2014-06-28T07:10:30Z</time>
      </trkpt>
      <trkpt lat="44.66647" lon="3.1596">
        <ele>1260.91</ele>
        <time>2014-06-28T07:10:47Z</time>
      </trkpt>
      <trkpt lat="44.66636" lon="3.15958">
        <ele>1260.91</ele>
        <time>2014-06-28T07:10:56Z</time>
      </trkpt>
      <trkpt lat="44.66628" lon="3.15956">
        <ele>1260.91</ele>
        <time>2014-06-28T07:11:02Z</time>
      </trkpt>
      <trkpt lat="44.66616" lon="3.15956">
        <ele>1262.35</ele>
        <time>2014-06-28T07:11:11Z</time>
      </trkpt>
      <trkpt lat="44.66597" lon="3.15954">
        <ele>1262.35</ele>
        <time>2014-06-28T07:11:26Z</time>
      </trkpt>
      <trkpt lat="44.66582" lon="3.15952">
        <ele>1263.79</ele>
        <time>2014-06-28T07:11:38Z</time>
      </trkpt>
      <trkpt lat="44.66565" lon="3.15948">
        <ele>1264.27</ele>
        <time>2014-06-28T07:11:52Z</time>
      </trkpt>
      <trkpt lat="44.66553" lon="3.15945">
        <ele>1262.83</ele>
        <time>2014-06-28T07:12:01Z</time>
      </trkpt>
      <trkpt lat="44.66534" lon="3.15946">
        <ele>1262.83</ele>
        <time>2014-06-28T07:12:16Z</time>
      </trkpt>
      <trkpt lat="44.66532" lon="3.15946">
        <ele>1262.83</ele>
        <time>2014-06-28T07:12:18Z</time>
      </trkpt>
      <trkpt lat="44.66508" lon="3.15945">
        <ele>1262.83</ele>
        <time>2014-06-28T07:12:36Z</time>
      </trkpt>
      <trkpt lat="44.66492" lon="3.15942">
        <ele>1259.94</ele>
        <time>2014-06-28T07:12:49Z</time>
      </trkpt>
      <trkpt lat="44.66477" lon="3.15937">
        <ele>1261.39</ele>
        <time>2014-06-28T07:13:01Z</time>
      </trkpt>
      <trkpt lat="44.66465" lon="3.15935">
        <ele>1261.39</ele>
        <time>2014-06-28T07:13:10Z</time>
      </trkpt>
      <trkpt lat="44.66459" lon="3.15933">
        <ele>1261.87</ele>
        <time>2014-06-28T07:13:15Z</time>
      </trkpt>
      <trkpt lat="44.66454" lon="3.15932">
        <ele>1259.46</ele>
        <time>2014-06-28T07:13:19Z</time>
      </trkpt>
      <trkpt lat="44.66441" lon="3.15929">
        <ele>1260.43</ele>
        <time>2014-06-28T07:13:29Z</time>
      </trkpt>
      <trkpt lat="44.66432" lon="3.15924">
        <ele>1260.43</ele>
        <time>2014-06-28T07:13:37Z</time>
      </trkpt>
      <trkpt lat="44.66424" lon="3.15918">
        <ele>1262.35</ele>
        <time>2014-06-28T07:13:44Z</time>
      </trkpt>
      <trkpt lat="44.66404" lon="3.15918">
        <ele>1259.94</ele>
        <time>2014-06-28T07:13:58Z</time>
      </trkpt>
      <trkpt lat="44.66391" lon="3.15904">
        <ele>1257.06</ele>
        <time>2014-06-28T07:14:11Z</time>
      </trkpt>
      <trkpt lat="44.66377" lon="3.15877">
        <ele>1258.02</ele>
        <time>2014-06-28T07:14:28Z</time>
      </trkpt>
      <trkpt lat="44.66361" lon="3.15872">
        <ele>1257.06</ele>
        <time>2014-06-28T07:14:40Z</time>
      </trkpt>
      <trkpt lat="44.66348" lon="3.15868">
        <ele>1257.54</ele>
        <time>2014-06-28T07:14:50Z</time>
      </trkpt>
      <trkpt lat="44.66323" lon="3.15861">
        <ele>1258.02</ele>
        <time>2014-06-28T07:15:08Z</time>
      </trkpt>
      <trkpt lat="44.66312" lon="3.15859">
        <ele>1256.1</ele>
        <time>2014-06-28T07:15:16Z</time>
      </trkpt>
      <trkpt lat="44.66294" lon="3.15853">
        <ele>1255.14</ele>
        <time>2014-06-28T07:15:31Z</time>
      </trkpt>
      <trkpt lat="44.66286" lon="3.15851">
        <ele>1256.1</ele>
        <time>2014-06-28T07:15:37Z</time>
      </trkpt>
      <trkpt lat="44.66286" lon="3.15848">
        <ele>1256.1</ele>
        <time>2014-06-28T07:15:45Z</time>
      </trkpt>
      <trkpt lat="44.66278" lon="3.15845">
        <ele>1256.58</ele>
        <time>2014-06-28T07:15:56Z</time>
      </trkpt>
      <trkpt lat="44.66274" lon="3.15844">
        <ele>1253.22</ele>
        <time>2014-06-28T07:15:59Z</time>
      </trkpt>
      <trkpt lat="44.66273" lon="3.15844">
        <ele>1253.22</ele>
        <time>2014-06-28T07:16:00Z</time>
      </trkpt>
      <trkpt lat="44.6627" lon="3.15843">
        <ele>1255.14</ele>
        <time>2014-06-28T07:16:02Z</time>
      </trkpt>
      <trkpt lat="44.66266" lon="3.15843">
        <ele>1255.62</ele>
        <time>2014-06-28T07:16:05Z</time>
      </trkpt>
      <trkpt lat="44.66263" lon="3.15842">
        <ele>1252.74</ele>
        <time>2014-06-28T07:16:07Z</time>
      </trkpt>
      <trkpt lat="44.66252" lon="3.15838">
        <ele>1252.74</ele>
        <time>2014-06-28T07:16:16Z</time>
      </trkpt>
      <trkpt lat="44.66229" lon="3.15828">
        <ele>1250.81</ele>
        <time>2014-06-28T07:16:34Z</time>
      </trkpt>
      <trkpt lat="44.66205" lon="3.15813">
        <ele>1248.89</ele>
        <time>2014-06-28T07:16:53Z</time>
      </trkpt>
      <trkpt lat="44.66187" lon="3.15796">
        <ele>1246.49</ele>
        <time>2014-06-28T07:17:09Z</time>
      </trkpt>
      <trkpt lat="44.6617" lon="3.1578">
        <ele>1244.56</ele>
        <time>2014-06-28T07:17:25Z</time>
      </trkpt>
      <trkpt lat="44.66165" lon="3.15777">
        <ele>1243.12</ele>
        <time>2014-06-28T07:17:29Z</time>
      </trkpt>
      <trkpt lat="44.66147" lon="3.1576">
        <ele>1243.12</ele>
        <time>2014-06-28T07:17:46Z</time>
      </trkpt>
      <trkpt lat="44.66128" lon="3.15738">
        <ele>1241.2</ele>
        <time>2014-06-28T07:18:05Z</time>
      </trkpt>
      <trkpt lat="44.66118" lon="3.15709">
        <ele>1241.2</ele>
        <time>2014-06-28T07:18:22Z</time>
      </trkpt>
      <trkpt lat="44.66114" lon="3.15679">
        <ele>1242.16</ele>
        <time>2014-06-28T07:18:39Z</time>
      </trkpt>
      <trkpt lat="44.66099" lon="3.15657">
        <ele>1242.64</ele>
        <time>2014-06-28T07:18:56Z</time>
      </trkpt>
      <trkpt lat="44.66081" lon="3.15648">
        <ele>1242.16</ele>
        <time>2014-06-28T07:19:10Z</time>
      </trkpt>
      <trkpt lat="44.66071" lon="3.15645">
        <ele>1242.16</ele>
        <time>2014-06-28T07:19:18Z</time>
      </trkpt>
      <trkpt lat="44.66062" lon="3.15641">
        <ele>1243.6</ele>
        <time>2014-06-28T07:19:25Z</time>
      </trkpt>
      <trkpt lat="44.66052" lon="3.15637">
        <ele>1243.12</ele>
        <time>2014-06-28T07:19:33Z</time>
      </trkpt>
      <trkpt lat="44.6605" lon="3.15637">
        <ele>1244.56</ele>
        <time>2014-06-28T07:19:35Z</time>
      </trkpt>
      <trkpt lat="44.66039" lon="3.15631">
        <ele>1244.56</ele>
        <time>2014-06-28T07:19:44Z</time>
      </trkpt>
      <trkpt lat="44.66029" lon="3.15624">
        <ele>1244.56</ele>
        <time>2014-06-28T07:19:53Z</time>
      </trkpt>
      <trkpt lat="44.66023" lon="3.1562">
        <ele>1243.12</ele>
        <time>2014-06-28T07:19:58Z</time>
      </trkpt>
      <trkpt lat="44.66021" lon="3.15619">
        <ele>1244.56</ele>
        <time>2014-06-28T07:20:00Z</time>
      </trkpt>
      <trkpt lat="44.66001" lon="3.15604">
        <ele>1244.08</ele>
        <time>2014-06-28T07:20:17Z</time>
      </trkpt>
      <trkpt lat="44.65991" lon="3.15596">
        <ele>1244.08</ele>
        <time>2014-06-28T07:20:26Z</time>
      </trkpt>
      <trkpt lat="44.65976" lon="3.15586">
        <ele>1244.56</ele>
        <time>2014-06-28T07:20:39Z</time>
      </trkpt>
      <trkpt lat="44.6596" lon="3.15575">
        <ele>1244.56</ele>
        <time>2014-06-28T07:20:53Z</time>
      </trkpt>
      <trkpt lat="44.65951" lon="3.15568">
        <ele>1242.16</ele>
        <time>2014-06-28T07:21:01Z</time>
      </trkpt>
      <trkpt lat="44.65942" lon="3.15562">
        <ele>1244.56</ele>
        <time>2014-06-28T07:21:09Z</time>
      </trkpt>
      <trkpt lat="44.65935" lon="3.15557">
        <ele>1244.56</ele>
        <time>2014-06-28T07:21:15Z</time>
      </trkpt>
      <trkpt lat="44.6593" lon="3.15553">
        <ele>1244.56</ele>
        <time>2014-06-28T07:21:19Z</time>
      </trkpt>
      <trkpt lat="44.65918" lon="3.15542">
        <ele>1244.56</ele>
        <time>2014-06-28T07:21:30Z</time>
      </trkpt>
      <trkpt lat="44.65907" lon="3.15535">
        <ele>1245.53</ele>
        <time>2014-06-28T07:21:39Z</time>
      </trkpt>
      <trkpt lat="44.65896" lon="3.15529">
        <ele>1246.01</ele>
        <time>2014-06-28T07:21:49Z</time>
      </trkpt>
      <trkpt lat="44.65878" lon="3.15522">
        <ele>1246.01</ele>
        <time>2014-06-28T07:22:03Z</time>
      </trkpt>
      <trkpt lat="44.65863" lon="3.15517">
        <ele>1246.49</ele>
        <time>2014-06-28T07:22:15Z</time>
      </trkpt>
      <trkpt lat="44.6585" lon="3.15513">
        <ele>1246.97</ele>
        <time>2014-06-28T07:22:25Z</time>
      </trkpt>
      <trkpt lat="44.65842" lon="3.15511">
        <ele>1246.97</ele>
        <time>2014-06-28T07:22:31Z</time>
      </trkpt>
      <trkpt lat="44.65828" lon="3.15506">
        <ele>1247.45</ele>
        <time>2014-06-28T07:22:42Z</time>
      </trkpt>
      <trkpt lat="44.65819" lon="3.15503">
        <ele>1247.45</ele>
        <time>2014-06-28T07:22:49Z</time>
      </trkpt>
      <trkpt lat="44.65814" lon="3.15501">
        <ele>1247.45</ele>
        <time>2014-06-28T07:22:53Z</time>
      </trkpt>
      <trkpt lat="44.65792" lon="3.15493">
        <ele>1247.45</ele>
        <time>2014-06-28T07:23:11Z</time>
      </trkpt>
      <trkpt lat="44.65767" lon="3.15484">
        <ele>1247.45</ele>
        <time>2014-06-28T07:23:31Z</time>
      </trkpt>
      <trkpt lat="44.65743" lon="3.15479">
        <ele>1247.45</ele>
        <time>2014-06-28T07:23:48Z</time>
      </trkpt>
      <trkpt lat="44.65733" lon="3.15475">
        <ele>1246.49</ele>
        <time>2014-06-28T07:23:56Z</time>
      </trkpt>
      <trkpt lat="44.65709" lon="3.15468">
        <ele>1246.49</ele>
        <time>2014-06-28T07:24:14Z</time>
      </trkpt>
      <trkpt lat="44.6571" lon="3.15464">
        <ele>1246.49</ele>
        <time>2014-06-28T07:24:25Z</time>
      </trkpt>
      <trkpt lat="44.65703" lon="3.15461">
        <ele>1247.45</ele>
        <time>2014-06-28T07:24:36Z</time>
      </trkpt>
      <trkpt lat="44.65699" lon="3.1546">
        <ele>1247.45</ele>
        <time>2014-06-28T07:24:40Z</time>
      </trkpt>
      <trkpt lat="44.65689" lon="3.15459">
        <ele>1247.45</ele>
        <time>2014-06-28T07:24:49Z</time>
      </trkpt>
      <trkpt lat="44.65671" lon="3.15453">
        <ele>1248.41</ele>
        <time>2014-06-28T07:25:05Z</time>
      </trkpt>
      <trkpt lat="44.6566" lon="3.1545">
        <ele>1248.41</ele>
        <time>2014-06-28T07:25:14Z</time>
      </trkpt>
      <trkpt lat="44.65644" lon="3.15446">
        <ele>1249.37</ele>
        <time>2014-06-28T07:25:29Z</time>
      </trkpt>
      <trkpt lat="44.65626" lon="3.15442">
        <ele>1249.85</ele>
        <time>2014-06-28T07:25:45Z</time>
      </trkpt>
      <trkpt lat="44.6561" lon="3.15439">
        <ele>1251.29</ele>
        <time>2014-06-28T07:25:59Z</time>
      </trkpt>
      <trkpt lat="44.65591" lon="3.1543">
        <ele>1252.25</ele>
        <time>2014-06-28T07:26:15Z</time>
      </trkpt>
      <trkpt lat="44.65582" lon="3.15422">
        <ele>1252.25</ele>
        <time>2014-06-28T07:26:24Z</time>
      </trkpt>
      <trkpt lat="44.65567" lon="3.15406">
        <ele>1252.74</ele>
        <time>2014-06-28T07:26:41Z</time>
      </trkpt>
      <trkpt lat="44.65565" lon="3.15404">
        <ele>1252.74</ele>
        <time>2014-06-28T07:26:43Z</time>
      </trkpt>
      <trkpt lat="44.65564" lon="3.15399">
        <ele>1253.7</ele>
        <time>2014-06-28T07:26:57Z</time>
      </trkpt>
      <trkpt lat="44.65559" lon="3.154">
        <ele>1252.74</ele>
        <time>2014-06-28T07:27:12Z</time>
      </trkpt>
      <trkpt lat="44.65559" lon="3.15399">
        <ele>1252.25</ele>
        <time>2014-06-28T07:27:24Z</time>
      </trkpt>
      <trkpt lat="44.65559" lon="3.15393">
        <ele>1251.77</ele>
        <time>2014-06-28T07:27:57Z</time>
      </trkpt>
      <trkpt lat="44.65557" lon="3.15394">
        <ele>1251.77</ele>
        <time>2014-06-28T07:28:26Z</time>
      </trkpt>
      <trkpt lat="44.65557" lon="3.15394">
        <ele>1253.22</ele>
        <time>2014-06-28T07:28:33Z</time>
      </trkpt>
      <trkpt lat="44.65552" lon="3.15393">
        <ele>1253.22</ele>
        <time>2014-06-28T07:28:37Z</time>
      </trkpt>
      <trkpt lat="44.65544" lon="3.15387">
        <ele>1252.74</ele>
        <time>2014-06-28T07:28:44Z</time>
      </trkpt>
      <trkpt lat="44.65525" lon="3.15369">
        <ele>1253.22</ele>
        <time>2014-06-28T07:29:02Z</time>
      </trkpt>
      <trkpt lat="44.65509" lon="3.15352">
        <ele>1251.77</ele>
        <time>2014-06-28T07:29:17Z</time>
      </trkpt>
      <trkpt lat="44.6549" lon="3.15337">
        <ele>1251.77</ele>
        <time>2014-06-28T07:29:33Z</time>
      </trkpt>
      <trkpt lat="44.65471" lon="3.15323">
        <ele>1251.77</ele>
        <time>2014-06-28T07:29:49Z</time>
      </trkpt>
      <trkpt lat="44.65469" lon="3.15321">
        <ele>1251.77</ele>
        <time>2014-06-28T07:29:51Z</time>
      </trkpt>
      <trkpt lat="44.65448" lon="3.15305">
        <ele>1250.81</ele>
        <time>2014-06-28T07:30:09Z</time>
      </trkpt>
      <trkpt lat="44.65429" lon="3.15289">
        <ele>1249.85</ele>
        <time>2014-06-28T07:30:26Z</time>
      </trkpt>
      <trkpt lat="44.65407" lon="3.15275">
        <ele>1248.41</ele>
        <time>2014-06-28T07:30:47Z</time>
      </trkpt>
      <trkpt lat="44.65393" lon="3.15264">
        <ele>1247.93</ele>
        <time>2014-06-28T07:31:00Z</time>
      </trkpt>
      <trkpt lat="44.65372" lon="3.15251">
        <ele>1247.45</ele>
        <time>2014-06-28T07:31:19Z</time>
      </trkpt>
      <trkpt lat="44.65349" lon="3.15245">
        <ele>1246.97</ele>
        <time>2014-06-28T07:31:36Z</time>
      </trkpt>
      <trkpt lat="44.65342" lon="3.15243">
        <ele>1246.49</ele>
        <time>2014-06-28T07:31:41Z</time>
      </trkpt>
      <trkpt lat="44.65318" lon="3.15236">
        <ele>1246.49</ele>
        <time>2014-06-28T07:31:58Z</time>
      </trkpt>
      <trkpt lat="44.65295" lon="3.15228">
        <ele>1246.01</ele>
        <time>2014-06-28T07:32:15Z</time>
      </trkpt>
      <trkpt lat="44.65272" lon="3.15222">
        <ele>1245.04</ele>
        <time>2014-06-28T07:32:32Z</time>
      </trkpt>
      <trkpt lat="44.65251" lon="3.15222">
        <ele>1244.08</ele>
        <time>2014-06-28T07:32:48Z</time>
      </trkpt>
      <trkpt lat="44.65228" lon="3.15225">
        <ele>1243.12</ele>
        <time>2014-06-28T07:33:05Z</time>
      </trkpt>
      <trkpt lat="44.65205" lon="3.15228">
        <ele>1241.68</ele>
        <time>2014-06-28T07:33:22Z</time>
      </trkpt>
      <trkpt lat="44.65188" lon="3.15223">
        <ele>1240.72</ele>
        <time>2014-06-28T07:33:37Z</time>
      </trkpt>
      <trkpt lat="44.6517" lon="3.15214">
        <ele>1240.24</ele>
        <time>2014-06-28T07:33:53Z</time>
      </trkpt>
      <trkpt lat="44.6515" lon="3.15207">
        <ele>1239.28</ele>
        <time>2014-06-28T07:34:10Z</time>
      </trkpt>
      <trkpt lat="44.65146" lon="3.15204">
        <ele>1239.28</ele>
        <time>2014-06-28T07:34:14Z</time>
      </trkpt>
      <trkpt lat="44.65141" lon="3.15202">
        <ele>1239.28</ele>
        <time>2014-06-28T07:34:18Z</time>
      </trkpt>
      <trkpt lat="44.65123" lon="3.15196">
        <ele>1237.83</ele>
        <time>2014-06-28T07:34:34Z</time>
      </trkpt>
      <trkpt lat="44.65106" lon="3.15189">
        <ele>1233.99</ele>
        <time>2014-06-28T07:34:49Z</time>
      </trkpt>
      <trkpt lat="44.65105" lon="3.15188">
        <ele>1233.99</ele>
        <time>2014-06-28T07:34:50Z</time>
      </trkpt>
      <trkpt lat="44.65086" lon="3.1518">
        <ele>1232.55</ele>
        <time>2014-06-28T07:35:06Z</time>
      </trkpt>
      <trkpt lat="44.65085" lon="3.1518">
        <ele>1232.55</ele>
        <time>2014-06-28T07:35:07Z</time>
      </trkpt>
      <trkpt lat="44.65083" lon="3.15179">
        <ele>1234.47</ele>
        <time>2014-06-28T07:35:09Z</time>
      </trkpt>
      <trkpt lat="44.65069" lon="3.15172">
        <ele>1235.43</ele>
        <time>2014-06-28T07:35:22Z</time>
      </trkpt>
      <trkpt lat="44.65056" lon="3.15166">
        <ele>1235.91</ele>
        <time>2014-06-28T07:35:34Z</time>
      </trkpt>
      <trkpt lat="44.6505" lon="3.15163">
        <ele>1235.91</ele>
        <time>2014-06-28T07:35:39Z</time>
      </trkpt>
      <trkpt lat="44.65039" lon="3.15161">
        <ele>1236.39</ele>
        <time>2014-06-28T07:35:47Z</time>
      </trkpt>
      <trkpt lat="44.65024" lon="3.15154">
        <ele>1234.47</ele>
        <time>2014-06-28T07:36:00Z</time>
      </trkpt>
      <trkpt lat="44.65021" lon="3.15152">
        <ele>1233.99</ele>
        <time>2014-06-28T07:36:03Z</time>
      </trkpt>
      <trkpt lat="44.65009" lon="3.15144">
        <ele>1235.43</ele>
        <time>2014-06-28T07:36:13Z</time>
      </trkpt>
      <trkpt lat="44.65002" lon="3.15138">
        <ele>1233.51</ele>
        <time>2014-06-28T07:36:19Z</time>
      </trkpt>
      <trkpt lat="44.64994" lon="3.15132">
        <ele>1234.95</ele>
        <time>2014-06-28T07:36:26Z</time>
      </trkpt>
      <trkpt lat="44.64973" lon="3.15124">
        <ele>1233.03</ele>
        <time>2014-06-28T07:36:42Z</time>
      </trkpt>
      <trkpt lat="44.6496" lon="3.15123">
        <ele>1232.55</ele>
        <time>2014-06-28T07:36:52Z</time>
      </trkpt>
      <trkpt lat="44.64952" lon="3.15125">
        <ele>1233.99</ele>
        <time>2014-06-28T07:36:59Z</time>
      </trkpt>
      <trkpt lat="44.6495" lon="3.15125">
        <ele>1233.99</ele>
        <time>2014-06-28T07:37:00Z</time>
      </trkpt>
      <trkpt lat="44.64929" lon="3.15128">
        <ele>1233.99</ele>
        <time>2014-06-28T07:37:17Z</time>
      </trkpt>
      <trkpt lat="44.64925" lon="3.15128">
        <ele>1235.91</ele>
        <time>2014-06-28T07:37:21Z</time>
      </trkpt>
      <trkpt lat="44.64921" lon="3.15129">
        <ele>1235.91</ele>
        <time>2014-06-28T07:37:25Z</time>
      </trkpt>
      <trkpt lat="44.64917" lon="3.15127">
        <ele>1236.39</ele>
        <time>2014-06-28T07:37:28Z</time>
      </trkpt>
      <trkpt lat="44.64899" lon="3.15127">
        <ele>1237.83</ele>
        <time>2014-06-28T07:37:43Z</time>
      </trkpt>
      <trkpt lat="44.64881" lon="3.15126">
        <ele>1239.28</ele>
        <time>2014-06-28T07:37:57Z</time>
      </trkpt>
      <trkpt lat="44.64879" lon="3.15126">
        <ele>1239.28</ele>
        <time>2014-06-28T07:37:58Z</time>
      </trkpt>
      <trkpt lat="44.64873" lon="3.15124">
        <ele>1239.28</ele>
        <time>2014-06-28T07:38:03Z</time>
      </trkpt>
      <trkpt lat="44.64869" lon="3.15124">
        <ele>1239.28</ele>
        <time>2014-06-28T07:38:06Z</time>
      </trkpt>
      <trkpt lat="44.64858" lon="3.15121">
        <ele>1238.32</ele>
        <time>2014-06-28T07:38:14Z</time>
      </trkpt>
      <trkpt lat="44.64852" lon="3.15119">
        <ele>1238.32</ele>
        <time>2014-06-28T07:38:19Z</time>
      </trkpt>
      <trkpt lat="44.64849" lon="3.15118">
        <ele>1239.28</ele>
        <time>2014-06-28T07:38:21Z</time>
      </trkpt>
      <trkpt lat="44.64845" lon="3.15117">
        <ele>1238.32</ele>
        <time>2014-06-28T07:38:24Z</time>
      </trkpt>
      <trkpt lat="44.64839" lon="3.15117">
        <ele>1237.83</ele>
        <time>2014-06-28T07:38:29Z</time>
      </trkpt>
      <trkpt lat="44.64835" lon="3.15116">
        <ele>1240.72</ele>
        <time>2014-06-28T07:38:32Z</time>
      </trkpt>
      <trkpt lat="44.64823" lon="3.15113">
        <ele>1241.2</ele>
        <time>2014-06-28T07:38:41Z</time>
      </trkpt>
      <trkpt lat="44.64815" lon="3.15111">
        <ele>1239.28</ele>
        <time>2014-06-28T07:38:47Z</time>
      </trkpt>
      <trkpt lat="44.64799" lon="3.15102">
        <ele>1238.32</ele>
        <time>2014-06-28T07:39:00Z</time>
      </trkpt>
      <trkpt lat="44.64789" lon="3.15097">
        <ele>1239.76</ele>
        <time>2014-06-28T07:39:08Z</time>
      </trkpt>
      <trkpt lat="44.64774" lon="3.15089">
        <ele>1239.76</ele>
        <time>2014-06-28T07:39:20Z</time>
      </trkpt>
      <trkpt lat="44.64768" lon="3.15085">
        <ele>1239.76</ele>
        <time>2014-06-28T07:39:25Z</time>
      </trkpt>
      <trkpt lat="44.64762" lon="3.15082">
        <ele>1241.2</ele>
        <time>2014-06-28T07:39:33Z</time>
      </trkpt>
      <trkpt lat="44.64763" lon="3.15082">
        <ele>1241.2</ele>
        <time>2014-06-28T07:39:37Z</time>
      </trkpt>
      <trkpt lat="44.6476" lon="3.15081">
        <ele>1241.2</ele>
        <time>2014-06-28T07:39:41Z</time>
      </trkpt>
      <trkpt lat="44.64744" lon="3.15076">
        <ele>1239.76</ele>
        <time>2014-06-28T07:39:54Z</time>
      </trkpt>
      <trkpt lat="44.64739" lon="3.15074">
        <ele>1239.76</ele>
        <time>2014-06-28T07:39:58Z</time>
      </trkpt>
      <trkpt lat="44.64731" lon="3.15073">
        <ele>1241.2</ele>
        <time>2014-06-28T07:40:05Z</time>
      </trkpt>
      <trkpt lat="44.64725" lon="3.15072">
        <ele>1241.2</ele>
        <time>2014-06-28T07:40:10Z</time>
      </trkpt>
      <trkpt lat="44.64712" lon="3.15069">
        <ele>1241.68</ele>
        <time>2014-06-28T07:40:20Z</time>
      </trkpt>
      <trkpt lat="44.6471" lon="3.15069">
        <ele>1241.68</ele>
        <time>2014-06-28T07:40:22Z</time>
      </trkpt>
      <trkpt lat="44.64705" lon="3.15068">
        <ele>1241.68</ele>
        <time>2014-06-28T07:40:26Z</time>
      </trkpt>
      <trkpt lat="44.6469" lon="3.15064">
        <ele>1242.64</ele>
        <time>2014-06-28T07:40:38Z</time>
      </trkpt>
      <trkpt lat="44.64683" lon="3.15062">
        <ele>1241.2</ele>
        <time>2014-06-28T07:40:44Z</time>
      </trkpt>
      <trkpt lat="44.64676" lon="3.15061">
        <ele>1241.2</ele>
        <time>2014-06-28T07:40:49Z</time>
      </trkpt>
      <trkpt lat="44.64672" lon="3.15062">
        <ele>1241.2</ele>
        <time>2014-06-28T07:40:52Z</time>
      </trkpt>
      <trkpt lat="44.64656" lon="3.15065">
        <ele>1243.12</ele>
        <time>2014-06-28T07:41:06Z</time>
      </trkpt>
      <trkpt lat="44.64639" lon="3.15071">
        <ele>1244.08</ele>
        <time>2014-06-28T07:41:20Z</time>
      </trkpt>
      <trkpt lat="44.64633" lon="3.15074">
        <ele>1243.6</ele>
        <time>2014-06-28T07:41:25Z</time>
      </trkpt>
      <trkpt lat="44.64614" lon="3.15083">
        <ele>1245.53</ele>
        <time>2014-06-28T07:41:41Z</time>
      </trkpt>
      <trkpt lat="44.646" lon="3.15088">
        <ele>1246.49</ele>
        <time>2014-06-28T07:41:52Z</time>
      </trkpt>
      <trkpt lat="44.64585" lon="3.15095">
        <ele>1247.45</ele>
        <time>2014-06-28T07:42:05Z</time>
      </trkpt>
      <trkpt lat="44.64569" lon="3.15101">
        <ele>1248.41</ele>
        <time>2014-06-28T07:42:19Z</time>
      </trkpt>
      <trkpt lat="44.64564" lon="3.15103">
        <ele>1250.33</ele>
        <time>2014-06-28T07:42:23Z</time>
      </trkpt>
      <trkpt lat="44.64551" lon="3.15106">
        <ele>1250.33</ele>
        <time>2014-06-28T07:42:36Z</time>
      </trkpt>
      <trkpt lat="44.64543" lon="3.15109">
        <ele>1250.81</ele>
        <time>2014-06-28T07:42:46Z</time>
      </trkpt>
      <trkpt lat="44.6454" lon="3.1511">
        <ele>1250.81</ele>
        <time>2014-06-28T07:42:49Z</time>
      </trkpt>
      <trkpt lat="44.64535" lon="3.15111">
        <ele>1252.74</ele>
        <time>2014-06-28T07:42:53Z</time>
      </trkpt>
      <trkpt lat="44.64529" lon="3.15114">
        <ele>1253.22</ele>
        <time>2014-06-28T07:42:58Z</time>
      </trkpt>
      <trkpt lat="44.64522" lon="3.15116">
        <ele>1254.18</ele>
        <time>2014-06-28T07:43:04Z</time>
      </trkpt>
      <trkpt lat="44.64514" lon="3.15118">
        <ele>1254.18</ele>
        <time>2014-06-28T07:43:11Z</time>
      </trkpt>
      <trkpt lat="44.64502" lon="3.15122">
        <ele>1254.18</ele>
        <time>2014-06-28T07:43:21Z</time>
      </trkpt>
      <trkpt lat="44.64499" lon="3.15123">
        <ele>1252.74</ele>
        <time>2014-06-28T07:43:23Z</time>
      </trkpt>
      <trkpt lat="44.64496" lon="3.15125">
        <ele>1252.74</ele>
        <time>2014-06-28T07:43:26Z</time>
      </trkpt>
      <trkpt lat="44.64484" lon="3.15131">
        <ele>1256.1</ele>
        <time>2014-06-28T07:43:37Z</time>
      </trkpt>
      <trkpt lat="44.64478" lon="3.15134">
        <ele>1256.1</ele>
        <time>2014-06-28T07:43:52Z</time>
      </trkpt>
      <trkpt lat="44.64478" lon="3.15135">
        <ele>1256.1</ele>
        <time>2014-06-28T07:44:04Z</time>
      </trkpt>
      <trkpt lat="44.64476" lon="3.15135">
        <ele>1254.66</ele>
        <time>2014-06-28T07:44:15Z</time>
      </trkpt>
      <trkpt lat="44.64476" lon="3.15134">
        <ele>1256.1</ele>
        <time>2014-06-28T07:44:34Z</time>
      </trkpt>
      <trkpt lat="44.64475" lon="3.15136">
        <ele>1255.62</ele>
        <time>2014-06-28T07:44:41Z</time>
      </trkpt>
      <trkpt lat="44.64474" lon="3.15136">
        <ele>1256.58</ele>
        <time>2014-06-28T07:44:54Z</time>
      </trkpt>
      <trkpt lat="44.64473" lon="3.15137">
        <ele>1255.14</ele>
        <time>2014-06-28T07:45:01Z</time>
      </trkpt>
      <trkpt lat="44.64472" lon="3.15138">
        <ele>1256.58</ele>
        <time>2014-06-28T07:45:03Z</time>
      </trkpt>
      <trkpt lat="44.64471" lon="3.15139">
        <ele>1255.14</ele>
        <time>2014-06-28T07:45:05Z</time>
      </trkpt>
      <trkpt lat="44.64459" lon="3.15146">
        <ele>1255.14</ele>
        <time>2014-06-28T07:45:19Z</time>
      </trkpt>
      <trkpt lat="44.64451" lon="3.1515">
        <ele>1255.62</ele>
        <time>2014-06-28T07:45:29Z</time>
      </trkpt>
      <trkpt lat="44.6444" lon="3.15157">
        <ele>1256.1</ele>
        <time>2014-06-28T07:45:44Z</time>
      </trkpt>
      <trkpt lat="44.64437" lon="3.15158">
        <ele>1255.14</ele>
        <time>2014-06-28T07:45:49Z</time>
      </trkpt>
      <trkpt lat="44.64418" lon="3.15169">
        <ele>1255.14</ele>
        <time>2014-06-28T07:46:07Z</time>
      </trkpt>
      <trkpt lat="44.64415" lon="3.1517">
        <ele>1256.1</ele>
        <time>2014-06-28T07:46:10Z</time>
      </trkpt>
      <trkpt lat="44.64396" lon="3.1518">
        <ele>1256.58</ele>
        <time>2014-06-28T07:46:27Z</time>
      </trkpt>
      <trkpt lat="44.64382" lon="3.1519">
        <ele>1257.06</ele>
        <time>2014-06-28T07:46:42Z</time>
      </trkpt>
      <trkpt lat="44.64363" lon="3.15202">
        <ele>1258.98</ele>
        <time>2014-06-28T07:46:59Z</time>
      </trkpt>
      <trkpt lat="44.64346" lon="3.15211">
        <ele>1258.98</ele>
        <time>2014-06-28T07:47:15Z</time>
      </trkpt>
      <trkpt lat="44.64332" lon="3.15219">
        <ele>1261.39</ele>
        <time>2014-06-28T07:47:28Z</time>
      </trkpt>
      <trkpt lat="44.64331" lon="3.15219">
        <ele>1261.39</ele>
        <time>2014-06-28T07:47:29Z</time>
      </trkpt>
      <trkpt lat="44.6433" lon="3.15221">
        <ele>1261.39</ele>
        <time>2014-06-28T07:47:31Z</time>
      </trkpt>
      <trkpt lat="44.64316" lon="3.15229">
        <ele>1262.35</ele>
        <time>2014-06-28T07:47:44Z</time>
      </trkpt>
      <trkpt lat="44.64314" lon="3.1523">
        <ele>1260.91</ele>
        <time>2014-06-28T07:47:46Z</time>
      </trkpt>
      <trkpt lat="44.64311" lon="3.15232">
        <ele>1262.35</ele>
        <time>2014-06-28T07:47:49Z</time>
      </trkpt>
      <trkpt lat="44.64294" lon="3.1524">
        <ele>1263.31</ele>
        <time>2014-06-28T07:48:04Z</time>
      </trkpt>
      <trkpt lat="44.64272" lon="3.15251">
        <ele>1262.83</ele>
        <time>2014-06-28T07:48:22Z</time>
      </trkpt>
      <trkpt lat="44.64252" lon="3.15259">
        <ele>1262.35</ele>
        <time>2014-06-28T07:48:38Z</time>
      </trkpt>
      <trkpt lat="44.64227" lon="3.15263">
        <ele>1261.87</ele>
        <time>2014-06-28T07:48:56Z</time>
      </trkpt>
      <trkpt lat="44.64204" lon="3.1527">
        <ele>1261.39</ele>
        <time>2014-06-28T07:49:14Z</time>
      </trkpt>
      <trkpt lat="44.64201" lon="3.15271">
        <ele>1262.83</ele>
        <time>2014-06-28T07:49:16Z</time>
      </trkpt>
      <trkpt lat="44.64181" lon="3.15279">
        <ele>1264.27</ele>
        <time>2014-06-28T07:49:33Z</time>
      </trkpt>
      <trkpt lat="44.6417" lon="3.15285">
        <ele>1263.31</ele>
        <time>2014-06-28T07:49:42Z</time>
      </trkpt>
      <trkpt lat="44.64166" lon="3.15286">
        <ele>1264.75</ele>
        <time>2014-06-28T07:49:45Z</time>
      </trkpt>
      <trkpt lat="44.64164" lon="3.15286">
        <ele>1263.31</ele>
        <time>2014-06-28T07:49:47Z</time>
      </trkpt>
      <trkpt lat="44.6416" lon="3.15288">
        <ele>1265.23</ele>
        <time>2014-06-28T07:49:50Z</time>
      </trkpt>
      <trkpt lat="44.64148" lon="3.15293">
        <ele>1263.79</ele>
        <time>2014-06-28T07:50:00Z</time>
      </trkpt>
      <trkpt lat="44.64129" lon="3.15304">
        <ele>1265.23</ele>
        <time>2014-06-28T07:50:16Z</time>
      </trkpt>
      <trkpt lat="44.64124" lon="3.15306">
        <ele>1264.75</ele>
        <time>2014-06-28T07:50:20Z</time>
      </trkpt>
      <trkpt lat="44.64106" lon="3.15313">
        <ele>1265.23</ele>
        <time>2014-06-28T07:50:33Z</time>
      </trkpt>
      <trkpt lat="44.64104" lon="3.15313">
        <ele>1263.79</ele>
        <time>2014-06-28T07:50:35Z</time>
      </trkpt>
      <trkpt lat="44.64084" lon="3.15323">
        <ele>1264.27</ele>
        <time>2014-06-28T07:50:51Z</time>
      </trkpt>
      <trkpt lat="44.64083" lon="3.15323">
        <ele>1264.27</ele>
        <time>2014-06-28T07:50:52Z</time>
      </trkpt>
      <trkpt lat="44.64069" lon="3.15334">
        <ele>1266.19</ele>
        <time>2014-06-28T07:51:05Z</time>
      </trkpt>
      <trkpt lat="44.64054" lon="3.15355">
        <ele>1264.27</ele>
        <time>2014-06-28T07:51:21Z</time>
      </trkpt>
      <trkpt lat="44.64051" lon="3.15358">
        <ele>1264.27</ele>
        <time>2014-06-28T07:51:24Z</time>
      </trkpt>
      <trkpt lat="44.64045" lon="3.15371">
        <ele>1264.27</ele>
        <time>2014-06-28T07:51:37Z</time>
      </trkpt>
      <trkpt lat="44.64045" lon="3.15373">
        <ele>1264.27</ele>
        <time>2014-06-28T07:51:49Z</time>
      </trkpt>
      <trkpt lat="44.64044" lon="3.15379">
        <ele>1265.71</ele>
        <time>2014-06-28T07:51:53Z</time>
      </trkpt>
      <trkpt lat="44.64044" lon="3.15385">
        <ele>1265.71</ele>
        <time>2014-06-28T07:52:02Z</time>
      </trkpt>
      <trkpt lat="44.64045" lon="3.15401">
        <ele>1264.27</ele>
        <time>2014-06-28T07:52:14Z</time>
      </trkpt>
      <trkpt lat="44.64039" lon="3.15427">
        <ele>1262.35</ele>
        <time>2014-06-28T07:52:30Z</time>
      </trkpt>
      <trkpt lat="44.64038" lon="3.15431">
        <ele>1261.39</ele>
        <time>2014-06-28T07:52:33Z</time>
      </trkpt>
      <trkpt lat="44.64033" lon="3.15435">
        <ele>1261.39</ele>
        <time>2014-06-28T07:52:37Z</time>
      </trkpt>
      <trkpt lat="44.64018" lon="3.15439">
        <ele>1258.98</ele>
        <time>2014-06-28T07:52:49Z</time>
      </trkpt>
      <trkpt lat="44.64008" lon="3.15446">
        <ele>1257.54</ele>
        <time>2014-06-28T07:52:58Z</time>
      </trkpt>
      <trkpt lat="44.64012" lon="3.15467">
        <ele>1256.1</ele>
        <time>2014-06-28T07:53:11Z</time>
      </trkpt>
      <trkpt lat="44.6402" lon="3.15484">
        <ele>1255.14</ele>
        <time>2014-06-28T07:53:21Z</time>
      </trkpt>
      <trkpt lat="44.64022" lon="3.15493">
        <ele>1254.18</ele>
        <time>2014-06-28T07:53:28Z</time>
      </trkpt>
      <trkpt lat="44.64009" lon="3.15487">
        <ele>1253.22</ele>
        <time>2014-06-28T07:53:40Z</time>
      </trkpt>
      <trkpt lat="44.63988" lon="3.15471">
        <ele>1253.22</ele>
        <time>2014-06-28T07:53:57Z</time>
      </trkpt>
      <trkpt lat="44.63974" lon="3.15463">
        <ele>1252.74</ele>
        <time>2014-06-28T07:54:08Z</time>
      </trkpt>
      <trkpt lat="44.63969" lon="3.15459">
        <ele>1252.74</ele>
        <time>2014-06-28T07:54:12Z</time>
      </trkpt>
      <trkpt lat="44.63954" lon="3.15446">
        <ele>1252.25</ele>
        <time>2014-06-28T07:54:26Z</time>
      </trkpt>
      <trkpt lat="44.63952" lon="3.15442">
        <ele>1252.25</ele>
        <time>2014-06-28T07:54:29Z</time>
      </trkpt>
      <trkpt lat="44.63952" lon="3.15442">
        <ele>1252.25</ele>
        <time>2014-06-28T07:54:42Z</time>
      </trkpt>
      <trkpt lat="44.63944" lon="3.15431">
        <ele>1252.25</ele>
        <time>2014-06-28T07:54:51Z</time>
      </trkpt>
      <trkpt lat="44.63935" lon="3.1542">
        <ele>1253.22</ele>
        <time>2014-06-28T07:55:03Z</time>
      </trkpt>
      <trkpt lat="44.63919" lon="3.15403">
        <ele>1253.22</ele>
        <time>2014-06-28T07:55:18Z</time>
      </trkpt>
      <trkpt lat="44.63904" lon="3.1539">
        <ele>1251.77</ele>
        <time>2014-06-28T07:55:33Z</time>
      </trkpt>
      <trkpt lat="44.63884" lon="3.15378">
        <ele>1251.29</ele>
        <time>2014-06-28T07:55:50Z</time>
      </trkpt>
      <trkpt lat="44.63865" lon="3.15364">
        <ele>1250.33</ele>
        <time>2014-06-28T07:56:08Z</time>
      </trkpt>
      <trkpt lat="44.63845" lon="3.15352">
        <ele>1248.89</ele>
        <time>2014-06-28T07:56:24Z</time>
      </trkpt>
      <trkpt lat="44.63828" lon="3.15347">
        <ele>1248.89</ele>
        <time>2014-06-28T07:56:37Z</time>
      </trkpt>
      <trkpt lat="44.63827" lon="3.1535">
        <ele>1248.89</ele>
        <time>2014-06-28T07:56:50Z</time>
      </trkpt>
      <trkpt lat="44.63824" lon="3.15349">
        <ele>1250.33</ele>
        <time>2014-06-28T07:56:57Z</time>
      </trkpt>
      <trkpt lat="44.63816" lon="3.15345">
        <ele>1249.85</ele>
        <time>2014-06-28T07:57:04Z</time>
      </trkpt>
      <trkpt lat="44.63811" lon="3.15343">
        <ele>1250.33</ele>
        <time>2014-06-28T07:57:08Z</time>
      </trkpt>
      <trkpt lat="44.63805" lon="3.15338">
        <ele>1250.33</ele>
        <time>2014-06-28T07:57:13Z</time>
      </trkpt>
      <trkpt lat="44.63801" lon="3.15338">
        <ele>1250.33</ele>
        <time>2014-06-28T07:57:17Z</time>
      </trkpt>
      <trkpt lat="44.63795" lon="3.15339">
        <ele>1250.81</ele>
        <time>2014-06-28T07:57:22Z</time>
      </trkpt>
      <trkpt lat="44.63784" lon="3.15342">
        <ele>1251.29</ele>
        <time>2014-06-28T07:57:32Z</time>
      </trkpt>
      <trkpt lat="44.63773" lon="3.15343">
        <ele>1252.74</ele>
        <time>2014-06-28T07:57:41Z</time>
      </trkpt>
      <trkpt lat="44.6376" lon="3.15342">
        <ele>1254.18</ele>
        <time>2014-06-28T07:57:52Z</time>
      </trkpt>
      <trkpt lat="44.63758" lon="3.15342">
        <ele>1254.66</ele>
        <time>2014-06-28T07:57:54Z</time>
      </trkpt>
      <trkpt lat="44.63751" lon="3.1534">
        <ele>1255.14</ele>
        <time>2014-06-28T07:58:00Z</time>
      </trkpt>
      <trkpt lat="44.63733" lon="3.15337">
        <ele>1257.06</ele>
        <time>2014-06-28T07:58:14Z</time>
      </trkpt>
      <trkpt lat="44.63731" lon="3.15336">
        <ele>1255.62</ele>
        <time>2014-06-28T07:58:16Z</time>
      </trkpt>
      <trkpt lat="44.63711" lon="3.15323">
        <ele>1257.06</ele>
        <time>2014-06-28T07:58:33Z</time>
      </trkpt>
      <trkpt lat="44.6371" lon="3.15322">
        <ele>1257.06</ele>
        <time>2014-06-28T07:58:34Z</time>
      </trkpt>
      <trkpt lat="44.63687" lon="3.15313">
        <ele>1258.02</ele>
        <time>2014-06-28T07:58:53Z</time>
      </trkpt>
      <trkpt lat="44.63663" lon="3.15309">
        <ele>1258.02</ele>
        <time>2014-06-28T07:59:10Z</time>
      </trkpt>
      <trkpt lat="44.63642" lon="3.15299">
        <ele>1258.02</ele>
        <time>2014-06-28T07:59:26Z</time>
      </trkpt>
      <trkpt lat="44.63638" lon="3.15296">
        <ele>1257.06</ele>
        <time>2014-06-28T07:59:30Z</time>
      </trkpt>
      <trkpt lat="44.63623" lon="3.15288">
        <ele>1258.5</ele>
        <time>2014-06-28T07:59:41Z</time>
      </trkpt>
      <trkpt lat="44.63602" lon="3.15293">
        <ele>1260.43</ele>
        <time>2014-06-28T07:59:59Z</time>
      </trkpt>
      <trkpt lat="44.63597" lon="3.15295">
        <ele>1260.43</ele>
        <time>2014-06-28T08:00:03Z</time>
      </trkpt>
      <trkpt lat="44.63583" lon="3.15303">
        <ele>1261.87</ele>
        <time>2014-06-28T08:00:15Z</time>
      </trkpt>
      <trkpt lat="44.63578" lon="3.15306">
        <ele>1263.31</ele>
        <time>2014-06-28T08:00:19Z</time>
      </trkpt>
      <trkpt lat="44.63576" lon="3.15307">
        <ele>1261.87</ele>
        <time>2014-06-28T08:00:20Z</time>
      </trkpt>
      <trkpt lat="44.63571" lon="3.1531">
        <ele>1263.31</ele>
        <time>2014-06-28T08:00:24Z</time>
      </trkpt>
      <trkpt lat="44.63568" lon="3.15311">
        <ele>1261.87</ele>
        <time>2014-06-28T08:00:26Z</time>
      </trkpt>
      <trkpt lat="44.63549" lon="3.15314">
        <ele>1263.31</ele>
        <time>2014-06-28T08:00:40Z</time>
      </trkpt>
      <trkpt lat="44.63532" lon="3.15311">
        <ele>1264.27</ele>
        <time>2014-06-28T08:00:54Z</time>
      </trkpt>
      <trkpt lat="44.63524" lon="3.15308">
        <ele>1264.27</ele>
        <time>2014-06-28T08:01:00Z</time>
      </trkpt>
      <trkpt lat="44.63512" lon="3.15306">
        <ele>1262.35</ele>
        <time>2014-06-28T08:01:09Z</time>
      </trkpt>
      <trkpt lat="44.6351" lon="3.15305">
        <ele>1264.27</ele>
        <time>2014-06-28T08:01:11Z</time>
      </trkpt>
      <trkpt lat="44.63492" lon="3.15299">
        <ele>1262.83</ele>
        <time>2014-06-28T08:01:24Z</time>
      </trkpt>
      <trkpt lat="44.63485" lon="3.15299">
        <ele>1263.31</ele>
        <time>2014-06-28T08:01:29Z</time>
      </trkpt>
      <trkpt lat="44.63461" lon="3.15299">
        <ele>1263.31</ele>
        <time>2014-06-28T08:01:49Z</time>
      </trkpt>
      <trkpt lat="44.63441" lon="3.15296">
        <ele>1263.31</ele>
        <time>2014-06-28T08:02:05Z</time>
      </trkpt>
      <trkpt lat="44.6344" lon="3.15296">
        <ele>1262.83</ele>
        <time>2014-06-28T08:02:06Z</time>
      </trkpt>
      <trkpt lat="44.63431" lon="3.15295">
        <ele>1259.94</ele>
        <time>2014-06-28T08:02:13Z</time>
      </trkpt>
      <trkpt lat="44.63427" lon="3.15296">
        <ele>1262.83</ele>
        <time>2014-06-28T08:02:16Z</time>
      </trkpt>
      <trkpt lat="44.63409" lon="3.153">
        <ele>1259.94</ele>
        <time>2014-06-28T08:02:30Z</time>
      </trkpt>
      <trkpt lat="44.63405" lon="3.15301">
        <ele>1261.87</ele>
        <time>2014-06-28T08:02:33Z</time>
      </trkpt>
      <trkpt lat="44.634" lon="3.15302">
        <ele>1260.43</ele>
        <time>2014-06-28T08:02:37Z</time>
      </trkpt>
      <trkpt lat="44.63384" lon="3.15306">
        <ele>1260.91</ele>
        <time>2014-06-28T08:02:50Z</time>
      </trkpt>
      <trkpt lat="44.63364" lon="3.15312">
        <ele>1259.94</ele>
        <time>2014-06-28T08:03:06Z</time>
      </trkpt>
      <trkpt lat="44.63347" lon="3.15306">
        <ele>1258.5</ele>
        <time>2014-06-28T08:03:21Z</time>
      </trkpt>
      <trkpt lat="44.63328" lon="3.15297">
        <ele>1258.5</ele>
        <time>2014-06-28T08:03:35Z</time>
      </trkpt>
      <trkpt lat="44.63307" lon="3.15286">
        <ele>1256.58</ele>
        <time>2014-06-28T08:03:52Z</time>
      </trkpt>
      <trkpt lat="44.63301" lon="3.15282">
        <ele>1256.1</ele>
        <time>2014-06-28T08:03:57Z</time>
      </trkpt>
      <trkpt lat="44.63278" lon="3.15271">
        <ele>1254.66</ele>
        <time>2014-06-28T08:04:14Z</time>
      </trkpt>
      <trkpt lat="44.6327" lon="3.15264">
        <ele>1253.7</ele>
        <time>2014-06-28T08:04:22Z</time>
      </trkpt>
      <trkpt lat="44.63265" lon="3.15261">
        <ele>1253.22</ele>
        <time>2014-06-28T08:04:26Z</time>
      </trkpt>
      <trkpt lat="44.63245" lon="3.15249">
        <ele>1251.77</ele>
        <time>2014-06-28T08:04:43Z</time>
      </trkpt>
      <trkpt lat="44.63227" lon="3.15254">
        <ele>1248.89</ele>
        <time>2014-06-28T08:04:57Z</time>
      </trkpt>
      <trkpt lat="44.63213" lon="3.15269">
        <ele>1251.29</ele>
        <time>2014-06-28T08:05:11Z</time>
      </trkpt>
      <trkpt lat="44.63211" lon="3.15274">
        <ele>1252.74</ele>
        <time>2014-06-28T08:05:14Z</time>
      </trkpt>
      <trkpt lat="44.6321" lon="3.15285">
        <ele>1250.81</ele>
        <time>2014-06-28T08:05:20Z</time>
      </trkpt>
      <trkpt lat="44.63203" lon="3.15306">
        <ele>1252.25</ele>
        <time>2014-06-28T08:05:32Z</time>
      </trkpt>
      <trkpt lat="44.632" lon="3.15311">
        <ele>1250.33</ele>
        <time>2014-06-28T08:05:35Z</time>
      </trkpt>
      <trkpt lat="44.63197" lon="3.15317">
        <ele>1251.77</ele>
        <time>2014-06-28T08:05:39Z</time>
      </trkpt>
      <trkpt lat="44.63187" lon="3.15337">
        <ele>1251.77</ele>
        <time>2014-06-28T08:05:52Z</time>
      </trkpt>
      <trkpt lat="44.63174" lon="3.15361">
        <ele>1251.29</ele>
        <time>2014-06-28T08:06:08Z</time>
      </trkpt>
      <trkpt lat="44.63171" lon="3.15369">
        <ele>1253.22</ele>
        <time>2014-06-28T08:06:13Z</time>
      </trkpt>
      <trkpt lat="44.63166" lon="3.15379">
        <ele>1251.77</ele>
        <time>2014-06-28T08:06:19Z</time>
      </trkpt>
      <trkpt lat="44.63162" lon="3.15385">
        <ele>1254.18</ele>
        <time>2014-06-28T08:06:24Z</time>
      </trkpt>
      <trkpt lat="44.63157" lon="3.15395">
        <ele>1253.22</ele>
        <time>2014-06-28T08:06:31Z</time>
      </trkpt>
      <trkpt lat="44.63154" lon="3.15399">
        <ele>1254.66</ele>
        <time>2014-06-28T08:06:34Z</time>
      </trkpt>
      <trkpt lat="44.6315" lon="3.15411">
        <ele>1253.7</ele>
        <time>2014-06-28T08:06:41Z</time>
      </trkpt>
      <trkpt lat="44.63143" lon="3.15424">
        <ele>1255.14</ele>
        <time>2014-06-28T08:06:49Z</time>
      </trkpt>
      <trkpt lat="44.6314" lon="3.1543">
        <ele>1253.7</ele>
        <time>2014-06-28T08:06:53Z</time>
      </trkpt>
      <trkpt lat="44.6313" lon="3.15449">
        <ele>1253.7</ele>
        <time>2014-06-28T08:07:06Z</time>
      </trkpt>
      <trkpt lat="44.6313" lon="3.15454">
        <ele>1254.18</ele>
        <time>2014-06-28T08:07:09Z</time>
      </trkpt>
      <trkpt lat="44.63127" lon="3.15459">
        <ele>1254.18</ele>
        <time>2014-06-28T08:07:13Z</time>
      </trkpt>
      <trkpt lat="44.63125" lon="3.15461">
        <ele>1254.66</ele>
        <time>2014-06-28T08:07:15Z</time>
      </trkpt>
      <trkpt lat="44.63121" lon="3.1547">
        <ele>1254.18</ele>
        <time>2014-06-28T08:07:21Z</time>
      </trkpt>
      <trkpt lat="44.63119" lon="3.15473">
        <ele>1254.18</ele>
        <time>2014-06-28T08:07:23Z</time>
      </trkpt>
      <trkpt lat="44.63105" lon="3.15499">
        <ele>1254.18</ele>
        <time>2014-06-28T08:07:40Z</time>
      </trkpt>
      <trkpt lat="44.63091" lon="3.15527">
        <ele>1253.7</ele>
        <time>2014-06-28T08:07:57Z</time>
      </trkpt>
      <trkpt lat="44.63082" lon="3.1555">
        <ele>1254.66</ele>
        <time>2014-06-28T08:08:10Z</time>
      </trkpt>
      <trkpt lat="44.63079" lon="3.15554">
        <ele>1252.74</ele>
        <time>2014-06-28T08:08:13Z</time>
      </trkpt>
      <trkpt lat="44.63074" lon="3.15559">
        <ele>1254.66</ele>
        <time>2014-06-28T08:08:18Z</time>
      </trkpt>
      <trkpt lat="44.63063" lon="3.15566">
        <ele>1254.18</ele>
        <time>2014-06-28T08:08:27Z</time>
      </trkpt>
      <trkpt lat="44.63043" lon="3.15569">
        <ele>1254.66</ele>
        <time>2014-06-28T08:08:42Z</time>
      </trkpt>
      <trkpt lat="44.63037" lon="3.15569">
        <ele>1256.1</ele>
        <time>2014-06-28T08:08:46Z</time>
      </trkpt>
      <trkpt lat="44.6302" lon="3.15572">
        <ele>1256.1</ele>
        <time>2014-06-28T08:08:59Z</time>
      </trkpt>
      <trkpt lat="44.6301" lon="3.15572">
        <ele>1257.06</ele>
        <time>2014-06-28T08:09:06Z</time>
      </trkpt>
      <trkpt lat="44.63001" lon="3.1557">
        <ele>1255.62</ele>
        <time>2014-06-28T08:09:13Z</time>
      </trkpt>
      <trkpt lat="44.62998" lon="3.1557">
        <ele>1257.06</ele>
        <time>2014-06-28T08:09:15Z</time>
      </trkpt>
      <trkpt lat="44.62979" lon="3.15559">
        <ele>1255.62</ele>
        <time>2014-06-28T08:09:29Z</time>
      </trkpt>
      <trkpt lat="44.62972" lon="3.15555">
        <ele>1255.14</ele>
        <time>2014-06-28T08:09:35Z</time>
      </trkpt>
      <trkpt lat="44.62969" lon="3.15555">
        <ele>1256.58</ele>
        <time>2014-06-28T08:09:37Z</time>
      </trkpt>
      <trkpt lat="44.6295" lon="3.15552">
        <ele>1258.98</ele>
        <time>2014-06-28T08:09:52Z</time>
      </trkpt>
      <trkpt lat="44.62928" lon="3.15549">
        <ele>1259.94</ele>
        <time>2014-06-28T08:10:08Z</time>
      </trkpt>
      <trkpt lat="44.6292" lon="3.15548">
        <ele>1257.54</ele>
        <time>2014-06-28T08:10:14Z</time>
      </trkpt>
      <trkpt lat="44.62911" lon="3.15546">
        <ele>1257.06</ele>
        <time>2014-06-28T08:10:21Z</time>
      </trkpt>
      <trkpt lat="44.62908" lon="3.15545">
        <ele>1258.98</ele>
        <time>2014-06-28T08:10:23Z</time>
      </trkpt>
      <trkpt lat="44.62902" lon="3.15544">
        <ele>1261.39</ele>
        <time>2014-06-28T08:10:28Z</time>
      </trkpt>
      <trkpt lat="44.62896" lon="3.15542">
        <ele>1259.94</ele>
        <time>2014-06-28T08:10:32Z</time>
      </trkpt>
      <trkpt lat="44.62892" lon="3.15543">
        <ele>1262.35</ele>
        <time>2014-06-28T08:10:35Z</time>
      </trkpt>
      <trkpt lat="44.62882" lon="3.15545">
        <ele>1261.39</ele>
        <time>2014-06-28T08:10:44Z</time>
      </trkpt>
      <trkpt lat="44.62877" lon="3.15547">
        <ele>1262.83</ele>
        <time>2014-06-28T08:10:48Z</time>
      </trkpt>
      <trkpt lat="44.62875" lon="3.15548">
        <ele>1261.39</ele>
        <time>2014-06-28T08:10:50Z</time>
      </trkpt>
      <trkpt lat="44.62872" lon="3.15549">
        <ele>1261.87</ele>
        <time>2014-06-28T08:10:52Z</time>
      </trkpt>
      <trkpt lat="44.62853" lon="3.15558">
        <ele>1261.39</ele>
        <time>2014-06-28T08:11:07Z</time>
      </trkpt>
      <trkpt lat="44.62843" lon="3.15562">
        <ele>1262.83</ele>
        <time>2014-06-28T08:11:15Z</time>
      </trkpt>
      <trkpt lat="44.62828" lon="3.15567">
        <ele>1262.35</ele>
        <time>2014-06-28T08:11:27Z</time>
      </trkpt>
      <trkpt lat="44.62825" lon="3.15568">
        <ele>1261.39</ele>
        <time>2014-06-28T08:11:29Z</time>
      </trkpt>
      <trkpt lat="44.6282" lon="3.1557">
        <ele>1263.31</ele>
        <time>2014-06-28T08:11:33Z</time>
      </trkpt>
      <trkpt lat="44.62813" lon="3.15573">
        <ele>1262.35</ele>
        <time>2014-06-28T08:11:39Z</time>
      </trkpt>
      <trkpt lat="44.62809" lon="3.15576">
        <ele>1264.27</ele>
        <time>2014-06-28T08:11:43Z</time>
      </trkpt>
      <trkpt lat="44.62807" lon="3.15577">
        <ele>1266.19</ele>
        <time>2014-06-28T08:11:44Z</time>
      </trkpt>
      <trkpt lat="44.62803" lon="3.15578">
        <ele>1265.23</ele>
        <time>2014-06-28T08:11:47Z</time>
      </trkpt>
      <trkpt lat="44.62793" lon="3.15583">
        <ele>1263.79</ele>
        <time>2014-06-28T08:11:55Z</time>
      </trkpt>
      <trkpt lat="44.62778" lon="3.15588">
        <ele>1266.19</ele>
        <time>2014-06-28T08:12:07Z</time>
      </trkpt>
      <trkpt lat="44.6277" lon="3.15587">
        <ele>1263.79</ele>
        <time>2014-06-28T08:12:13Z</time>
      </trkpt>
      <trkpt lat="44.62767" lon="3.15587">
        <ele>1265.23</ele>
        <time>2014-06-28T08:12:15Z</time>
      </trkpt>
      <trkpt lat="44.62757" lon="3.15587">
        <ele>1268.6</ele>
        <time>2014-06-28T08:12:23Z</time>
      </trkpt>
      <trkpt lat="44.62755" lon="3.15587">
        <ele>1268.6</ele>
        <time>2014-06-28T08:12:24Z</time>
      </trkpt>
      <trkpt lat="44.62753" lon="3.15587">
        <ele>1265.23</ele>
        <time>2014-06-28T08:12:26Z</time>
      </trkpt>
      <trkpt lat="44.62742" lon="3.15592">
        <ele>1266.19</ele>
        <time>2014-06-28T08:12:35Z</time>
      </trkpt>
      <trkpt lat="44.62731" lon="3.15602">
        <ele>1266.67</ele>
        <time>2014-06-28T08:12:46Z</time>
      </trkpt>
      <trkpt lat="44.62727" lon="3.15606">
        <ele>1268.6</ele>
        <time>2014-06-28T08:12:50Z</time>
      </trkpt>
      <trkpt lat="44.62725" lon="3.15608">
        <ele>1268.6</ele>
        <time>2014-06-28T08:12:52Z</time>
      </trkpt>
      <trkpt lat="44.62717" lon="3.15615">
        <ele>1265.71</ele>
        <time>2014-06-28T08:12:59Z</time>
      </trkpt>
      <trkpt lat="44.62715" lon="3.15618">
        <ele>1270.04</ele>
        <time>2014-06-28T08:13:01Z</time>
      </trkpt>
      <trkpt lat="44.62714" lon="3.15619">
        <ele>1268.6</ele>
        <time>2014-06-28T08:13:02Z</time>
      </trkpt>
      <trkpt lat="44.62708" lon="3.15624">
        <ele>1269.56</ele>
        <time>2014-06-28T08:13:07Z</time>
      </trkpt>
      <trkpt lat="44.62703" lon="3.1563">
        <ele>1269.56</ele>
        <time>2014-06-28T08:13:13Z</time>
      </trkpt>
      <trkpt lat="44.627" lon="3.15632">
        <ele>1268.12</ele>
        <time>2014-06-28T08:13:15Z</time>
      </trkpt>
      <trkpt lat="44.62696" lon="3.15636">
        <ele>1268.12</ele>
        <time>2014-06-28T08:13:19Z</time>
      </trkpt>
      <trkpt lat="44.62682" lon="3.1565">
        <ele>1269.56</ele>
        <time>2014-06-28T08:13:32Z</time>
      </trkpt>
      <trkpt lat="44.62681" lon="3.15651">
        <ele>1269.56</ele>
        <time>2014-06-28T08:13:33Z</time>
      </trkpt>
      <trkpt lat="44.62669" lon="3.15659">
        <ele>1268.12</ele>
        <time>2014-06-28T08:13:43Z</time>
      </trkpt>
      <trkpt lat="44.62659" lon="3.15663">
        <ele>1266.19</ele>
        <time>2014-06-28T08:13:51Z</time>
      </trkpt>
      <trkpt lat="44.62655" lon="3.15665">
        <ele>1269.08</ele>
        <time>2014-06-28T08:13:54Z</time>
      </trkpt>
      <trkpt lat="44.62642" lon="3.15668">
        <ele>1271</ele>
        <time>2014-06-28T08:14:04Z</time>
      </trkpt>
      <trkpt lat="44.6262" lon="3.15671">
        <ele>1270.52</ele>
        <time>2014-06-28T08:14:21Z</time>
      </trkpt>
      <trkpt lat="44.62619" lon="3.15671">
        <ele>1270.52</ele>
        <time>2014-06-28T08:14:22Z</time>
      </trkpt>
      <trkpt lat="44.62603" lon="3.1567">
        <ele>1270.04</ele>
        <time>2014-06-28T08:14:34Z</time>
      </trkpt>
      <trkpt lat="44.62597" lon="3.15668">
        <ele>1271.48</ele>
        <time>2014-06-28T08:14:39Z</time>
      </trkpt>
      <trkpt lat="44.62577" lon="3.15653">
        <ele>1273.4</ele>
        <time>2014-06-28T08:14:55Z</time>
      </trkpt>
      <trkpt lat="44.62571" lon="3.15648">
        <ele>1272.92</ele>
        <time>2014-06-28T08:15:00Z</time>
      </trkpt>
      <trkpt lat="44.62562" lon="3.1564">
        <ele>1274.36</ele>
        <time>2014-06-28T08:15:08Z</time>
      </trkpt>
      <trkpt lat="44.62543" lon="3.15627">
        <ele>1275.81</ele>
        <time>2014-06-28T08:15:25Z</time>
      </trkpt>
      <trkpt lat="44.62523" lon="3.15617">
        <ele>1276.77</ele>
        <time>2014-06-28T08:15:42Z</time>
      </trkpt>
      <trkpt lat="44.62515" lon="3.15614">
        <ele>1275.33</ele>
        <time>2014-06-28T08:15:49Z</time>
      </trkpt>
      <trkpt lat="44.62497" lon="3.1561">
        <ele>1275.33</ele>
        <time>2014-06-28T08:16:03Z</time>
      </trkpt>
      <trkpt lat="44.62492" lon="3.15608">
        <ele>1276.77</ele>
        <time>2014-06-28T08:16:07Z</time>
      </trkpt>
      <trkpt lat="44.62487" lon="3.15607">
        <ele>1275.33</ele>
        <time>2014-06-28T08:16:11Z</time>
      </trkpt>
      <trkpt lat="44.62464" lon="3.156">
        <ele>1275.33</ele>
        <time>2014-06-28T08:16:30Z</time>
      </trkpt>
      <trkpt lat="44.62456" lon="3.156">
        <ele>1272.92</ele>
        <time>2014-06-28T08:16:37Z</time>
      </trkpt>
      <trkpt lat="44.62451" lon="3.15602">
        <ele>1276.29</ele>
        <time>2014-06-28T08:16:41Z</time>
      </trkpt>
      <trkpt lat="44.62444" lon="3.15609">
        <ele>1274.85</ele>
        <time>2014-06-28T08:16:48Z</time>
      </trkpt>
      <trkpt lat="44.62422" lon="3.15627">
        <ele>1275.81</ele>
        <time>2014-06-28T08:17:07Z</time>
      </trkpt>
      <trkpt lat="44.624" lon="3.15633">
        <ele>1273.4</ele>
        <time>2014-06-28T08:17:24Z</time>
      </trkpt>
      <trkpt lat="44.6238" lon="3.15626">
        <ele>1272.44</ele>
        <time>2014-06-28T08:17:40Z</time>
      </trkpt>
      <trkpt lat="44.62366" lon="3.15617">
        <ele>1271.48</ele>
        <time>2014-06-28T08:17:53Z</time>
      </trkpt>
      <trkpt lat="44.62346" lon="3.15603">
        <ele>1271.96</ele>
        <time>2014-06-28T08:18:10Z</time>
      </trkpt>
      <trkpt lat="44.62339" lon="3.15598">
        <ele>1271.48</ele>
        <time>2014-06-28T08:18:17Z</time>
      </trkpt>
      <trkpt lat="44.62334" lon="3.15595">
        <ele>1271.48</ele>
        <time>2014-06-28T08:18:21Z</time>
      </trkpt>
      <trkpt lat="44.62326" lon="3.15589">
        <ele>1271</ele>
        <time>2014-06-28T08:18:28Z</time>
      </trkpt>
      <trkpt lat="44.6232" lon="3.15584">
        <ele>1270.52</ele>
        <time>2014-06-28T08:18:33Z</time>
      </trkpt>
      <trkpt lat="44.62296" lon="3.15567">
        <ele>1269.56</ele>
        <time>2014-06-28T08:18:53Z</time>
      </trkpt>
      <trkpt lat="44.62277" lon="3.15553">
        <ele>1269.56</ele>
        <time>2014-06-28T08:19:09Z</time>
      </trkpt>
      <trkpt lat="44.62268" lon="3.15544">
        <ele>1270.52</ele>
        <time>2014-06-28T08:19:20Z</time>
      </trkpt>
      <trkpt lat="44.62268" lon="3.15545">
        <ele>1270.52</ele>
        <time>2014-06-28T08:19:23Z</time>
      </trkpt>
      <trkpt lat="44.62264" lon="3.15545">
        <ele>1270.52</ele>
        <time>2014-06-28T08:19:27Z</time>
      </trkpt>
      <trkpt lat="44.62247" lon="3.1553">
        <ele>1270.52</ele>
        <time>2014-06-28T08:19:42Z</time>
      </trkpt>
      <trkpt lat="44.62244" lon="3.15528">
        <ele>1269.08</ele>
        <time>2014-06-28T08:19:45Z</time>
      </trkpt>
      <trkpt lat="44.62242" lon="3.15526">
        <ele>1269.08</ele>
        <time>2014-06-28T08:19:47Z</time>
      </trkpt>
      <trkpt lat="44.6224" lon="3.15524">
        <ele>1270.52</ele>
        <time>2014-06-28T08:19:49Z</time>
      </trkpt>
      <trkpt lat="44.62232" lon="3.15518">
        <ele>1270.52</ele>
        <time>2014-06-28T08:19:56Z</time>
      </trkpt>
      <trkpt lat="44.62216" lon="3.15506">
        <ele>1270.52</ele>
        <time>2014-06-28T08:20:11Z</time>
      </trkpt>
      <trkpt lat="44.622" lon="3.15494">
        <ele>1271</ele>
        <time>2014-06-28T08:20:25Z</time>
      </trkpt>
      <trkpt lat="44.62183" lon="3.15482">
        <ele>1271.48</ele>
        <time>2014-06-28T08:20:40Z</time>
      </trkpt>
      <trkpt lat="44.62181" lon="3.1548">
        <ele>1271.48</ele>
        <time>2014-06-28T08:20:42Z</time>
      </trkpt>
      <trkpt lat="44.62171" lon="3.15472">
        <ele>1271.96</ele>
        <time>2014-06-28T08:20:51Z</time>
      </trkpt>
      <trkpt lat="44.62154" lon="3.15455">
        <ele>1272.92</ele>
        <time>2014-06-28T08:21:07Z</time>
      </trkpt>
      <trkpt lat="44.62142" lon="3.15436">
        <ele>1272.92</ele>
        <time>2014-06-28T08:21:21Z</time>
      </trkpt>
      <trkpt lat="44.6214" lon="3.15431">
        <ele>1272.92</ele>
        <time>2014-06-28T08:21:24Z</time>
      </trkpt>
      <trkpt lat="44.62137" lon="3.15424">
        <ele>1273.4</ele>
        <time>2014-06-28T08:21:29Z</time>
      </trkpt>
      <trkpt lat="44.62134" lon="3.15419">
        <ele>1273.4</ele>
        <time>2014-06-28T08:21:34Z</time>
      </trkpt>
      <trkpt lat="44.62131" lon="3.15415">
        <ele>1273.4</ele>
        <time>2014-06-28T08:21:39Z</time>
      </trkpt>
      <trkpt lat="44.62123" lon="3.154">
        <ele>1273.4</ele>
        <time>2014-06-28T08:21:52Z</time>
      </trkpt>
      <trkpt lat="44.62119" lon="3.15392">
        <ele>1273.4</ele>
        <time>2014-06-28T08:21:58Z</time>
      </trkpt>
      <trkpt lat="44.62118" lon="3.1539">
        <ele>1273.4</ele>
        <time>2014-06-28T08:22:01Z</time>
      </trkpt>
      <trkpt lat="44.62117" lon="3.15392">
        <ele>1273.4</ele>
        <time>2014-06-28T08:22:03Z</time>
      </trkpt>
      <trkpt lat="44.62111" lon="3.15407">
        <ele>1274.85</ele>
        <time>2014-06-28T08:22:15Z</time>
      </trkpt>
      <trkpt lat="44.62112" lon="3.15415">
        <ele>1275.33</ele>
        <time>2014-06-28T08:22:20Z</time>
      </trkpt>
      <trkpt lat="44.62112" lon="3.15422">
        <ele>1275.81</ele>
        <time>2014-06-28T08:22:25Z</time>
      </trkpt>
      <trkpt lat="44.62113" lon="3.15425">
        <ele>1276.29</ele>
        <time>2014-06-28T08:22:27Z</time>
      </trkpt>
      <trkpt lat="44.62115" lon="3.15428">
        <ele>1276.77</ele>
        <time>2014-06-28T08:22:42Z</time>
      </trkpt>
      <trkpt lat="44.62114" lon="3.15429">
        <ele>1276.29</ele>
        <time>2014-06-28T08:23:07Z</time>
      </trkpt>
      <trkpt lat="44.62114" lon="3.15431">
        <ele>1276.29</ele>
        <time>2014-06-28T08:23:25Z</time>
      </trkpt>
      <trkpt lat="44.62113" lon="3.15436">
        <ele>1276.29</ele>
        <time>2014-06-28T08:23:32Z</time>
      </trkpt>
      <trkpt lat="44.62113" lon="3.15457">
        <ele>1276.29</ele>
        <time>2014-06-28T08:23:44Z</time>
      </trkpt>
      <trkpt lat="44.62113" lon="3.15491">
        <ele>1277.25</ele>
        <time>2014-06-28T08:24:02Z</time>
      </trkpt>
      <trkpt lat="44.62113" lon="3.15525">
        <ele>1276.77</ele>
        <time>2014-06-28T08:24:20Z</time>
      </trkpt>
      <trkpt lat="44.62113" lon="3.15531">
        <ele>1277.73</ele>
        <time>2014-06-28T08:24:24Z</time>
      </trkpt>
      <trkpt lat="44.62113" lon="3.15556">
        <ele>1278.69</ele>
        <time>2014-06-28T08:24:38Z</time>
      </trkpt>
      <trkpt lat="44.62113" lon="3.15557">
        <ele>1278.69</ele>
        <time>2014-06-28T08:24:39Z</time>
      </trkpt>
      <trkpt lat="44.62113" lon="3.15575">
        <ele>1279.65</ele>
        <time>2014-06-28T08:24:49Z</time>
      </trkpt>
      <trkpt lat="44.62114" lon="3.15588">
        <ele>1279.65</ele>
        <time>2014-06-28T08:24:56Z</time>
      </trkpt>
      <trkpt lat="44.62113" lon="3.15591">
        <ele>1279.65</ele>
        <time>2014-06-28T08:24:58Z</time>
      </trkpt>
      <trkpt lat="44.62114" lon="3.15606">
        <ele>1279.65</ele>
        <time>2014-06-28T08:25:06Z</time>
      </trkpt>
      <trkpt lat="44.62113" lon="3.1563">
        <ele>1279.65</ele>
        <time>2014-06-28T08:25:20Z</time>
      </trkpt>
      <trkpt lat="44.62113" lon="3.15648">
        <ele>1280.61</ele>
        <time>2014-06-28T08:25:30Z</time>
      </trkpt>
      <trkpt lat="44.62113" lon="3.15655">
        <ele>1280.61</ele>
        <time>2014-06-28T08:25:34Z</time>
      </trkpt>
      <trkpt lat="44.62115" lon="3.15678">
        <ele>1282.06</ele>
        <time>2014-06-28T08:25:47Z</time>
      </trkpt>
      <trkpt lat="44.62115" lon="3.15684">
        <ele>1280.61</ele>
        <time>2014-06-28T08:25:50Z</time>
      </trkpt>
      <trkpt lat="44.62115" lon="3.15705">
        <ele>1282.06</ele>
        <time>2014-06-28T08:26:02Z</time>
      </trkpt>
      <trkpt lat="44.62115" lon="3.15717">
        <ele>1282.54</ele>
        <time>2014-06-28T08:26:09Z</time>
      </trkpt>
      <trkpt lat="44.62114" lon="3.15724">
        <ele>1283.02</ele>
        <time>2014-06-28T08:26:13Z</time>
      </trkpt>
      <trkpt lat="44.62115" lon="3.15749">
        <ele>1284.94</ele>
        <time>2014-06-28T08:26:27Z</time>
      </trkpt>
      <trkpt lat="44.62114" lon="3.15763">
        <ele>1283.5</ele>
        <time>2014-06-28T08:26:35Z</time>
      </trkpt>
      <trkpt lat="44.62114" lon="3.15767">
        <ele>1284.94</ele>
        <time>2014-06-28T08:26:37Z</time>
      </trkpt>
      <trkpt lat="44.62114" lon="3.15779">
        <ele>1283.98</ele>
        <time>2014-06-28T08:26:44Z</time>
      </trkpt>
      <trkpt lat="44.62115" lon="3.15785">
        <ele>1285.42</ele>
        <time>2014-06-28T08:26:47Z</time>
      </trkpt>
      <trkpt lat="44.62114" lon="3.15788">
        <ele>1285.9</ele>
        <time>2014-06-28T08:26:49Z</time>
      </trkpt>
      <trkpt lat="44.62118" lon="3.15809">
        <ele>1285.42</ele>
        <time>2014-06-28T08:27:01Z</time>
      </trkpt>
      <trkpt lat="44.62125" lon="3.15833">
        <ele>1285.42</ele>
        <time>2014-06-28T08:27:15Z</time>
      </trkpt>
      <trkpt lat="44.62127" lon="3.15841">
        <ele>1285.42</ele>
        <time>2014-06-28T08:27:20Z</time>
      </trkpt>
      <trkpt lat="44.6213" lon="3.15851">
        <ele>1285.42</ele>
        <time>2014-06-28T08:27:26Z</time>
      </trkpt>
      <trkpt lat="44.62132" lon="3.15861">
        <ele>1284.94</ele>
        <time>2014-06-28T08:27:40Z</time>
      </trkpt>
      <trkpt lat="44.62135" lon="3.15869">
        <ele>1284.94</ele>
        <time>2014-06-28T08:27:50Z</time>
      </trkpt>
      <trkpt lat="44.62138" lon="3.15877">
        <ele>1284.94</ele>
        <time>2014-06-28T08:27:55Z</time>
      </trkpt>
      <trkpt lat="44.62139" lon="3.15884">
        <ele>1284.94</ele>
        <time>2014-06-28T08:27:59Z</time>
      </trkpt>
      <trkpt lat="44.6214" lon="3.15888">
        <ele>1284.94</ele>
        <time>2014-06-28T08:28:02Z</time>
      </trkpt>
      <trkpt lat="44.62142" lon="3.15899">
        <ele>1284.94</ele>
        <time>2014-06-28T08:28:09Z</time>
      </trkpt>
      <trkpt lat="44.62143" lon="3.15901">
        <ele>1284.94</ele>
        <time>2014-06-28T08:28:13Z</time>
      </trkpt>
      <trkpt lat="44.62144" lon="3.15903">
        <ele>1284.94</ele>
        <time>2014-06-28T08:28:15Z</time>
      </trkpt>
      <trkpt lat="44.62145" lon="3.1591">
        <ele>1284.94</ele>
        <time>2014-06-28T08:28:20Z</time>
      </trkpt>
      <trkpt lat="44.62149" lon="3.15925">
        <ele>1284.46</ele>
        <time>2014-06-28T08:28:29Z</time>
      </trkpt>
      <trkpt lat="44.62151" lon="3.15938">
        <ele>1283.98</ele>
        <time>2014-06-28T08:28:37Z</time>
      </trkpt>
      <trkpt lat="44.62153" lon="3.15946">
        <ele>1283.98</ele>
        <time>2014-06-28T08:28:42Z</time>
      </trkpt>
      <trkpt lat="44.6216" lon="3.15979">
        <ele>1283.02</ele>
        <time>2014-06-28T08:29:01Z</time>
      </trkpt>
      <trkpt lat="44.62165" lon="3.16009">
        <ele>1282.06</ele>
        <time>2014-06-28T08:29:18Z</time>
      </trkpt>
      <trkpt lat="44.62166" lon="3.16015">
        <ele>1281.09</ele>
        <time>2014-06-28T08:29:30Z</time>
      </trkpt>
      <trkpt lat="44.62165" lon="3.16017">
        <ele>1281.09</ele>
        <time>2014-06-28T08:29:50Z</time>
      </trkpt>
      <trkpt lat="44.62167" lon="3.16024">
        <ele>1281.09</ele>
        <time>2014-06-28T08:30:04Z</time>
      </trkpt>
      <trkpt lat="44.6217" lon="3.1605">
        <ele>1280.61</ele>
        <time>2014-06-28T08:30:20Z</time>
      </trkpt>
      <trkpt lat="44.62171" lon="3.16059">
        <ele>1280.13</ele>
        <time>2014-06-28T08:30:26Z</time>
      </trkpt>
      <trkpt lat="44.62172" lon="3.16072">
        <ele>1280.13</ele>
        <time>2014-06-28T08:30:33Z</time>
      </trkpt>
      <trkpt lat="44.62176" lon="3.16102">
        <ele>1280.13</ele>
        <time>2014-06-28T08:30:50Z</time>
      </trkpt>
      <trkpt lat="44.62178" lon="3.16129">
        <ele>1280.61</ele>
        <time>2014-06-28T08:31:05Z</time>
      </trkpt>
      <trkpt lat="44.6218" lon="3.16154">
        <ele>1280.61</ele>
        <time>2014-06-28T08:31:19Z</time>
      </trkpt>
      <trkpt lat="44.62181" lon="3.16171">
        <ele>1281.09</ele>
        <time>2014-06-28T08:31:29Z</time>
      </trkpt>
      <trkpt lat="44.62181" lon="3.16176">
        <ele>1281.09</ele>
        <time>2014-06-28T08:31:32Z</time>
      </trkpt>
      <trkpt lat="44.62181" lon="3.16179">
        <ele>1278.69</ele>
        <time>2014-06-28T08:31:34Z</time>
      </trkpt>
      <trkpt lat="44.6218" lon="3.16184">
        <ele>1280.61</ele>
        <time>2014-06-28T08:31:37Z</time>
      </trkpt>
      <trkpt lat="44.62181" lon="3.1619">
        <ele>1279.17</ele>
        <time>2014-06-28T08:31:41Z</time>
      </trkpt>
      <trkpt lat="44.62182" lon="3.16216">
        <ele>1281.09</ele>
        <time>2014-06-28T08:31:56Z</time>
      </trkpt>
      <trkpt lat="44.62184" lon="3.16223">
        <ele>1279.65</ele>
        <time>2014-06-28T08:32:00Z</time>
      </trkpt>
      <trkpt lat="44.62186" lon="3.16258">
        <ele>1278.21</ele>
        <time>2014-06-28T08:32:19Z</time>
      </trkpt>
      <trkpt lat="44.62185" lon="3.16267">
        <ele>1277.73</ele>
        <time>2014-06-28T08:32:24Z</time>
      </trkpt>
      <trkpt lat="44.62186" lon="3.16276">
        <ele>1276.29</ele>
        <time>2014-06-28T08:32:29Z</time>
      </trkpt>
      <trkpt lat="44.62186" lon="3.16294">
        <ele>1275.33</ele>
        <time>2014-06-28T08:32:39Z</time>
      </trkpt>
      <trkpt lat="44.62186" lon="3.1633">
        <ele>1273.4</ele>
        <time>2014-06-28T08:32:58Z</time>
      </trkpt>
      <trkpt lat="44.62184" lon="3.16362">
        <ele>1271.96</ele>
        <time>2014-06-28T08:33:15Z</time>
      </trkpt>
      <trkpt lat="44.62183" lon="3.16395">
        <ele>1271.96</ele>
        <time>2014-06-28T08:33:32Z</time>
      </trkpt>
      <trkpt lat="44.62182" lon="3.16422">
        <ele>1272.92</ele>
        <time>2014-06-28T08:33:46Z</time>
      </trkpt>
      <trkpt lat="44.62182" lon="3.16429">
        <ele>1271.96</ele>
        <time>2014-06-28T08:33:50Z</time>
      </trkpt>
      <trkpt lat="44.62183" lon="3.16434">
        <ele>1271.96</ele>
        <time>2014-06-28T08:33:53Z</time>
      </trkpt>
      <trkpt lat="44.62182" lon="3.16438">
        <ele>1273.4</ele>
        <time>2014-06-28T08:33:55Z</time>
      </trkpt>
      <trkpt lat="44.62182" lon="3.16446">
        <ele>1273.4</ele>
        <time>2014-06-28T08:34:00Z</time>
      </trkpt>
      <trkpt lat="44.62181" lon="3.16463">
        <ele>1273.4</ele>
        <time>2014-06-28T08:34:09Z</time>
      </trkpt>
      <trkpt lat="44.62182" lon="3.16497">
        <ele>1272.44</ele>
        <time>2014-06-28T08:34:27Z</time>
      </trkpt>
      <trkpt lat="44.62181" lon="3.16524">
        <ele>1271.96</ele>
        <time>2014-06-28T08:34:41Z</time>
      </trkpt>
      <trkpt lat="44.62181" lon="3.16551">
        <ele>1271</ele>
        <time>2014-06-28T08:34:56Z</time>
      </trkpt>
      <trkpt lat="44.62181" lon="3.16576">
        <ele>1270.52</ele>
        <time>2014-06-28T08:35:10Z</time>
      </trkpt>
      <trkpt lat="44.6218" lon="3.16606">
        <ele>1269.08</ele>
        <time>2014-06-28T08:35:26Z</time>
      </trkpt>
      <trkpt lat="44.6218" lon="3.16614">
        <ele>1270.52</ele>
        <time>2014-06-28T08:35:30Z</time>
      </trkpt>
      <trkpt lat="44.6218" lon="3.16621">
        <ele>1269.08</ele>
        <time>2014-06-28T08:35:34Z</time>
      </trkpt>
      <trkpt lat="44.6218" lon="3.16654">
        <ele>1267.16</ele>
        <time>2014-06-28T08:35:51Z</time>
      </trkpt>
      <trkpt lat="44.62178" lon="3.16685">
        <ele>1265.23</ele>
        <time>2014-06-28T08:36:08Z</time>
      </trkpt>
      <trkpt lat="44.62177" lon="3.16715">
        <ele>1263.79</ele>
        <time>2014-06-28T08:36:24Z</time>
      </trkpt>
      <trkpt lat="44.62174" lon="3.16748">
        <ele>1262.35</ele>
        <time>2014-06-28T08:36:41Z</time>
      </trkpt>
      <trkpt lat="44.62168" lon="3.16786">
        <ele>1261.39</ele>
        <time>2014-06-28T08:37:01Z</time>
      </trkpt>
      <trkpt lat="44.62164" lon="3.16817">
        <ele>1259.94</ele>
        <time>2014-06-28T08:37:18Z</time>
      </trkpt>
      <trkpt lat="44.62159" lon="3.16844">
        <ele>1259.94</ele>
        <time>2014-06-28T08:37:32Z</time>
      </trkpt>
      <trkpt lat="44.62155" lon="3.16865">
        <ele>1258.98</ele>
        <time>2014-06-28T08:37:43Z</time>
      </trkpt>
      <trkpt lat="44.62148" lon="3.169">
        <ele>1258.5</ele>
        <time>2014-06-28T08:38:02Z</time>
      </trkpt>
      <trkpt lat="44.62143" lon="3.16925">
        <ele>1258.02</ele>
        <time>2014-06-28T08:38:16Z</time>
      </trkpt>
      <trkpt lat="44.6214" lon="3.16931">
        <ele>1257.54</ele>
        <time>2014-06-28T08:38:20Z</time>
      </trkpt>
      <trkpt lat="44.62136" lon="3.16963">
        <ele>1256.1</ele>
        <time>2014-06-28T08:38:37Z</time>
      </trkpt>
      <trkpt lat="44.62127" lon="3.1699">
        <ele>1255.62</ele>
        <time>2014-06-28T08:38:52Z</time>
      </trkpt>
      <trkpt lat="44.62123" lon="3.16996">
        <ele>1255.62</ele>
        <time>2014-06-28T08:38:57Z</time>
      </trkpt>
      <trkpt lat="44.6212" lon="3.16998">
        <ele>1255.14</ele>
        <time>2014-06-28T08:38:59Z</time>
      </trkpt>
      <trkpt lat="44.62115" lon="3.17009">
        <ele>1254.18</ele>
        <time>2014-06-28T08:39:07Z</time>
      </trkpt>
      <trkpt lat="44.62115" lon="3.17013">
        <ele>1253.7</ele>
        <time>2014-06-28T08:39:09Z</time>
      </trkpt>
      <trkpt lat="44.62114" lon="3.1702">
        <ele>1252.74</ele>
        <time>2014-06-28T08:39:14Z</time>
      </trkpt>
      <trkpt lat="44.62113" lon="3.1703">
        <ele>1251.29</ele>
        <time>2014-06-28T08:39:20Z</time>
      </trkpt>
      <trkpt lat="44.62112" lon="3.17036">
        <ele>1250.33</ele>
        <time>2014-06-28T08:39:24Z</time>
      </trkpt>
      <trkpt lat="44.62109" lon="3.17061">
        <ele>1246.97</ele>
        <time>2014-06-28T08:39:38Z</time>
      </trkpt>
      <trkpt lat="44.62108" lon="3.17086">
        <ele>1245.04</ele>
        <time>2014-06-28T08:39:52Z</time>
      </trkpt>
      <trkpt lat="44.62106" lon="3.17111">
        <ele>1242.64</ele>
        <time>2014-06-28T08:40:06Z</time>
      </trkpt>
      <trkpt lat="44.62103" lon="3.17141">
        <ele>1240.72</ele>
        <time>2014-06-28T08:40:22Z</time>
      </trkpt>
      <trkpt lat="44.62104" lon="3.17171">
        <ele>1239.28</ele>
        <time>2014-06-28T08:40:39Z</time>
      </trkpt>
      <trkpt lat="44.62104" lon="3.17197">
        <ele>1238.8</ele>
        <time>2014-06-28T08:40:53Z</time>
      </trkpt>
      <trkpt lat="44.62093" lon="3.17221">
        <ele>1237.83</ele>
        <time>2014-06-28T08:41:08Z</time>
      </trkpt>
      <trkpt lat="44.62083" lon="3.17248">
        <ele>1237.35</ele>
        <time>2014-06-28T08:41:24Z</time>
      </trkpt>
      <trkpt lat="44.62073" lon="3.17273">
        <ele>1237.35</ele>
        <time>2014-06-28T08:41:39Z</time>
      </trkpt>
      <trkpt lat="44.6206" lon="3.17292">
        <ele>1237.83</ele>
        <time>2014-06-28T08:41:53Z</time>
      </trkpt>
      <trkpt lat="44.62046" lon="3.17313">
        <ele>1237.83</ele>
        <time>2014-06-28T08:42:09Z</time>
      </trkpt>
      <trkpt lat="44.6203" lon="3.17332">
        <ele>1236.39</ele>
        <time>2014-06-28T08:42:25Z</time>
      </trkpt>
      <trkpt lat="44.62029" lon="3.17333">
        <ele>1236.39</ele>
        <time>2014-06-28T08:42:26Z</time>
      </trkpt>
      <trkpt lat="44.62014" lon="3.1735">
        <ele>1235.91</ele>
        <time>2014-06-28T08:42:41Z</time>
      </trkpt>
      <trkpt lat="44.62" lon="3.17369">
        <ele>1235.91</ele>
        <time>2014-06-28T08:42:56Z</time>
      </trkpt>
      <trkpt lat="44.61994" lon="3.17384">
        <ele>1235.91</ele>
        <time>2014-06-28T08:43:06Z</time>
      </trkpt>
      <trkpt lat="44.61992" lon="3.17387">
        <ele>1235.91</ele>
        <time>2014-06-28T08:43:08Z</time>
      </trkpt>
      <trkpt lat="44.6199" lon="3.17392">
        <ele>1237.35</ele>
        <time>2014-06-28T08:43:11Z</time>
      </trkpt>
      <trkpt lat="44.61987" lon="3.17398">
        <ele>1237.35</ele>
        <time>2014-06-28T08:43:15Z</time>
      </trkpt>
      <trkpt lat="44.61982" lon="3.17413">
        <ele>1237.35</ele>
        <time>2014-06-28T08:43:23Z</time>
      </trkpt>
      <trkpt lat="44.61981" lon="3.17418">
        <ele>1237.35</ele>
        <time>2014-06-28T08:43:26Z</time>
      </trkpt>
      <trkpt lat="44.6198" lon="3.17424">
        <ele>1237.35</ele>
        <time>2014-06-28T08:43:30Z</time>
      </trkpt>
      <trkpt lat="44.61976" lon="3.17438">
        <ele>1237.83</ele>
        <time>2014-06-28T08:43:38Z</time>
      </trkpt>
      <trkpt lat="44.61975" lon="3.17447">
        <ele>1237.83</ele>
        <time>2014-06-28T08:43:43Z</time>
      </trkpt>
      <trkpt lat="44.6197" lon="3.17476">
        <ele>1237.83</ele>
        <time>2014-06-28T08:43:59Z</time>
      </trkpt>
      <trkpt lat="44.61969" lon="3.1749">
        <ele>1237.83</ele>
        <time>2014-06-28T08:44:07Z</time>
      </trkpt>
      <trkpt lat="44.61973" lon="3.17519">
        <ele>1237.83</ele>
        <time>2014-06-28T08:44:23Z</time>
      </trkpt>
      <trkpt lat="44.61973" lon="3.17548">
        <ele>1235.43</ele>
        <time>2014-06-28T08:44:38Z</time>
      </trkpt>
      <trkpt lat="44.61973" lon="3.17551">
        <ele>1234.95</ele>
        <time>2014-06-28T08:44:40Z</time>
      </trkpt>
      <trkpt lat="44.61972" lon="3.17563">
        <ele>1234.95</ele>
        <time>2014-06-28T08:44:47Z</time>
      </trkpt>
      <trkpt lat="44.61974" lon="3.17589">
        <ele>1232.55</ele>
        <time>2014-06-28T08:45:03Z</time>
      </trkpt>
      <trkpt lat="44.61973" lon="3.17611">
        <ele>1230.62</ele>
        <time>2014-06-28T08:45:15Z</time>
      </trkpt>
      <trkpt lat="44.61975" lon="3.17625">
        <ele>1230.14</ele>
        <time>2014-06-28T08:45:24Z</time>
      </trkpt>
      <trkpt lat="44.61977" lon="3.17647">
        <ele>1227.74</ele>
        <time>2014-06-28T08:45:39Z</time>
      </trkpt>
      <trkpt lat="44.61982" lon="3.17674">
        <ele>1225.82</ele>
        <time>2014-06-28T08:45:55Z</time>
      </trkpt>
      <trkpt lat="44.61985" lon="3.17686">
        <ele>1225.34</ele>
        <time>2014-06-28T08:46:01Z</time>
      </trkpt>
      <trkpt lat="44.6199" lon="3.17706">
        <ele>1224.86</ele>
        <time>2014-06-28T08:46:11Z</time>
      </trkpt>
      <trkpt lat="44.61996" lon="3.1773">
        <ele>1224.38</ele>
        <time>2014-06-28T08:46:26Z</time>
      </trkpt>
      <trkpt lat="44.61998" lon="3.1774">
        <ele>1224.38</ele>
        <time>2014-06-28T08:46:32Z</time>
      </trkpt>
      <trkpt lat="44.62002" lon="3.17753">
        <ele>1222.93</ele>
        <time>2014-06-28T08:46:40Z</time>
      </trkpt>
      <trkpt lat="44.62002" lon="3.1778">
        <ele>1221.97</ele>
        <time>2014-06-28T08:46:55Z</time>
      </trkpt>
      <trkpt lat="44.62002" lon="3.17794">
        <ele>1221.01</ele>
        <time>2014-06-28T08:47:05Z</time>
      </trkpt>
      <trkpt lat="44.61993" lon="3.17786">
        <ele>1219.09</ele>
        <time>2014-06-28T08:47:15Z</time>
      </trkpt>
      <trkpt lat="44.61983" lon="3.17785">
        <ele>1217.65</ele>
        <time>2014-06-28T08:47:23Z</time>
      </trkpt>
      <trkpt lat="44.61974" lon="3.1778">
        <ele>1217.17</ele>
        <time>2014-06-28T08:47:36Z</time>
      </trkpt>
      <trkpt lat="44.61956" lon="3.17777">
        <ele>1214.28</ele>
        <time>2014-06-28T08:47:52Z</time>
      </trkpt>
      <trkpt lat="44.6194" lon="3.17776">
        <ele>1211.4</ele>
        <time>2014-06-28T08:48:05Z</time>
      </trkpt>
      <trkpt lat="44.61922" lon="3.17781">
        <ele>1209.48</ele>
        <time>2014-06-28T08:48:19Z</time>
      </trkpt>
      <trkpt lat="44.61924" lon="3.1778">
        <ele>1209.96</ele>
        <time>2014-06-28T08:48:30Z</time>
      </trkpt>
      <trkpt lat="44.61921" lon="3.17779">
        <ele>1209.96</ele>
        <time>2014-06-28T08:48:43Z</time>
      </trkpt>
      <trkpt lat="44.61915" lon="3.17776">
        <ele>1209.48</ele>
        <time>2014-06-28T08:49:02Z</time>
      </trkpt>
      <trkpt lat="44.61908" lon="3.17773">
        <ele>1209</ele>
        <time>2014-06-28T08:49:08Z</time>
      </trkpt>
      <trkpt lat="44.61888" lon="3.1777">
        <ele>1209</ele>
        <time>2014-06-28T08:49:26Z</time>
      </trkpt>
      <trkpt lat="44.61868" lon="3.17781">
        <ele>1209</ele>
        <time>2014-06-28T08:49:43Z</time>
      </trkpt>
      <trkpt lat="44.61864" lon="3.17784">
        <ele>1209</ele>
        <time>2014-06-28T08:49:47Z</time>
      </trkpt>
      <trkpt lat="44.61839" lon="3.17786">
        <ele>1209</ele>
        <time>2014-06-28T08:50:06Z</time>
      </trkpt>
      <trkpt lat="44.6183" lon="3.17782">
        <ele>1210.44</ele>
        <time>2014-06-28T08:50:13Z</time>
      </trkpt>
      <trkpt lat="44.61825" lon="3.17777">
        <ele>1210.44</ele>
        <time>2014-06-28T08:50:19Z</time>
      </trkpt>
      <trkpt lat="44.61819" lon="3.17768">
        <ele>1211.4</ele>
        <time>2014-06-28T08:50:27Z</time>
      </trkpt>
      <trkpt lat="44.61816" lon="3.1776">
        <ele>1211.88</ele>
        <time>2014-06-28T08:50:33Z</time>
      </trkpt>
      <trkpt lat="44.61808" lon="3.17742">
        <ele>1213.32</ele>
        <time>2014-06-28T08:50:47Z</time>
      </trkpt>
      <trkpt lat="44.61801" lon="3.17736">
        <ele>1214.28</ele>
        <time>2014-06-28T08:50:53Z</time>
      </trkpt>
      <trkpt lat="44.61799" lon="3.17736">
        <ele>1214.76</ele>
        <time>2014-06-28T08:50:55Z</time>
      </trkpt>
      <trkpt lat="44.61782" lon="3.17737">
        <ele>1215.72</ele>
        <time>2014-06-28T08:51:08Z</time>
      </trkpt>
      <trkpt lat="44.61768" lon="3.17741">
        <ele>1217.65</ele>
        <time>2014-06-28T08:51:19Z</time>
      </trkpt>
      <trkpt lat="44.61762" lon="3.17743">
        <ele>1218.13</ele>
        <time>2014-06-28T08:51:24Z</time>
      </trkpt>
      <trkpt lat="44.61757" lon="3.17743">
        <ele>1219.09</ele>
        <time>2014-06-28T08:51:37Z</time>
      </trkpt>
      <trkpt lat="44.61752" lon="3.17744">
        <ele>1219.57</ele>
        <time>2014-06-28T08:51:42Z</time>
      </trkpt>
      <trkpt lat="44.6175" lon="3.17745">
        <ele>1220.05</ele>
        <time>2014-06-28T08:51:44Z</time>
      </trkpt>
      <trkpt lat="44.61736" lon="3.17749">
        <ele>1221.97</ele>
        <time>2014-06-28T08:51:57Z</time>
      </trkpt>
      <trkpt lat="44.61724" lon="3.17754">
        <ele>1222.45</ele>
        <time>2014-06-28T08:52:09Z</time>
      </trkpt>
      <trkpt lat="44.61709" lon="3.17759">
        <ele>1222.93</ele>
        <time>2014-06-28T08:52:22Z</time>
      </trkpt>
      <trkpt lat="44.61706" lon="3.1776">
        <ele>1222.93</ele>
        <time>2014-06-28T08:52:25Z</time>
      </trkpt>
      <trkpt lat="44.61692" lon="3.17763">
        <ele>1222.93</ele>
        <time>2014-06-28T08:52:35Z</time>
      </trkpt>
      <trkpt lat="44.61687" lon="3.17763">
        <ele>1222.93</ele>
        <time>2014-06-28T08:52:39Z</time>
      </trkpt>
      <trkpt lat="44.6168" lon="3.17762">
        <ele>1222.93</ele>
        <time>2014-06-28T08:52:45Z</time>
      </trkpt>
      <trkpt lat="44.61675" lon="3.17761">
        <ele>1223.42</ele>
        <time>2014-06-28T08:52:49Z</time>
      </trkpt>
      <trkpt lat="44.61666" lon="3.17754">
        <ele>1223.9</ele>
        <time>2014-06-28T08:52:58Z</time>
      </trkpt>
      <trkpt lat="44.61661" lon="3.17748">
        <ele>1224.38</ele>
        <time>2014-06-28T08:53:04Z</time>
      </trkpt>
      <trkpt lat="44.61658" lon="3.17744">
        <ele>1224.38</ele>
        <time>2014-06-28T08:53:08Z</time>
      </trkpt>
      <trkpt lat="44.61646" lon="3.17732">
        <ele>1225.34</ele>
        <time>2014-06-28T08:53:20Z</time>
      </trkpt>
      <trkpt lat="44.61644" lon="3.17731">
        <ele>1225.34</ele>
        <time>2014-06-28T08:53:22Z</time>
      </trkpt>
      <trkpt lat="44.6164" lon="3.17728">
        <ele>1225.82</ele>
        <time>2014-06-28T08:53:26Z</time>
      </trkpt>
      <trkpt lat="44.61631" lon="3.17723">
        <ele>1226.3</ele>
        <time>2014-06-28T08:53:34Z</time>
      </trkpt>
      <trkpt lat="44.61624" lon="3.17718">
        <ele>1226.78</ele>
        <time>2014-06-28T08:53:40Z</time>
      </trkpt>
      <trkpt lat="44.61621" lon="3.17716">
        <ele>1227.26</ele>
        <time>2014-06-28T08:53:43Z</time>
      </trkpt>
      <trkpt lat="44.61611" lon="3.17711">
        <ele>1228.7</ele>
        <time>2014-06-28T08:53:53Z</time>
      </trkpt>
      <trkpt lat="44.61598" lon="3.17708">
        <ele>1230.14</ele>
        <time>2014-06-28T08:54:07Z</time>
      </trkpt>
      <trkpt lat="44.61582" lon="3.17703">
        <ele>1232.55</ele>
        <time>2014-06-28T08:54:22Z</time>
      </trkpt>
      <trkpt lat="44.61571" lon="3.17694">
        <ele>1234.95</ele>
        <time>2014-06-28T08:54:33Z</time>
      </trkpt>
      <trkpt lat="44.61557" lon="3.17678">
        <ele>1236.87</ele>
        <time>2014-06-28T08:54:48Z</time>
      </trkpt>
      <trkpt lat="44.61549" lon="3.17667">
        <ele>1239.28</ele>
        <time>2014-06-28T08:55:00Z</time>
      </trkpt>
      <trkpt lat="44.6154" lon="3.17665">
        <ele>1240.24</ele>
        <time>2014-06-28T08:55:09Z</time>
      </trkpt>
      <trkpt lat="44.61538" lon="3.17666">
        <ele>1240.72</ele>
        <time>2014-06-28T08:55:11Z</time>
      </trkpt>
      <trkpt lat="44.61533" lon="3.17664">
        <ele>1241.2</ele>
        <time>2014-06-28T08:55:16Z</time>
      </trkpt>
      <trkpt lat="44.61531" lon="3.17662">
        <ele>1241.2</ele>
        <time>2014-06-28T08:55:18Z</time>
      </trkpt>
      <trkpt lat="44.61528" lon="3.1766">
        <ele>1241.68</ele>
        <time>2014-06-28T08:55:20Z</time>
      </trkpt>
      <trkpt lat="44.61527" lon="3.17658">
        <ele>1241.68</ele>
        <time>2014-06-28T08:55:22Z</time>
      </trkpt>
      <trkpt lat="44.61513" lon="3.17646">
        <ele>1244.08</ele>
        <time>2014-06-28T08:55:38Z</time>
      </trkpt>
      <trkpt lat="44.61499" lon="3.17638">
        <ele>1246.01</ele>
        <time>2014-06-28T08:55:52Z</time>
      </trkpt>
      <trkpt lat="44.61482" lon="3.17629">
        <ele>1247.93</ele>
        <time>2014-06-28T08:56:09Z</time>
      </trkpt>
      <trkpt lat="44.61476" lon="3.17626">
        <ele>1248.41</ele>
        <time>2014-06-28T08:56:16Z</time>
      </trkpt>
      <trkpt lat="44.61463" lon="3.17619">
        <ele>1250.33</ele>
        <time>2014-06-28T08:56:31Z</time>
      </trkpt>
      <trkpt lat="44.61452" lon="3.17608">
        <ele>1251.29</ele>
        <time>2014-06-28T08:56:45Z</time>
      </trkpt>
      <trkpt lat="44.61447" lon="3.17599">
        <ele>1251.77</ele>
        <time>2014-06-28T08:56:55Z</time>
      </trkpt>
      <trkpt lat="44.61442" lon="3.17593">
        <ele>1251.77</ele>
        <time>2014-06-28T08:57:05Z</time>
      </trkpt>
      <trkpt lat="44.61438" lon="3.17587">
        <ele>1252.74</ele>
        <time>2014-06-28T08:57:10Z</time>
      </trkpt>
      <trkpt lat="44.6143" lon="3.17572">
        <ele>1253.7</ele>
        <time>2014-06-28T08:57:23Z</time>
      </trkpt>
      <trkpt lat="44.61428" lon="3.17565">
        <ele>1253.7</ele>
        <time>2014-06-28T08:57:28Z</time>
      </trkpt>
      <trkpt lat="44.61426" lon="3.17561">
        <ele>1253.7</ele>
        <time>2014-06-28T08:57:31Z</time>
      </trkpt>
      <trkpt lat="44.61421" lon="3.17552">
        <ele>1255.14</ele>
        <time>2014-06-28T08:57:38Z</time>
      </trkpt>
      <trkpt lat="44.61419" lon="3.17546">
        <ele>1255.62</ele>
        <time>2014-06-28T08:57:42Z</time>
      </trkpt>
      <trkpt lat="44.61416" lon="3.17538">
        <ele>1255.62</ele>
        <time>2014-06-28T08:57:47Z</time>
      </trkpt>
      <trkpt lat="44.61412" lon="3.1753">
        <ele>1255.62</ele>
        <time>2014-06-28T08:57:53Z</time>
      </trkpt>
      <trkpt lat="44.61411" lon="3.17525">
        <ele>1256.58</ele>
        <time>2014-06-28T08:57:56Z</time>
      </trkpt>
      <trkpt lat="44.61408" lon="3.17514">
        <ele>1257.06</ele>
        <time>2014-06-28T08:58:03Z</time>
      </trkpt>
      <trkpt lat="44.61406" lon="3.17504">
        <ele>1258.02</ele>
        <time>2014-06-28T08:58:09Z</time>
      </trkpt>
      <trkpt lat="44.61406" lon="3.17498">
        <ele>1258.02</ele>
        <time>2014-06-28T08:58:14Z</time>
      </trkpt>
      <trkpt lat="44.61405" lon="3.17491">
        <ele>1259.46</ele>
        <time>2014-06-28T08:58:19Z</time>
      </trkpt>
      <trkpt lat="44.61402" lon="3.17472">
        <ele>1259.94</ele>
        <time>2014-06-28T08:58:32Z</time>
      </trkpt>
      <trkpt lat="44.61401" lon="3.1747">
        <ele>1260.91</ele>
        <time>2014-06-28T08:58:35Z</time>
      </trkpt>
      <trkpt lat="44.61399" lon="3.17469">
        <ele>1260.91</ele>
        <time>2014-06-28T08:58:37Z</time>
      </trkpt>
      <trkpt lat="44.61394" lon="3.17469">
        <ele>1261.39</ele>
        <time>2014-06-28T08:58:42Z</time>
      </trkpt>
      <trkpt lat="44.61392" lon="3.17471">
        <ele>1261.87</ele>
        <time>2014-06-28T08:58:44Z</time>
      </trkpt>
      <trkpt lat="44.6138" lon="3.1748">
        <ele>1263.31</ele>
        <time>2014-06-28T08:58:57Z</time>
      </trkpt>
      <trkpt lat="44.61368" lon="3.17486">
        <ele>1264.75</ele>
        <time>2014-06-28T08:59:09Z</time>
      </trkpt>
      <trkpt lat="44.61357" lon="3.17492">
        <ele>1266.19</ele>
        <time>2014-06-28T08:59:20Z</time>
      </trkpt>
      <trkpt lat="44.61356" lon="3.17492">
        <ele>1266.19</ele>
        <time>2014-06-28T08:59:21Z</time>
      </trkpt>
      <trkpt lat="44.61343" lon="3.17498">
        <ele>1266.19</ele>
        <time>2014-06-28T08:59:34Z</time>
      </trkpt>
      <trkpt lat="44.61339" lon="3.17501">
        <ele>1266.67</ele>
        <time>2014-06-28T08:59:38Z</time>
      </trkpt>
      <trkpt lat="44.61336" lon="3.17504">
        <ele>1266.67</ele>
        <time>2014-06-28T08:59:41Z</time>
      </trkpt>
      <trkpt lat="44.61329" lon="3.1751">
        <ele>1267.64</ele>
        <time>2014-06-28T08:59:53Z</time>
      </trkpt>
      <trkpt lat="44.61316" lon="3.17514">
        <ele>1267.64</ele>
        <time>2014-06-28T09:00:05Z</time>
      </trkpt>
      <trkpt lat="44.61295" lon="3.17515">
        <ele>1268.6</ele>
        <time>2014-06-28T09:00:23Z</time>
      </trkpt>
      <trkpt lat="44.61291" lon="3.17516">
        <ele>1268.6</ele>
        <time>2014-06-28T09:00:26Z</time>
      </trkpt>
      <trkpt lat="44.61287" lon="3.17517">
        <ele>1268.6</ele>
        <time>2014-06-28T09:00:29Z</time>
      </trkpt>
      <trkpt lat="44.61282" lon="3.1752">
        <ele>1267.16</ele>
        <time>2014-06-28T09:00:33Z</time>
      </trkpt>
      <trkpt lat="44.61278" lon="3.17522">
        <ele>1267.16</ele>
        <time>2014-06-28T09:00:36Z</time>
      </trkpt>
      <trkpt lat="44.61275" lon="3.17526">
        <ele>1268.12</ele>
        <time>2014-06-28T09:00:40Z</time>
      </trkpt>
      <trkpt lat="44.61267" lon="3.17532">
        <ele>1267.16</ele>
        <time>2014-06-28T09:00:47Z</time>
      </trkpt>
      <trkpt lat="44.61264" lon="3.17537">
        <ele>1269.08</ele>
        <time>2014-06-28T09:00:51Z</time>
      </trkpt>
      <trkpt lat="44.61262" lon="3.17539">
        <ele>1269.08</ele>
        <time>2014-06-28T09:00:53Z</time>
      </trkpt>
      <trkpt lat="44.61255" lon="3.17549">
        <ele>1269.08</ele>
        <time>2014-06-28T09:01:04Z</time>
      </trkpt>
      <trkpt lat="44.61255" lon="3.17551">
        <ele>1268.12</ele>
        <time>2014-06-28T09:01:13Z</time>
      </trkpt>
      <trkpt lat="44.61254" lon="3.17551">
        <ele>1268.12</ele>
        <time>2014-06-28T09:01:14Z</time>
      </trkpt>
      <trkpt lat="44.61254" lon="3.17551">
        <ele>1268.6</ele>
        <time>2014-06-28T09:01:19Z</time>
      </trkpt>
      <trkpt lat="44.61251" lon="3.17548">
        <ele>1268.6</ele>
        <time>2014-06-28T09:01:49Z</time>
      </trkpt>
      <trkpt lat="44.61252" lon="3.17549">
        <ele>1268.6</ele>
        <time>2014-06-28T09:02:20Z</time>
      </trkpt>
      <trkpt lat="44.61251" lon="3.17545">
        <ele>1267.64</ele>
        <time>2014-06-28T09:02:49Z</time>
      </trkpt>
      <trkpt lat="44.61251" lon="3.17545">
        <ele>1267.64</ele>
        <time>2014-06-28T09:03:28Z</time>
      </trkpt>
      <trkpt lat="44.61252" lon="3.17547">
        <ele>1268.12</ele>
        <time>2014-06-28T09:04:09Z</time>
      </trkpt>
      <trkpt lat="44.61255" lon="3.1755">
        <ele>1268.12</ele>
        <time>2014-06-28T09:04:44Z</time>
      </trkpt>
      <trkpt lat="44.61253" lon="3.17548">
        <ele>1268.12</ele>
        <time>2014-06-28T09:05:18Z</time>
      </trkpt>
      <trkpt lat="44.61254" lon="3.17547">
        <ele>1268.12</ele>
        <time>2014-06-28T09:05:43Z</time>
      </trkpt>
      <trkpt lat="44.61253" lon="3.17547">
        <ele>1268.12</ele>
        <time>2014-06-28T09:06:14Z</time>
      </trkpt>
      <trkpt lat="44.61254" lon="3.17548">
        <ele>1269.56</ele>
        <time>2014-06-28T09:06:47Z</time>
      </trkpt>
      <trkpt lat="44.61254" lon="3.17547">
        <ele>1269.56</ele>
        <time>2014-06-28T09:07:16Z</time>
      </trkpt>
      <trkpt lat="44.61253" lon="3.17545">
        <ele>1270.04</ele>
        <time>2014-06-28T09:07:43Z</time>
      </trkpt>
      <trkpt lat="44.61253" lon="3.17543">
        <ele>1270.04</ele>
        <time>2014-06-28T09:08:09Z</time>
      </trkpt>
      <trkpt lat="44.61254" lon="3.17545">
        <ele>1270.52</ele>
        <time>2014-06-28T09:08:40Z</time>
      </trkpt>
      <trkpt lat="44.61253" lon="3.17549">
        <ele>1270.04</ele>
        <time>2014-06-28T09:08:52Z</time>
      </trkpt>
      <trkpt lat="44.61253" lon="3.17549">
        <ele>1271</ele>
        <time>2014-06-28T09:08:58Z</time>
      </trkpt>
      <trkpt lat="44.61253" lon="3.17548">
        <ele>1270.04</ele>
        <time>2014-06-28T09:09:23Z</time>
      </trkpt>
      <trkpt lat="44.61252" lon="3.17546">
        <ele>1270.04</ele>
        <time>2014-06-28T09:09:57Z</time>
      </trkpt>
      <trkpt lat="44.61251" lon="3.17545">
        <ele>1270.04</ele>
        <time>2014-06-28T09:10:22Z</time>
      </trkpt>
      <trkpt lat="44.61251" lon="3.17545">
        <ele>1270.04</ele>
        <time>2014-06-28T09:10:53Z</time>
      </trkpt>
      <trkpt lat="44.61252" lon="3.17547">
        <ele>1271.48</ele>
        <time>2014-06-28T09:11:09Z</time>
      </trkpt>
      <trkpt lat="44.6125" lon="3.17551">
        <ele>1271.48</ele>
        <time>2014-06-28T09:11:18Z</time>
      </trkpt>
      <trkpt lat="44.61251" lon="3.17559">
        <ele>1270.52</ele>
        <time>2014-06-28T09:11:29Z</time>
      </trkpt>
      <trkpt lat="44.61245" lon="3.17571">
        <ele>1270.04</ele>
        <time>2014-06-28T09:11:42Z</time>
      </trkpt>
      <trkpt lat="44.61225" lon="3.17578">
        <ele>1269.08</ele>
        <time>2014-06-28T09:11:59Z</time>
      </trkpt>
      <trkpt lat="44.61215" lon="3.17577">
        <ele>1268.6</ele>
        <time>2014-06-28T09:12:07Z</time>
      </trkpt>
      <trkpt lat="44.61197" lon="3.17572">
        <ele>1268.12</ele>
        <time>2014-06-28T09:12:23Z</time>
      </trkpt>
      <trkpt lat="44.61193" lon="3.17571">
        <ele>1269.56</ele>
        <time>2014-06-28T09:12:26Z</time>
      </trkpt>
      <trkpt lat="44.61185" lon="3.17574">
        <ele>1269.08</ele>
        <time>2014-06-28T09:12:34Z</time>
      </trkpt>
      <trkpt lat="44.61184" lon="3.17575">
        <ele>1269.08</ele>
        <time>2014-06-28T09:12:35Z</time>
      </trkpt>
      <trkpt lat="44.61171" lon="3.17585">
        <ele>1270.52</ele>
        <time>2014-06-28T09:12:47Z</time>
      </trkpt>
      <trkpt lat="44.61157" lon="3.17591">
        <ele>1270.52</ele>
        <time>2014-06-28T09:13:00Z</time>
      </trkpt>
      <trkpt lat="44.61141" lon="3.17603">
        <ele>1268.6</ele>
        <time>2014-06-28T09:13:15Z</time>
      </trkpt>
      <trkpt lat="44.6112" lon="3.17609">
        <ele>1266.67</ele>
        <time>2014-06-28T09:13:32Z</time>
      </trkpt>
      <trkpt lat="44.61105" lon="3.17625">
        <ele>1264.27</ele>
        <time>2014-06-28T09:13:49Z</time>
      </trkpt>
      <trkpt lat="44.61097" lon="3.17632">
        <ele>1262.35</ele>
        <time>2014-06-28T09:13:57Z</time>
      </trkpt>
      <trkpt lat="44.61088" lon="3.17652">
        <ele>1258.5</ele>
        <time>2014-06-28T09:14:11Z</time>
      </trkpt>
      <trkpt lat="44.61084" lon="3.17655">
        <ele>1257.54</ele>
        <time>2014-06-28T09:14:24Z</time>
      </trkpt>
      <trkpt lat="44.61084" lon="3.17657">
        <ele>1257.06</ele>
        <time>2014-06-28T09:14:28Z</time>
      </trkpt>
      <trkpt lat="44.61084" lon="3.1767">
        <ele>1256.1</ele>
        <time>2014-06-28T09:14:40Z</time>
      </trkpt>
      <trkpt lat="44.61086" lon="3.17684">
        <ele>1255.62</ele>
        <time>2014-06-28T09:14:49Z</time>
      </trkpt>
      <trkpt lat="44.61087" lon="3.17692">
        <ele>1254.18</ele>
        <time>2014-06-28T09:14:54Z</time>
      </trkpt>
      <trkpt lat="44.61088" lon="3.177">
        <ele>1252.74</ele>
        <time>2014-06-28T09:15:04Z</time>
      </trkpt>
      <trkpt lat="44.61088" lon="3.17705">
        <ele>1252.25</ele>
        <time>2014-06-28T09:15:07Z</time>
      </trkpt>
      <trkpt lat="44.6109" lon="3.17725">
        <ele>1250.33</ele>
        <time>2014-06-28T09:15:22Z</time>
      </trkpt>
      <trkpt lat="44.61093" lon="3.17728">
        <ele>1250.33</ele>
        <time>2014-06-28T09:15:25Z</time>
      </trkpt>
      <trkpt lat="44.61095" lon="3.17736">
        <ele>1250.33</ele>
        <time>2014-06-28T09:15:36Z</time>
      </trkpt>
      <trkpt lat="44.61097" lon="3.17743">
        <ele>1249.85</ele>
        <time>2014-06-28T09:15:41Z</time>
      </trkpt>
      <trkpt lat="44.61097" lon="3.17755">
        <ele>1248.89</ele>
        <time>2014-06-28T09:15:58Z</time>
      </trkpt>
      <trkpt lat="44.61097" lon="3.17756">
        <ele>1248.89</ele>
        <time>2014-06-28T09:15:59Z</time>
      </trkpt>
      <trkpt lat="44.61092" lon="3.1778">
        <ele>1246.97</ele>
        <time>2014-06-28T09:16:16Z</time>
      </trkpt>
      <trkpt lat="44.61085" lon="3.17807">
        <ele>1246.49</ele>
        <time>2014-06-28T09:16:31Z</time>
      </trkpt>
      <trkpt lat="44.61078" lon="3.17829">
        <ele>1245.53</ele>
        <time>2014-06-28T09:16:45Z</time>
      </trkpt>
      <trkpt lat="44.61065" lon="3.17846">
        <ele>1245.04</ele>
        <time>2014-06-28T09:17:02Z</time>
      </trkpt>
      <trkpt lat="44.61054" lon="3.17868">
        <ele>1245.04</ele>
        <time>2014-06-28T09:17:18Z</time>
      </trkpt>
      <trkpt lat="44.61049" lon="3.17873">
        <ele>1244.08</ele>
        <time>2014-06-28T09:17:33Z</time>
      </trkpt>
      <trkpt lat="44.61046" lon="3.1788">
        <ele>1243.6</ele>
        <time>2014-06-28T09:17:47Z</time>
      </trkpt>
      <trkpt lat="44.61045" lon="3.1788">
        <ele>1245.04</ele>
        <time>2014-06-28T09:18:02Z</time>
      </trkpt>
      <trkpt lat="44.61043" lon="3.17884">
        <ele>1243.12</ele>
        <time>2014-06-28T09:18:25Z</time>
      </trkpt>
      <trkpt lat="44.61036" lon="3.17895">
        <ele>1245.04</ele>
        <time>2014-06-28T09:18:39Z</time>
      </trkpt>
      <trkpt lat="44.61028" lon="3.17913">
        <ele>1243.6</ele>
        <time>2014-06-28T09:18:55Z</time>
      </trkpt>
      <trkpt lat="44.61016" lon="3.17936">
        <ele>1242.64</ele>
        <time>2014-06-28T09:19:12Z</time>
      </trkpt>
      <trkpt lat="44.61" lon="3.17947">
        <ele>1240.72</ele>
        <time>2014-06-28T09:19:27Z</time>
      </trkpt>
      <trkpt lat="44.60991" lon="3.1795">
        <ele>1237.83</ele>
        <time>2014-06-28T09:19:34Z</time>
      </trkpt>
      <trkpt lat="44.60976" lon="3.17963">
        <ele>1234.47</ele>
        <time>2014-06-28T09:19:48Z</time>
      </trkpt>
      <trkpt lat="44.60959" lon="3.17976">
        <ele>1231.59</ele>
        <time>2014-06-28T09:20:02Z</time>
      </trkpt>
      <trkpt lat="44.60945" lon="3.17999">
        <ele>1228.7</ele>
        <time>2014-06-28T09:20:18Z</time>
      </trkpt>
      <trkpt lat="44.60933" lon="3.18027">
        <ele>1227.74</ele>
        <time>2014-06-28T09:20:36Z</time>
      </trkpt>
      <trkpt lat="44.60923" lon="3.18059">
        <ele>1224.86</ele>
        <time>2014-06-28T09:20:53Z</time>
      </trkpt>
      <trkpt lat="44.60915" lon="3.18097">
        <ele>1224.38</ele>
        <time>2014-06-28T09:21:11Z</time>
      </trkpt>
      <trkpt lat="44.60907" lon="3.18127">
        <ele>1222.45</ele>
        <time>2014-06-28T09:21:27Z</time>
      </trkpt>
      <trkpt lat="44.609" lon="3.18157">
        <ele>1221.01</ele>
        <time>2014-06-28T09:21:44Z</time>
      </trkpt>
      <trkpt lat="44.60889" lon="3.18179">
        <ele>1220.05</ele>
        <time>2014-06-28T09:21:59Z</time>
      </trkpt>
      <trkpt lat="44.60878" lon="3.18205">
        <ele>1218.61</ele>
        <time>2014-06-28T09:22:14Z</time>
      </trkpt>
      <trkpt lat="44.60869" lon="3.18237">
        <ele>1218.13</ele>
        <time>2014-06-28T09:22:32Z</time>
      </trkpt>
      <trkpt lat="44.60861" lon="3.18259">
        <ele>1217.65</ele>
        <time>2014-06-28T09:22:45Z</time>
      </trkpt>
      <trkpt lat="44.6086" lon="3.18283">
        <ele>1216.69</ele>
        <time>2014-06-28T09:23:00Z</time>
      </trkpt>
      <trkpt lat="44.60864" lon="3.183">
        <ele>1216.69</ele>
        <time>2014-06-28T09:23:13Z</time>
      </trkpt>
      <trkpt lat="44.60864" lon="3.18306">
        <ele>1216.69</ele>
        <time>2014-06-28T09:23:17Z</time>
      </trkpt>
      <trkpt lat="44.60866" lon="3.18317">
        <ele>1216.69</ele>
        <time>2014-06-28T09:23:24Z</time>
      </trkpt>
      <trkpt lat="44.60877" lon="3.18347">
        <ele>1215.72</ele>
        <time>2014-06-28T09:23:41Z</time>
      </trkpt>
      <trkpt lat="44.60877" lon="3.18349">
        <ele>1215.72</ele>
        <time>2014-06-28T09:23:42Z</time>
      </trkpt>
      <trkpt lat="44.60876" lon="3.18369">
        <ele>1215.24</ele>
        <time>2014-06-28T09:23:55Z</time>
      </trkpt>
      <trkpt lat="44.60868" lon="3.18394">
        <ele>1214.76</ele>
        <time>2014-06-28T09:24:12Z</time>
      </trkpt>
      <trkpt lat="44.60858" lon="3.18418">
        <ele>1214.76</ele>
        <time>2014-06-28T09:24:28Z</time>
      </trkpt>
      <trkpt lat="44.60854" lon="3.18431">
        <ele>1214.76</ele>
        <time>2014-06-28T09:24:36Z</time>
      </trkpt>
      <trkpt lat="44.60852" lon="3.18439">
        <ele>1216.21</ele>
        <time>2014-06-28T09:24:41Z</time>
      </trkpt>
      <trkpt lat="44.60848" lon="3.18467">
        <ele>1216.21</ele>
        <time>2014-06-28T09:24:57Z</time>
      </trkpt>
      <trkpt lat="44.60841" lon="3.18495">
        <ele>1215.72</ele>
        <time>2014-06-28T09:25:15Z</time>
      </trkpt>
      <trkpt lat="44.6084" lon="3.18501">
        <ele>1216.21</ele>
        <time>2014-06-28T09:25:19Z</time>
      </trkpt>
      <trkpt lat="44.60838" lon="3.18531">
        <ele>1217.17</ele>
        <time>2014-06-28T09:25:37Z</time>
      </trkpt>
      <trkpt lat="44.60838" lon="3.18561">
        <ele>1215.24</ele>
        <time>2014-06-28T09:25:54Z</time>
      </trkpt>
      <trkpt lat="44.60832" lon="3.18588">
        <ele>1215.24</ele>
        <time>2014-06-28T09:26:11Z</time>
      </trkpt>
      <trkpt lat="44.60827" lon="3.186">
        <ele>1216.21</ele>
        <time>2014-06-28T09:26:19Z</time>
      </trkpt>
      <trkpt lat="44.60825" lon="3.18606">
        <ele>1215.24</ele>
        <time>2014-06-28T09:26:23Z</time>
      </trkpt>
      <trkpt lat="44.60817" lon="3.18628">
        <ele>1214.28</ele>
        <time>2014-06-28T09:26:37Z</time>
      </trkpt>
      <trkpt lat="44.60811" lon="3.18652">
        <ele>1213.8</ele>
        <time>2014-06-28T09:26:52Z</time>
      </trkpt>
      <trkpt lat="44.60803" lon="3.18678">
        <ele>1211.4</ele>
        <time>2014-06-28T09:27:08Z</time>
      </trkpt>
      <trkpt lat="44.60797" lon="3.18704">
        <ele>1209.48</ele>
        <time>2014-06-28T09:27:24Z</time>
      </trkpt>
      <trkpt lat="44.60793" lon="3.18723">
        <ele>1207.55</ele>
        <time>2014-06-28T09:27:36Z</time>
      </trkpt>
      <trkpt lat="44.60789" lon="3.18738">
        <ele>1207.55</ele>
        <time>2014-06-28T09:27:46Z</time>
      </trkpt>
      <trkpt lat="44.60785" lon="3.18748">
        <ele>1206.11</ele>
        <time>2014-06-28T09:27:53Z</time>
      </trkpt>
      <trkpt lat="44.60783" lon="3.18754">
        <ele>1207.55</ele>
        <time>2014-06-28T09:27:57Z</time>
      </trkpt>
      <trkpt lat="44.60773" lon="3.1878">
        <ele>1205.63</ele>
        <time>2014-06-28T09:28:14Z</time>
      </trkpt>
      <trkpt lat="44.60772" lon="3.18788">
        <ele>1204.67</ele>
        <time>2014-06-28T09:28:19Z</time>
      </trkpt>
      <trkpt lat="44.60768" lon="3.18813">
        <ele>1203.71</ele>
        <time>2014-06-28T09:28:34Z</time>
      </trkpt>
      <trkpt lat="44.60766" lon="3.1883">
        <ele>1203.71</ele>
        <time>2014-06-28T09:28:49Z</time>
      </trkpt>
      <trkpt lat="44.60766" lon="3.18838">
        <ele>1203.23</ele>
        <time>2014-06-28T09:29:00Z</time>
      </trkpt>
      <trkpt lat="44.60766" lon="3.18839">
        <ele>1204.67</ele>
        <time>2014-06-28T09:29:04Z</time>
      </trkpt>
      <trkpt lat="44.60765" lon="3.18841">
        <ele>1204.19</ele>
        <time>2014-06-28T09:29:08Z</time>
      </trkpt>
      <trkpt lat="44.60764" lon="3.18846">
        <ele>1204.19</ele>
        <time>2014-06-28T09:29:12Z</time>
      </trkpt>
      <trkpt lat="44.60761" lon="3.1887">
        <ele>1204.67</ele>
        <time>2014-06-28T09:29:28Z</time>
      </trkpt>
      <trkpt lat="44.60759" lon="3.18892">
        <ele>1205.15</ele>
        <time>2014-06-28T09:29:42Z</time>
      </trkpt>
      <trkpt lat="44.60757" lon="3.189">
        <ele>1205.63</ele>
        <time>2014-06-28T09:29:48Z</time>
      </trkpt>
      <trkpt lat="44.60755" lon="3.18905">
        <ele>1206.11</ele>
        <time>2014-06-28T09:29:52Z</time>
      </trkpt>
      <trkpt lat="44.60754" lon="3.18909">
        <ele>1206.59</ele>
        <time>2014-06-28T09:29:56Z</time>
      </trkpt>
      <trkpt lat="44.60747" lon="3.18922">
        <ele>1208.51</ele>
        <time>2014-06-28T09:30:10Z</time>
      </trkpt>
      <trkpt lat="44.60746" lon="3.18929">
        <ele>1209</ele>
        <time>2014-06-28T09:30:16Z</time>
      </trkpt>
      <trkpt lat="44.60752" lon="3.18932">
        <ele>1209.96</ele>
        <time>2014-06-28T09:30:26Z</time>
      </trkpt>
      <trkpt lat="44.60753" lon="3.18934">
        <ele>1209.96</ele>
        <time>2014-06-28T09:30:38Z</time>
      </trkpt>
      <trkpt lat="44.60752" lon="3.18933">
        <ele>1209.96</ele>
        <time>2014-06-28T09:30:58Z</time>
      </trkpt>
      <trkpt lat="44.60752" lon="3.18931">
        <ele>1209.96</ele>
        <time>2014-06-28T09:31:14Z</time>
      </trkpt>
      <trkpt lat="44.60753" lon="3.18929">
        <ele>1209.96</ele>
        <time>2014-06-28T09:31:26Z</time>
      </trkpt>
      <trkpt lat="44.60753" lon="3.18929">
        <ele>1209.96</ele>
        <time>2014-06-28T09:31:51Z</time>
      </trkpt>
      <trkpt lat="44.60756" lon="3.18928">
        <ele>1209.96</ele>
        <time>2014-06-28T09:31:56Z</time>
      </trkpt>
      <trkpt lat="44.60758" lon="3.18928">
        <ele>1209.96</ele>
        <time>2014-06-28T09:31:58Z</time>
      </trkpt>
      <trkpt lat="44.6077" lon="3.18936">
        <ele>1212.84</ele>
        <time>2014-06-28T09:32:14Z</time>
      </trkpt>
      <trkpt lat="44.6077" lon="3.18948">
        <ele>1215.24</ele>
        <time>2014-06-28T09:32:29Z</time>
      </trkpt>
      <trkpt lat="44.60758" lon="3.1896">
        <ele>1216.69</ele>
        <time>2014-06-28T09:32:44Z</time>
      </trkpt>
      <trkpt lat="44.60751" lon="3.18968">
        <ele>1218.13</ele>
        <time>2014-06-28T09:32:54Z</time>
      </trkpt>
      <trkpt lat="44.60744" lon="3.18974">
        <ele>1218.61</ele>
        <time>2014-06-28T09:33:02Z</time>
      </trkpt>
      <trkpt lat="44.60727" lon="3.18987">
        <ele>1220.05</ele>
        <time>2014-06-28T09:33:20Z</time>
      </trkpt>
      <trkpt lat="44.60722" lon="3.18993">
        <ele>1221.01</ele>
        <time>2014-06-28T09:33:26Z</time>
      </trkpt>
      <trkpt lat="44.60713" lon="3.19005">
        <ele>1221.97</ele>
        <time>2014-06-28T09:33:38Z</time>
      </trkpt>
      <trkpt lat="44.60705" lon="3.19014">
        <ele>1223.42</ele>
        <time>2014-06-28T09:33:49Z</time>
      </trkpt>
      <trkpt lat="44.60696" lon="3.19025">
        <ele>1224.86</ele>
        <time>2014-06-28T09:34:01Z</time>
      </trkpt>
      <trkpt lat="44.60695" lon="3.19028">
        <ele>1224.86</ele>
        <time>2014-06-28T09:34:04Z</time>
      </trkpt>
      <trkpt lat="44.60686" lon="3.19042">
        <ele>1226.3</ele>
        <time>2014-06-28T09:34:17Z</time>
      </trkpt>
      <trkpt lat="44.60681" lon="3.19053">
        <ele>1227.26</ele>
        <time>2014-06-28T09:34:27Z</time>
      </trkpt>
      <trkpt lat="44.60676" lon="3.19069">
        <ele>1228.22</ele>
        <time>2014-06-28T09:34:39Z</time>
      </trkpt>
      <trkpt lat="44.60676" lon="3.19071">
        <ele>1228.22</ele>
        <time>2014-06-28T09:34:40Z</time>
      </trkpt>
      <trkpt lat="44.60674" lon="3.19077">
        <ele>1228.22</ele>
        <time>2014-06-28T09:34:44Z</time>
      </trkpt>
      <trkpt lat="44.60671" lon="3.19096">
        <ele>1230.14</ele>
        <time>2014-06-28T09:34:57Z</time>
      </trkpt>
      <trkpt lat="44.60669" lon="3.19107">
        <ele>1231.11</ele>
        <time>2014-06-28T09:35:06Z</time>
      </trkpt>
      <trkpt lat="44.60669" lon="3.1911">
        <ele>1231.11</ele>
        <time>2014-06-28T09:35:08Z</time>
      </trkpt>
      <trkpt lat="44.60666" lon="3.19123">
        <ele>1232.07</ele>
        <time>2014-06-28T09:35:17Z</time>
      </trkpt>
      <trkpt lat="44.60663" lon="3.19139">
        <ele>1233.03</ele>
        <time>2014-06-28T09:35:29Z</time>
      </trkpt>
      <trkpt lat="44.60662" lon="3.19143">
        <ele>1233.03</ele>
        <time>2014-06-28T09:35:32Z</time>
      </trkpt>
      <trkpt lat="44.60657" lon="3.19164">
        <ele>1233.99</ele>
        <time>2014-06-28T09:35:46Z</time>
      </trkpt>
      <trkpt lat="44.60654" lon="3.19181">
        <ele>1235.43</ele>
        <time>2014-06-28T09:36:00Z</time>
      </trkpt>
      <trkpt lat="44.60655" lon="3.19197">
        <ele>1236.39</ele>
        <time>2014-06-28T09:36:11Z</time>
      </trkpt>
      <trkpt lat="44.60654" lon="3.19198">
        <ele>1236.39</ele>
        <time>2014-06-28T09:36:12Z</time>
      </trkpt>
      <trkpt lat="44.60655" lon="3.19203">
        <ele>1236.87</ele>
        <time>2014-06-28T09:36:15Z</time>
      </trkpt>
      <trkpt lat="44.60657" lon="3.19209">
        <ele>1236.87</ele>
        <time>2014-06-28T09:36:19Z</time>
      </trkpt>
      <trkpt lat="44.60659" lon="3.19229">
        <ele>1236.87</ele>
        <time>2014-06-28T09:36:32Z</time>
      </trkpt>
      <trkpt lat="44.60659" lon="3.19231">
        <ele>1237.35</ele>
        <time>2014-06-28T09:36:33Z</time>
      </trkpt>
      <trkpt lat="44.60659" lon="3.19238">
        <ele>1237.35</ele>
        <time>2014-06-28T09:36:38Z</time>
      </trkpt>
      <trkpt lat="44.60657" lon="3.19258">
        <ele>1237.35</ele>
        <time>2014-06-28T09:36:51Z</time>
      </trkpt>
      <trkpt lat="44.60653" lon="3.19277">
        <ele>1237.35</ele>
        <time>2014-06-28T09:37:04Z</time>
      </trkpt>
      <trkpt lat="44.60651" lon="3.19287">
        <ele>1237.35</ele>
        <time>2014-06-28T09:37:10Z</time>
      </trkpt>
      <trkpt lat="44.60649" lon="3.19298">
        <ele>1237.83</ele>
        <time>2014-06-28T09:37:16Z</time>
      </trkpt>
      <trkpt lat="44.60647" lon="3.19317">
        <ele>1237.35</ele>
        <time>2014-06-28T09:37:29Z</time>
      </trkpt>
      <trkpt lat="44.60645" lon="3.19322">
        <ele>1237.35</ele>
        <time>2014-06-28T09:37:33Z</time>
      </trkpt>
      <trkpt lat="44.60643" lon="3.19347">
        <ele>1235.91</ele>
        <time>2014-06-28T09:37:49Z</time>
      </trkpt>
      <trkpt lat="44.60645" lon="3.19367">
        <ele>1235.43</ele>
        <time>2014-06-28T09:38:04Z</time>
      </trkpt>
      <trkpt lat="44.60643" lon="3.19383">
        <ele>1235.43</ele>
        <time>2014-06-28T09:38:17Z</time>
      </trkpt>
      <trkpt lat="44.60643" lon="3.19399">
        <ele>1234.95</ele>
        <time>2014-06-28T09:38:32Z</time>
      </trkpt>
      <trkpt lat="44.60646" lon="3.19405">
        <ele>1235.91</ele>
        <time>2014-06-28T09:38:52Z</time>
      </trkpt>
      <trkpt lat="44.60644" lon="3.194">
        <ele>1235.91</ele>
        <time>2014-06-28T09:39:03Z</time>
      </trkpt>
      <trkpt lat="44.60645" lon="3.19399">
        <ele>1236.39</ele>
        <time>2014-06-28T09:39:28Z</time>
      </trkpt>
      <trkpt lat="44.60644" lon="3.194">
        <ele>1235.43</ele>
        <time>2014-06-28T09:39:46Z</time>
      </trkpt>
      <trkpt lat="44.60648" lon="3.19406">
        <ele>1235.43</ele>
        <time>2014-06-28T09:40:01Z</time>
      </trkpt>
      <trkpt lat="44.60647" lon="3.19413">
        <ele>1235.43</ele>
        <time>2014-06-28T09:40:08Z</time>
      </trkpt>
      <trkpt lat="44.60644" lon="3.19416">
        <ele>1235.43</ele>
        <time>2014-06-28T09:40:12Z</time>
      </trkpt>
      <trkpt lat="44.60633" lon="3.19429">
        <ele>1235.91</ele>
        <time>2014-06-28T09:40:27Z</time>
      </trkpt>
      <trkpt lat="44.60626" lon="3.19449">
        <ele>1236.87</ele>
        <time>2014-06-28T09:40:41Z</time>
      </trkpt>
      <trkpt lat="44.60623" lon="3.19459">
        <ele>1237.35</ele>
        <time>2014-06-28T09:40:55Z</time>
      </trkpt>
      <trkpt lat="44.60619" lon="3.19473">
        <ele>1238.32</ele>
        <time>2014-06-28T09:41:09Z</time>
      </trkpt>
      <trkpt lat="44.60617" lon="3.19499">
        <ele>1240.24</ele>
        <time>2014-06-28T09:41:25Z</time>
      </trkpt>
      <trkpt lat="44.60618" lon="3.19501">
        <ele>1240.24</ele>
        <time>2014-06-28T09:41:26Z</time>
      </trkpt>
      <trkpt lat="44.60618" lon="3.19502">
        <ele>1240.24</ele>
        <time>2014-06-28T09:41:27Z</time>
      </trkpt>
      <trkpt lat="44.60618" lon="3.19504">
        <ele>1240.24</ele>
        <time>2014-06-28T09:41:28Z</time>
      </trkpt>
      <trkpt lat="44.60619" lon="3.19505">
        <ele>1240.72</ele>
        <time>2014-06-28T09:41:29Z</time>
      </trkpt>
      <trkpt lat="44.60619" lon="3.19517">
        <ele>1241.2</ele>
        <time>2014-06-28T09:41:36Z</time>
      </trkpt>
      <trkpt lat="44.6062" lon="3.19525">
        <ele>1241.68</ele>
        <time>2014-06-28T09:41:41Z</time>
      </trkpt>
      <trkpt lat="44.6062" lon="3.19527">
        <ele>1241.68</ele>
        <time>2014-06-28T09:41:42Z</time>
      </trkpt>
      <trkpt lat="44.60619" lon="3.19534">
        <ele>1241.68</ele>
        <time>2014-06-28T09:41:47Z</time>
      </trkpt>
      <trkpt lat="44.60618" lon="3.1954">
        <ele>1242.16</ele>
        <time>2014-06-28T09:41:51Z</time>
      </trkpt>
      <trkpt lat="44.60617" lon="3.19544">
        <ele>1242.16</ele>
        <time>2014-06-28T09:41:54Z</time>
      </trkpt>
      <trkpt lat="44.60617" lon="3.19546">
        <ele>1242.16</ele>
        <time>2014-06-28T09:41:55Z</time>
      </trkpt>
      <trkpt lat="44.60617" lon="3.19548">
        <ele>1242.16</ele>
        <time>2014-06-28T09:41:56Z</time>
      </trkpt>
      <trkpt lat="44.60617" lon="3.19549">
        <ele>1242.16</ele>
        <time>2014-06-28T09:41:57Z</time>
      </trkpt>
      <trkpt lat="44.60617" lon="3.19551">
        <ele>1242.16</ele>
        <time>2014-06-28T09:41:58Z</time>
      </trkpt>
      <trkpt lat="44.60616" lon="3.19554">
        <ele>1242.64</ele>
        <time>2014-06-28T09:42:00Z</time>
      </trkpt>
      <trkpt lat="44.60615" lon="3.19555">
        <ele>1242.64</ele>
        <time>2014-06-28T09:42:01Z</time>
      </trkpt>
      <trkpt lat="44.60607" lon="3.19575">
        <ele>1244.08</ele>
        <time>2014-06-28T09:42:15Z</time>
      </trkpt>
      <trkpt lat="44.60606" lon="3.19579">
        <ele>1244.08</ele>
        <time>2014-06-28T09:42:18Z</time>
      </trkpt>
      <trkpt lat="44.60605" lon="3.19584">
        <ele>1244.08</ele>
        <time>2014-06-28T09:42:21Z</time>
      </trkpt>
      <trkpt lat="44.60605" lon="3.19588">
        <ele>1244.08</ele>
        <time>2014-06-28T09:42:24Z</time>
      </trkpt>
      <trkpt lat="44.60603" lon="3.19597">
        <ele>1244.08</ele>
        <time>2014-06-28T09:42:30Z</time>
      </trkpt>
      <trkpt lat="44.60601" lon="3.19606">
        <ele>1245.04</ele>
        <time>2014-06-28T09:42:38Z</time>
      </trkpt>
      <trkpt lat="44.60597" lon="3.19621">
        <ele>1246.49</ele>
        <time>2014-06-28T09:42:50Z</time>
      </trkpt>
      <trkpt lat="44.60596" lon="3.19627">
        <ele>1246.49</ele>
        <time>2014-06-28T09:42:54Z</time>
      </trkpt>
      <trkpt lat="44.60589" lon="3.19642">
        <ele>1247.45</ele>
        <time>2014-06-28T09:43:07Z</time>
      </trkpt>
      <trkpt lat="44.60588" lon="3.19644">
        <ele>1247.45</ele>
        <time>2014-06-28T09:43:09Z</time>
      </trkpt>
      <trkpt lat="44.60587" lon="3.19644">
        <ele>1247.45</ele>
        <time>2014-06-28T09:43:10Z</time>
      </trkpt>
      <trkpt lat="44.60586" lon="3.19645">
        <ele>1247.45</ele>
        <time>2014-06-28T09:43:11Z</time>
      </trkpt>
      <trkpt lat="44.60584" lon="3.19652">
        <ele>1248.41</ele>
        <time>2014-06-28T09:43:16Z</time>
      </trkpt>
      <trkpt lat="44.60581" lon="3.19665">
        <ele>1248.89</ele>
        <time>2014-06-28T09:43:30Z</time>
      </trkpt>
      <trkpt lat="44.60578" lon="3.19677">
        <ele>1249.85</ele>
        <time>2014-06-28T09:43:43Z</time>
      </trkpt>
      <trkpt lat="44.60578" lon="3.19679">
        <ele>1249.85</ele>
        <time>2014-06-28T09:43:44Z</time>
      </trkpt>
      <trkpt lat="44.60578" lon="3.1968">
        <ele>1249.85</ele>
        <time>2014-06-28T09:43:45Z</time>
      </trkpt>
      <trkpt lat="44.60574" lon="3.19699">
        <ele>1250.81</ele>
        <time>2014-06-28T09:43:59Z</time>
      </trkpt>
      <trkpt lat="44.60574" lon="3.19701">
        <ele>1250.81</ele>
        <time>2014-06-28T09:44:00Z</time>
      </trkpt>
      <trkpt lat="44.60573" lon="3.19702">
        <ele>1251.29</ele>
        <time>2014-06-28T09:44:01Z</time>
      </trkpt>
      <trkpt lat="44.60573" lon="3.19713">
        <ele>1251.77</ele>
        <time>2014-06-28T09:44:08Z</time>
      </trkpt>
      <trkpt lat="44.60573" lon="3.19714">
        <ele>1251.77</ele>
        <time>2014-06-28T09:44:09Z</time>
      </trkpt>
      <trkpt lat="44.6057" lon="3.19736">
        <ele>1250.81</ele>
        <time>2014-06-28T09:44:24Z</time>
      </trkpt>
      <trkpt lat="44.60564" lon="3.1976">
        <ele>1250.81</ele>
        <time>2014-06-28T09:44:40Z</time>
      </trkpt>
      <trkpt lat="44.60565" lon="3.19776">
        <ele>1250.81</ele>
        <time>2014-06-28T09:44:50Z</time>
      </trkpt>
      <trkpt lat="44.60561" lon="3.1979">
        <ele>1250.81</ele>
        <time>2014-06-28T09:44:59Z</time>
      </trkpt>
      <trkpt lat="44.6056" lon="3.19801">
        <ele>1250.81</ele>
        <time>2014-06-28T09:45:07Z</time>
      </trkpt>
      <trkpt lat="44.60552" lon="3.1982">
        <ele>1252.74</ele>
        <time>2014-06-28T09:45:20Z</time>
      </trkpt>
      <trkpt lat="44.60549" lon="3.19826">
        <ele>1253.22</ele>
        <time>2014-06-28T09:45:25Z</time>
      </trkpt>
      <trkpt lat="44.60543" lon="3.19841">
        <ele>1253.7</ele>
        <time>2014-06-28T09:45:36Z</time>
      </trkpt>
      <trkpt lat="44.60543" lon="3.19843">
        <ele>1253.7</ele>
        <time>2014-06-28T09:45:37Z</time>
      </trkpt>
      <trkpt lat="44.60542" lon="3.19851">
        <ele>1254.18</ele>
        <time>2014-06-28T09:45:43Z</time>
      </trkpt>
      <trkpt lat="44.60537" lon="3.19876">
        <ele>1255.14</ele>
        <time>2014-06-28T09:45:57Z</time>
      </trkpt>
      <trkpt lat="44.60532" lon="3.19895">
        <ele>1255.62</ele>
        <time>2014-06-28T09:46:10Z</time>
      </trkpt>
      <trkpt lat="44.60532" lon="3.19897">
        <ele>1255.62</ele>
        <time>2014-06-28T09:46:11Z</time>
      </trkpt>
      <trkpt lat="44.60534" lon="3.19917">
        <ele>1257.06</ele>
        <time>2014-06-28T09:46:26Z</time>
      </trkpt>
      <trkpt lat="44.60534" lon="3.19923">
        <ele>1257.06</ele>
        <time>2014-06-28T09:46:29Z</time>
      </trkpt>
      <trkpt lat="44.60534" lon="3.19925">
        <ele>1257.06</ele>
        <time>2014-06-28T09:46:30Z</time>
      </trkpt>
      <trkpt lat="44.60534" lon="3.19926">
        <ele>1257.06</ele>
        <time>2014-06-28T09:46:31Z</time>
      </trkpt>
      <trkpt lat="44.60534" lon="3.19928">
        <ele>1257.06</ele>
        <time>2014-06-28T09:46:32Z</time>
      </trkpt>
      <trkpt lat="44.60534" lon="3.1993">
        <ele>1257.06</ele>
        <time>2014-06-28T09:46:33Z</time>
      </trkpt>
      <trkpt lat="44.60534" lon="3.19931">
        <ele>1257.06</ele>
        <time>2014-06-28T09:46:34Z</time>
      </trkpt>
      <trkpt lat="44.60535" lon="3.19939">
        <ele>1257.06</ele>
        <time>2014-06-28T09:46:39Z</time>
      </trkpt>
      <trkpt lat="44.60537" lon="3.19945">
        <ele>1258.02</ele>
        <time>2014-06-28T09:46:43Z</time>
      </trkpt>
      <trkpt lat="44.60537" lon="3.19947">
        <ele>1258.02</ele>
        <time>2014-06-28T09:46:44Z</time>
      </trkpt>
      <trkpt lat="44.60538" lon="3.19949">
        <ele>1258.02</ele>
        <time>2014-06-28T09:46:45Z</time>
      </trkpt>
      <trkpt lat="44.60538" lon="3.1995">
        <ele>1258.02</ele>
        <time>2014-06-28T09:46:46Z</time>
      </trkpt>
      <trkpt lat="44.60538" lon="3.19952">
        <ele>1258.02</ele>
        <time>2014-06-28T09:46:47Z</time>
      </trkpt>
      <trkpt lat="44.60538" lon="3.19954">
        <ele>1258.02</ele>
        <time>2014-06-28T09:46:48Z</time>
      </trkpt>
      <trkpt lat="44.60538" lon="3.19956">
        <ele>1258.02</ele>
        <time>2014-06-28T09:46:49Z</time>
      </trkpt>
      <trkpt lat="44.60537" lon="3.19957">
        <ele>1258.02</ele>
        <time>2014-06-28T09:46:50Z</time>
      </trkpt>
      <trkpt lat="44.60537" lon="3.19959">
        <ele>1258.98</ele>
        <time>2014-06-28T09:46:51Z</time>
      </trkpt>
      <trkpt lat="44.60534" lon="3.19979">
        <ele>1258.5</ele>
        <time>2014-06-28T09:47:02Z</time>
      </trkpt>
      <trkpt lat="44.60533" lon="3.19981">
        <ele>1258.5</ele>
        <time>2014-06-28T09:47:03Z</time>
      </trkpt>
      <trkpt lat="44.60533" lon="3.19983">
        <ele>1258.5</ele>
        <time>2014-06-28T09:47:04Z</time>
      </trkpt>
      <trkpt lat="44.60533" lon="3.19984">
        <ele>1258.5</ele>
        <time>2014-06-28T09:47:05Z</time>
      </trkpt>
      <trkpt lat="44.60532" lon="3.19986">
        <ele>1258.5</ele>
        <time>2014-06-28T09:47:06Z</time>
      </trkpt>
      <trkpt lat="44.60532" lon="3.19988">
        <ele>1258.5</ele>
        <time>2014-06-28T09:47:07Z</time>
      </trkpt>
      <trkpt lat="44.60531" lon="3.19989">
        <ele>1258.5</ele>
        <time>2014-06-28T09:47:08Z</time>
      </trkpt>
      <trkpt lat="44.6053" lon="3.20005">
        <ele>1258.5</ele>
        <time>2014-06-28T09:47:19Z</time>
      </trkpt>
      <trkpt lat="44.60528" lon="3.20014">
        <ele>1257.54</ele>
        <time>2014-06-28T09:47:24Z</time>
      </trkpt>
      <trkpt lat="44.60525" lon="3.20021">
        <ele>1256.1</ele>
        <time>2014-06-28T09:47:29Z</time>
      </trkpt>
      <trkpt lat="44.60524" lon="3.20022">
        <ele>1256.1</ele>
        <time>2014-06-28T09:47:30Z</time>
      </trkpt>
      <trkpt lat="44.60523" lon="3.20023">
        <ele>1255.62</ele>
        <time>2014-06-28T09:47:31Z</time>
      </trkpt>
      <trkpt lat="44.60519" lon="3.20025">
        <ele>1254.66</ele>
        <time>2014-06-28T09:47:34Z</time>
      </trkpt>
      <trkpt lat="44.60518" lon="3.20026">
        <ele>1254.66</ele>
        <time>2014-06-28T09:47:35Z</time>
      </trkpt>
      <trkpt lat="44.60517" lon="3.20027">
        <ele>1254.66</ele>
        <time>2014-06-28T09:47:36Z</time>
      </trkpt>
      <trkpt lat="44.60516" lon="3.20029">
        <ele>1254.66</ele>
        <time>2014-06-28T09:47:37Z</time>
      </trkpt>
      <trkpt lat="44.60515" lon="3.20031">
        <ele>1254.66</ele>
        <time>2014-06-28T09:47:38Z</time>
      </trkpt>
      <trkpt lat="44.60514" lon="3.20032">
        <ele>1254.66</ele>
        <time>2014-06-28T09:47:39Z</time>
      </trkpt>
      <trkpt lat="44.60511" lon="3.20043">
        <ele>1253.22</ele>
        <time>2014-06-28T09:47:52Z</time>
      </trkpt>
      <trkpt lat="44.6051" lon="3.20047">
        <ele>1253.22</ele>
        <time>2014-06-28T09:47:59Z</time>
      </trkpt>
      <trkpt lat="44.6051" lon="3.2005">
        <ele>1252.74</ele>
        <time>2014-06-28T09:48:01Z</time>
      </trkpt>
      <trkpt lat="44.6051" lon="3.20052">
        <ele>1252.74</ele>
        <time>2014-06-28T09:48:02Z</time>
      </trkpt>
      <trkpt lat="44.6051" lon="3.20053">
        <ele>1252.74</ele>
        <time>2014-06-28T09:48:03Z</time>
      </trkpt>
      <trkpt lat="44.6051" lon="3.20055">
        <ele>1252.74</ele>
        <time>2014-06-28T09:48:04Z</time>
      </trkpt>
      <trkpt lat="44.6051" lon="3.20057">
        <ele>1252.74</ele>
        <time>2014-06-28T09:48:05Z</time>
      </trkpt>
      <trkpt lat="44.60504" lon="3.20084">
        <ele>1250.81</ele>
        <time>2014-06-28T09:48:20Z</time>
      </trkpt>
      <trkpt lat="44.605" lon="3.20105">
        <ele>1248.89</ele>
        <time>2014-06-28T09:48:32Z</time>
      </trkpt>
      <trkpt lat="44.60495" lon="3.20133">
        <ele>1247.45</ele>
        <time>2014-06-28T09:48:47Z</time>
      </trkpt>
      <trkpt lat="44.60491" lon="3.20154">
        <ele>1246.49</ele>
        <time>2014-06-28T09:49:00Z</time>
      </trkpt>
      <trkpt lat="44.60487" lon="3.20177">
        <ele>1244.56</ele>
        <time>2014-06-28T09:49:14Z</time>
      </trkpt>
      <trkpt lat="44.60488" lon="3.20204">
        <ele>1241.68</ele>
        <time>2014-06-28T09:49:30Z</time>
      </trkpt>
      <trkpt lat="44.60489" lon="3.2021">
        <ele>1241.2</ele>
        <time>2014-06-28T09:49:34Z</time>
      </trkpt>
      <trkpt lat="44.60489" lon="3.20211">
        <ele>1241.2</ele>
        <time>2014-06-28T09:49:35Z</time>
      </trkpt>
      <trkpt lat="44.60489" lon="3.20213">
        <ele>1241.2</ele>
        <time>2014-06-28T09:49:36Z</time>
      </trkpt>
      <trkpt lat="44.60489" lon="3.20215">
        <ele>1241.2</ele>
        <time>2014-06-28T09:49:37Z</time>
      </trkpt>
      <trkpt lat="44.60489" lon="3.20217">
        <ele>1240.72</ele>
        <time>2014-06-28T09:49:38Z</time>
      </trkpt>
      <trkpt lat="44.60489" lon="3.20219">
        <ele>1240.72</ele>
        <time>2014-06-28T09:49:39Z</time>
      </trkpt>
      <trkpt lat="44.6049" lon="3.20229">
        <ele>1239.76</ele>
        <time>2014-06-28T09:49:45Z</time>
      </trkpt>
      <trkpt lat="44.60491" lon="3.20231">
        <ele>1239.76</ele>
        <time>2014-06-28T09:49:46Z</time>
      </trkpt>
      <trkpt lat="44.60491" lon="3.20232">
        <ele>1239.28</ele>
        <time>2014-06-28T09:49:47Z</time>
      </trkpt>
      <trkpt lat="44.60492" lon="3.20246">
        <ele>1238.32</ele>
        <time>2014-06-28T09:49:55Z</time>
      </trkpt>
      <trkpt lat="44.60492" lon="3.20248">
        <ele>1238.32</ele>
        <time>2014-06-28T09:49:56Z</time>
      </trkpt>
      <trkpt lat="44.60492" lon="3.20249">
        <ele>1237.83</ele>
        <time>2014-06-28T09:49:57Z</time>
      </trkpt>
      <trkpt lat="44.60493" lon="3.20279">
        <ele>1235.91</ele>
        <time>2014-06-28T09:50:13Z</time>
      </trkpt>
      <trkpt lat="44.60494" lon="3.20303">
        <ele>1233.99</ele>
        <time>2014-06-28T09:50:27Z</time>
      </trkpt>
      <trkpt lat="44.60492" lon="3.20314">
        <ele>1232.55</ele>
        <time>2014-06-28T09:50:41Z</time>
      </trkpt>
      <trkpt lat="44.60491" lon="3.20327">
        <ele>1231.11</ele>
        <time>2014-06-28T09:50:51Z</time>
      </trkpt>
      <trkpt lat="44.60492" lon="3.20329">
        <ele>1231.11</ele>
        <time>2014-06-28T09:50:52Z</time>
      </trkpt>
      <trkpt lat="44.60492" lon="3.20331">
        <ele>1230.62</ele>
        <time>2014-06-28T09:50:54Z</time>
      </trkpt>
      <trkpt lat="44.60492" lon="3.20333">
        <ele>1230.62</ele>
        <time>2014-06-28T09:50:55Z</time>
      </trkpt>
      <trkpt lat="44.60494" lon="3.20354">
        <ele>1227.74</ele>
        <time>2014-06-28T09:51:09Z</time>
      </trkpt>
      <trkpt lat="44.60495" lon="3.20358">
        <ele>1227.26</ele>
        <time>2014-06-28T09:51:12Z</time>
      </trkpt>
      <trkpt lat="44.60496" lon="3.2036">
        <ele>1227.26</ele>
        <time>2014-06-28T09:51:13Z</time>
      </trkpt>
      <trkpt lat="44.60496" lon="3.20362">
        <ele>1226.3</ele>
        <time>2014-06-28T09:51:14Z</time>
      </trkpt>
      <trkpt lat="44.60497" lon="3.20371">
        <ele>1226.3</ele>
        <time>2014-06-28T09:51:21Z</time>
      </trkpt>
      <trkpt lat="44.60498" lon="3.20373">
        <ele>1226.3</ele>
        <time>2014-06-28T09:51:22Z</time>
      </trkpt>
      <trkpt lat="44.60498" lon="3.20376">
        <ele>1225.82</ele>
        <time>2014-06-28T09:51:24Z</time>
      </trkpt>
      <trkpt lat="44.60499" lon="3.20381">
        <ele>1225.34</ele>
        <time>2014-06-28T09:51:28Z</time>
      </trkpt>
      <trkpt lat="44.60503" lon="3.20392">
        <ele>1223.9</ele>
        <time>2014-06-28T09:51:36Z</time>
      </trkpt>
      <trkpt lat="44.60504" lon="3.20394">
        <ele>1223.42</ele>
        <time>2014-06-28T09:51:37Z</time>
      </trkpt>
      <trkpt lat="44.60509" lon="3.20404">
        <ele>1221.97</ele>
        <time>2014-06-28T09:51:49Z</time>
      </trkpt>
      <trkpt lat="44.60516" lon="3.20414">
        <ele>1221.49</ele>
        <time>2014-06-28T09:52:02Z</time>
      </trkpt>
      <trkpt lat="44.60521" lon="3.20424">
        <ele>1220.05</ele>
        <time>2014-06-28T09:52:15Z</time>
      </trkpt>
      <trkpt lat="44.60522" lon="3.2043">
        <ele>1219.57</ele>
        <time>2014-06-28T09:52:21Z</time>
      </trkpt>
      <trkpt lat="44.60522" lon="3.20438">
        <ele>1218.13</ele>
        <time>2014-06-28T09:52:26Z</time>
      </trkpt>
      <trkpt lat="44.60523" lon="3.20442">
        <ele>1218.13</ele>
        <time>2014-06-28T09:52:28Z</time>
      </trkpt>
      <trkpt lat="44.60524" lon="3.20443">
        <ele>1218.13</ele>
        <time>2014-06-28T09:52:29Z</time>
      </trkpt>
      <trkpt lat="44.60527" lon="3.20449">
        <ele>1218.13</ele>
        <time>2014-06-28T09:52:35Z</time>
      </trkpt>
      <trkpt lat="44.60527" lon="3.2045">
        <ele>1218.13</ele>
        <time>2014-06-28T09:52:36Z</time>
      </trkpt>
      <trkpt lat="44.60528" lon="3.20458">
        <ele>1217.65</ele>
        <time>2014-06-28T09:52:45Z</time>
      </trkpt>
      <trkpt lat="44.60529" lon="3.20473">
        <ele>1218.61</ele>
        <time>2014-06-28T09:52:56Z</time>
      </trkpt>
      <trkpt lat="44.60529" lon="3.20479">
        <ele>1217.65</ele>
        <time>2014-06-28T09:53:02Z</time>
      </trkpt>
      <trkpt lat="44.60529" lon="3.20486">
        <ele>1217.65</ele>
        <time>2014-06-28T09:53:06Z</time>
      </trkpt>
      <trkpt lat="44.60529" lon="3.20488">
        <ele>1217.17</ele>
        <time>2014-06-28T09:53:07Z</time>
      </trkpt>
      <trkpt lat="44.60531" lon="3.20501">
        <ele>1216.21</ele>
        <time>2014-06-28T09:53:16Z</time>
      </trkpt>
      <trkpt lat="44.60534" lon="3.20509">
        <ele>1215.24</ele>
        <time>2014-06-28T09:53:21Z</time>
      </trkpt>
      <trkpt lat="44.60535" lon="3.2051">
        <ele>1215.24</ele>
        <time>2014-06-28T09:53:22Z</time>
      </trkpt>
      <trkpt lat="44.60535" lon="3.20512">
        <ele>1215.24</ele>
        <time>2014-06-28T09:53:23Z</time>
      </trkpt>
      <trkpt lat="44.60535" lon="3.20513">
        <ele>1215.24</ele>
        <time>2014-06-28T09:53:24Z</time>
      </trkpt>
      <trkpt lat="44.60535" lon="3.20515">
        <ele>1215.24</ele>
        <time>2014-06-28T09:53:25Z</time>
      </trkpt>
      <trkpt lat="44.60535" lon="3.20517">
        <ele>1215.24</ele>
        <time>2014-06-28T09:53:26Z</time>
      </trkpt>
      <trkpt lat="44.60535" lon="3.20519">
        <ele>1215.24</ele>
        <time>2014-06-28T09:53:27Z</time>
      </trkpt>
      <trkpt lat="44.60535" lon="3.20521">
        <ele>1214.76</ele>
        <time>2014-06-28T09:53:28Z</time>
      </trkpt>
      <trkpt lat="44.60535" lon="3.20526">
        <ele>1212.84</ele>
        <time>2014-06-28T09:53:31Z</time>
      </trkpt>
      <trkpt lat="44.60533" lon="3.20534">
        <ele>1212.36</ele>
        <time>2014-06-28T09:53:38Z</time>
      </trkpt>
      <trkpt lat="44.60532" lon="3.20535">
        <ele>1212.36</ele>
        <time>2014-06-28T09:53:39Z</time>
      </trkpt>
      <trkpt lat="44.60533" lon="3.20538">
        <ele>1212.36</ele>
        <time>2014-06-28T09:53:41Z</time>
      </trkpt>
      <trkpt lat="44.60535" lon="3.20551">
        <ele>1210.92</ele>
        <time>2014-06-28T09:53:50Z</time>
      </trkpt>
      <trkpt lat="44.60535" lon="3.20553">
        <ele>1210.44</ele>
        <time>2014-06-28T09:53:51Z</time>
      </trkpt>
      <trkpt lat="44.60536" lon="3.2057">
        <ele>1207.55</ele>
        <time>2014-06-28T09:54:03Z</time>
      </trkpt>
      <trkpt lat="44.60535" lon="3.20573">
        <ele>1207.55</ele>
        <time>2014-06-28T09:54:05Z</time>
      </trkpt>
      <trkpt lat="44.60535" lon="3.20575">
        <ele>1207.55</ele>
        <time>2014-06-28T09:54:06Z</time>
      </trkpt>
      <trkpt lat="44.60535" lon="3.20592">
        <ele>1205.15</ele>
        <time>2014-06-28T09:54:20Z</time>
      </trkpt>
      <trkpt lat="44.60533" lon="3.20598">
        <ele>1205.15</ele>
        <time>2014-06-28T09:54:25Z</time>
      </trkpt>
      <trkpt lat="44.60533" lon="3.20605">
        <ele>1203.71</ele>
        <time>2014-06-28T09:54:35Z</time>
      </trkpt>
      <trkpt lat="44.60535" lon="3.20613">
        <ele>1201.79</ele>
        <time>2014-06-28T09:54:46Z</time>
      </trkpt>
      <trkpt lat="44.60538" lon="3.20617">
        <ele>1200.34</ele>
        <time>2014-06-28T09:54:56Z</time>
      </trkpt>
      <trkpt lat="44.60539" lon="3.20616">
        <ele>1200.34</ele>
        <time>2014-06-28T09:55:05Z</time>
      </trkpt>
      <trkpt lat="44.60539" lon="3.20612">
        <ele>1200.34</ele>
        <time>2014-06-28T09:55:15Z</time>
      </trkpt>
      <trkpt lat="44.6054" lon="3.2061">
        <ele>1201.79</ele>
        <time>2014-06-28T09:55:22Z</time>
      </trkpt>
      <trkpt lat="44.60544" lon="3.20605">
        <ele>1203.23</ele>
        <time>2014-06-28T09:55:31Z</time>
      </trkpt>
      <trkpt lat="44.60548" lon="3.20604">
        <ele>1203.71</ele>
        <time>2014-06-28T09:55:36Z</time>
      </trkpt>
      <trkpt lat="44.60549" lon="3.20606">
        <ele>1203.71</ele>
        <time>2014-06-28T09:55:38Z</time>
      </trkpt>
      <trkpt lat="44.6055" lon="3.20608">
        <ele>1203.71</ele>
        <time>2014-06-28T09:55:39Z</time>
      </trkpt>
      <trkpt lat="44.60551" lon="3.20614">
        <ele>1202.75</ele>
        <time>2014-06-28T09:55:45Z</time>
      </trkpt>
      <trkpt lat="44.60549" lon="3.20623">
        <ele>1201.3</ele>
        <time>2014-06-28T09:55:57Z</time>
      </trkpt>
      <trkpt lat="44.60546" lon="3.20627">
        <ele>1199.38</ele>
        <time>2014-06-28T09:56:09Z</time>
      </trkpt>
      <trkpt lat="44.60543" lon="3.20631">
        <ele>1199.38</ele>
        <time>2014-06-28T09:56:22Z</time>
      </trkpt>
      <trkpt lat="44.60539" lon="3.20632">
        <ele>1198.9</ele>
        <time>2014-06-28T09:56:39Z</time>
      </trkpt>
      <trkpt lat="44.60534" lon="3.20632">
        <ele>1198.42</ele>
        <time>2014-06-28T09:56:47Z</time>
      </trkpt>
      <trkpt lat="44.60524" lon="3.20632">
        <ele>1197.94</ele>
        <time>2014-06-28T09:56:59Z</time>
      </trkpt>
      <trkpt lat="44.60522" lon="3.2063">
        <ele>1196.98</ele>
        <time>2014-06-28T09:57:02Z</time>
      </trkpt>
      <trkpt lat="44.60521" lon="3.2063">
        <ele>1196.98</ele>
        <time>2014-06-28T09:57:03Z</time>
      </trkpt>
      <trkpt lat="44.6052" lon="3.2063">
        <ele>1196.98</ele>
        <time>2014-06-28T09:57:04Z</time>
      </trkpt>
      <trkpt lat="44.60519" lon="3.2063">
        <ele>1196.98</ele>
        <time>2014-06-28T09:57:05Z</time>
      </trkpt>
      <trkpt lat="44.60517" lon="3.20629">
        <ele>1196.98</ele>
        <time>2014-06-28T09:57:06Z</time>
      </trkpt>
      <trkpt lat="44.60516" lon="3.20629">
        <ele>1196.98</ele>
        <time>2014-06-28T09:57:07Z</time>
      </trkpt>
      <trkpt lat="44.60515" lon="3.20629">
        <ele>1196.98</ele>
        <time>2014-06-28T09:57:08Z</time>
      </trkpt>
      <trkpt lat="44.60514" lon="3.20629">
        <ele>1196.5</ele>
        <time>2014-06-28T09:57:09Z</time>
      </trkpt>
      <trkpt lat="44.60497" lon="3.20624">
        <ele>1196.02</ele>
        <time>2014-06-28T09:57:24Z</time>
      </trkpt>
      <trkpt lat="44.60488" lon="3.20622">
        <ele>1195.06</ele>
        <time>2014-06-28T09:57:32Z</time>
      </trkpt>
      <trkpt lat="44.60484" lon="3.2062">
        <ele>1195.06</ele>
        <time>2014-06-28T09:57:36Z</time>
      </trkpt>
      <trkpt lat="44.60483" lon="3.20619">
        <ele>1194.58</ele>
        <time>2014-06-28T09:57:37Z</time>
      </trkpt>
      <trkpt lat="44.60482" lon="3.20618">
        <ele>1194.58</ele>
        <time>2014-06-28T09:57:38Z</time>
      </trkpt>
      <trkpt lat="44.60468" lon="3.20612">
        <ele>1194.09</ele>
        <time>2014-06-28T09:57:53Z</time>
      </trkpt>
      <trkpt lat="44.60464" lon="3.20609">
        <ele>1192.17</ele>
        <time>2014-06-28T09:57:57Z</time>
      </trkpt>
      <trkpt lat="44.60459" lon="3.20607">
        <ele>1192.17</ele>
        <time>2014-06-28T09:58:01Z</time>
      </trkpt>
      <trkpt lat="44.60457" lon="3.20607">
        <ele>1192.17</ele>
        <time>2014-06-28T09:58:03Z</time>
      </trkpt>
      <trkpt lat="44.60456" lon="3.20606">
        <ele>1192.17</ele>
        <time>2014-06-28T09:58:04Z</time>
      </trkpt>
      <trkpt lat="44.60455" lon="3.20605">
        <ele>1192.17</ele>
        <time>2014-06-28T09:58:05Z</time>
      </trkpt>
      <trkpt lat="44.60454" lon="3.20604">
        <ele>1192.17</ele>
        <time>2014-06-28T09:58:06Z</time>
      </trkpt>
      <trkpt lat="44.60438" lon="3.20597">
        <ele>1191.21</ele>
        <time>2014-06-28T09:58:20Z</time>
      </trkpt>
      <trkpt lat="44.60417" lon="3.20588">
        <ele>1189.77</ele>
        <time>2014-06-28T09:58:38Z</time>
      </trkpt>
      <trkpt lat="44.60398" lon="3.20592">
        <ele>1187.85</ele>
        <time>2014-06-28T09:58:54Z</time>
      </trkpt>
      <trkpt lat="44.60397" lon="3.20593">
        <ele>1187.85</ele>
        <time>2014-06-28T09:58:55Z</time>
      </trkpt>
      <trkpt lat="44.60391" lon="3.20597">
        <ele>1189.77</ele>
        <time>2014-06-28T09:59:01Z</time>
      </trkpt>
      <trkpt lat="44.60388" lon="3.20598">
        <ele>1186.4</ele>
        <time>2014-06-28T09:59:03Z</time>
      </trkpt>
      <trkpt lat="44.60387" lon="3.20599">
        <ele>1186.4</ele>
        <time>2014-06-28T09:59:04Z</time>
      </trkpt>
      <trkpt lat="44.60367" lon="3.20604">
        <ele>1185.44</ele>
        <time>2014-06-28T09:59:21Z</time>
      </trkpt>
      <trkpt lat="44.60347" lon="3.20604">
        <ele>1183.52</ele>
        <time>2014-06-28T09:59:37Z</time>
      </trkpt>
      <trkpt lat="44.60325" lon="3.20614">
        <ele>1182.56</ele>
        <time>2014-06-28T09:59:57Z</time>
      </trkpt>
      <trkpt lat="44.60309" lon="3.20625">
        <ele>1181.6</ele>
        <time>2014-06-28T10:00:11Z</time>
      </trkpt>
      <trkpt lat="44.60291" lon="3.20629">
        <ele>1180.64</ele>
        <time>2014-06-28T10:00:27Z</time>
      </trkpt>
      <trkpt lat="44.6027" lon="3.20632">
        <ele>1179.19</ele>
        <time>2014-06-28T10:00:43Z</time>
      </trkpt>
      <trkpt lat="44.6027" lon="3.20632">
        <ele>1179.19</ele>
        <time>2014-06-28T10:00:46Z</time>
      </trkpt>
      <trkpt lat="44.60269" lon="3.20632">
        <ele>1179.19</ele>
        <time>2014-06-28T10:00:47Z</time>
      </trkpt>
      <trkpt lat="44.60267" lon="3.20633">
        <ele>1179.19</ele>
        <time>2014-06-28T10:00:48Z</time>
      </trkpt>
      <trkpt lat="44.60259" lon="3.20638">
        <ele>1179.19</ele>
        <time>2014-06-28T10:00:55Z</time>
      </trkpt>
      <trkpt lat="44.60258" lon="3.20639">
        <ele>1177.27</ele>
        <time>2014-06-28T10:00:56Z</time>
      </trkpt>
      <trkpt lat="44.60258" lon="3.20639">
        <ele>1178.71</ele>
        <time>2014-06-28T10:00:57Z</time>
      </trkpt>
      <trkpt lat="44.60256" lon="3.20639">
        <ele>1178.71</ele>
        <time>2014-06-28T10:00:59Z</time>
      </trkpt>
      <trkpt lat="44.60252" lon="3.20635">
        <ele>1178.71</ele>
        <time>2014-06-28T10:01:04Z</time>
      </trkpt>
      <trkpt lat="44.60252" lon="3.20633">
        <ele>1178.71</ele>
        <time>2014-06-28T10:01:05Z</time>
      </trkpt>
      <trkpt lat="44.60252" lon="3.20632">
        <ele>1178.71</ele>
        <time>2014-06-28T10:01:06Z</time>
      </trkpt>
      <trkpt lat="44.60251" lon="3.20631">
        <ele>1178.71</ele>
        <time>2014-06-28T10:01:07Z</time>
      </trkpt>
      <trkpt lat="44.60251" lon="3.20629">
        <ele>1178.71</ele>
        <time>2014-06-28T10:01:08Z</time>
      </trkpt>
      <trkpt lat="44.6025" lon="3.20628">
        <ele>1178.71</ele>
        <time>2014-06-28T10:01:09Z</time>
      </trkpt>
      <trkpt lat="44.60247" lon="3.20616">
        <ele>1177.75</ele>
        <time>2014-06-28T10:01:17Z</time>
      </trkpt>
      <trkpt lat="44.60247" lon="3.20614">
        <ele>1177.27</ele>
        <time>2014-06-28T10:01:18Z</time>
      </trkpt>
      <trkpt lat="44.60247" lon="3.20612">
        <ele>1177.27</ele>
        <time>2014-06-28T10:01:19Z</time>
      </trkpt>
      <trkpt lat="44.60246" lon="3.20611">
        <ele>1176.79</ele>
        <time>2014-06-28T10:01:20Z</time>
      </trkpt>
      <trkpt lat="44.60246" lon="3.20609">
        <ele>1176.79</ele>
        <time>2014-06-28T10:01:21Z</time>
      </trkpt>
      <trkpt lat="44.60246" lon="3.20607">
        <ele>1176.79</ele>
        <time>2014-06-28T10:01:22Z</time>
      </trkpt>
      <trkpt lat="44.60239" lon="3.20582">
        <ele>1176.31</ele>
        <time>2014-06-28T10:01:39Z</time>
      </trkpt>
      <trkpt lat="44.60236" lon="3.20571">
        <ele>1175.83</ele>
        <time>2014-06-28T10:01:47Z</time>
      </trkpt>
      <trkpt lat="44.60228" lon="3.2055">
        <ele>1176.31</ele>
        <time>2014-06-28T10:02:01Z</time>
      </trkpt>
      <trkpt lat="44.60227" lon="3.20548">
        <ele>1174.87</ele>
        <time>2014-06-28T10:02:02Z</time>
      </trkpt>
      <trkpt lat="44.60227" lon="3.20547">
        <ele>1174.87</ele>
        <time>2014-06-28T10:02:03Z</time>
      </trkpt>
      <trkpt lat="44.60224" lon="3.20537">
        <ele>1174.39</ele>
        <time>2014-06-28T10:02:10Z</time>
      </trkpt>
      <trkpt lat="44.60223" lon="3.20536">
        <ele>1174.39</ele>
        <time>2014-06-28T10:02:11Z</time>
      </trkpt>
      <trkpt lat="44.60221" lon="3.20522">
        <ele>1174.39</ele>
        <time>2014-06-28T10:02:23Z</time>
      </trkpt>
      <trkpt lat="44.60217" lon="3.205">
        <ele>1173.43</ele>
        <time>2014-06-28T10:02:36Z</time>
      </trkpt>
      <trkpt lat="44.60217" lon="3.20491">
        <ele>1173.43</ele>
        <time>2014-06-28T10:02:41Z</time>
      </trkpt>
      <trkpt lat="44.60215" lon="3.20487">
        <ele>1173.43</ele>
        <time>2014-06-28T10:02:44Z</time>
      </trkpt>
      <trkpt lat="44.60213" lon="3.20486">
        <ele>1173.43</ele>
        <time>2014-06-28T10:02:46Z</time>
      </trkpt>
      <trkpt lat="44.60211" lon="3.20485">
        <ele>1172.95</ele>
        <time>2014-06-28T10:02:47Z</time>
      </trkpt>
      <trkpt lat="44.60195" lon="3.20479">
        <ele>1171.02</ele>
        <time>2014-06-28T10:03:01Z</time>
      </trkpt>
      <trkpt lat="44.60174" lon="3.20475">
        <ele>1169.58</ele>
        <time>2014-06-28T10:03:18Z</time>
      </trkpt>
      <trkpt lat="44.60166" lon="3.20473">
        <ele>1169.1</ele>
        <time>2014-06-28T10:03:24Z</time>
      </trkpt>
      <trkpt lat="44.60165" lon="3.20472">
        <ele>1168.62</ele>
        <time>2014-06-28T10:03:25Z</time>
      </trkpt>
      <trkpt lat="44.60164" lon="3.20471">
        <ele>1168.62</ele>
        <time>2014-06-28T10:03:26Z</time>
      </trkpt>
      <trkpt lat="44.6015" lon="3.20462">
        <ele>1167.66</ele>
        <time>2014-06-28T10:03:38Z</time>
      </trkpt>
      <trkpt lat="44.60149" lon="3.20462">
        <ele>1167.66</ele>
        <time>2014-06-28T10:03:39Z</time>
      </trkpt>
      <trkpt lat="44.6013" lon="3.20446">
        <ele>1167.18</ele>
        <time>2014-06-28T10:03:55Z</time>
      </trkpt>
      <trkpt lat="44.60111" lon="3.20431">
        <ele>1166.7</ele>
        <time>2014-06-28T10:04:11Z</time>
      </trkpt>
      <trkpt lat="44.60088" lon="3.20423">
        <ele>1167.18</ele>
        <time>2014-06-28T10:04:29Z</time>
      </trkpt>
      <trkpt lat="44.60067" lon="3.20422">
        <ele>1166.7</ele>
        <time>2014-06-28T10:04:46Z</time>
      </trkpt>
      <trkpt lat="44.60047" lon="3.20417">
        <ele>1165.74</ele>
        <time>2014-06-28T10:05:02Z</time>
      </trkpt>
      <trkpt lat="44.60043" lon="3.20413">
        <ele>1167.18</ele>
        <time>2014-06-28T10:05:06Z</time>
      </trkpt>
      <trkpt lat="44.60024" lon="3.204">
        <ele>1167.18</ele>
        <time>2014-06-28T10:05:23Z</time>
      </trkpt>
      <trkpt lat="44.60023" lon="3.20399">
        <ele>1167.18</ele>
        <time>2014-06-28T10:05:24Z</time>
      </trkpt>
      <trkpt lat="44.6002" lon="3.20398">
        <ele>1167.18</ele>
        <time>2014-06-28T10:05:27Z</time>
      </trkpt>
      <trkpt lat="44.60019" lon="3.20397">
        <ele>1167.18</ele>
        <time>2014-06-28T10:05:28Z</time>
      </trkpt>
      <trkpt lat="44.60016" lon="3.20394">
        <ele>1167.18</ele>
        <time>2014-06-28T10:05:31Z</time>
      </trkpt>
      <trkpt lat="44.60013" lon="3.20392">
        <ele>1167.18</ele>
        <time>2014-06-28T10:05:33Z</time>
      </trkpt>
      <trkpt lat="44.60012" lon="3.20392">
        <ele>1167.18</ele>
        <time>2014-06-28T10:05:34Z</time>
      </trkpt>
      <trkpt lat="44.59995" lon="3.20383">
        <ele>1167.18</ele>
        <time>2014-06-28T10:05:48Z</time>
      </trkpt>
      <trkpt lat="44.59994" lon="3.20381">
        <ele>1167.18</ele>
        <time>2014-06-28T10:05:49Z</time>
      </trkpt>
      <trkpt lat="44.59993" lon="3.2038">
        <ele>1167.18</ele>
        <time>2014-06-28T10:05:50Z</time>
      </trkpt>
      <trkpt lat="44.59992" lon="3.20379">
        <ele>1167.18</ele>
        <time>2014-06-28T10:05:51Z</time>
      </trkpt>
      <trkpt lat="44.59991" lon="3.20378">
        <ele>1168.62</ele>
        <time>2014-06-28T10:05:52Z</time>
      </trkpt>
      <trkpt lat="44.59989" lon="3.20378">
        <ele>1168.62</ele>
        <time>2014-06-28T10:05:53Z</time>
      </trkpt>
      <trkpt lat="44.59982" lon="3.20369">
        <ele>1168.62</ele>
        <time>2014-06-28T10:06:01Z</time>
      </trkpt>
      <trkpt lat="44.59981" lon="3.20368">
        <ele>1168.62</ele>
        <time>2014-06-28T10:06:02Z</time>
      </trkpt>
      <trkpt lat="44.59968" lon="3.20356">
        <ele>1169.58</ele>
        <time>2014-06-28T10:06:17Z</time>
      </trkpt>
      <trkpt lat="44.59956" lon="3.20343">
        <ele>1169.58</ele>
        <time>2014-06-28T10:06:29Z</time>
      </trkpt>
      <trkpt lat="44.59953" lon="3.20339">
        <ele>1170.54</ele>
        <time>2014-06-28T10:06:33Z</time>
      </trkpt>
      <trkpt lat="44.59951" lon="3.20336">
        <ele>1171.02</ele>
        <time>2014-06-28T10:06:36Z</time>
      </trkpt>
      <trkpt lat="44.59939" lon="3.20319">
        <ele>1171.98</ele>
        <time>2014-06-28T10:06:52Z</time>
      </trkpt>
      <trkpt lat="44.59928" lon="3.20304">
        <ele>1172.95</ele>
        <time>2014-06-28T10:07:06Z</time>
      </trkpt>
      <trkpt lat="44.59924" lon="3.20298">
        <ele>1174.39</ele>
        <time>2014-06-28T10:07:25Z</time>
      </trkpt>
      <trkpt lat="44.59925" lon="3.2029">
        <ele>1174.39</ele>
        <time>2014-06-28T10:07:32Z</time>
      </trkpt>
      <trkpt lat="44.59924" lon="3.2027">
        <ele>1175.35</ele>
        <time>2014-06-28T10:07:47Z</time>
      </trkpt>
      <trkpt lat="44.59923" lon="3.20266">
        <ele>1176.79</ele>
        <time>2014-06-28T10:08:04Z</time>
      </trkpt>
      <trkpt lat="44.59923" lon="3.2027">
        <ele>1176.79</ele>
        <time>2014-06-28T10:08:27Z</time>
      </trkpt>
      <trkpt lat="44.59921" lon="3.20268">
        <ele>1175.83</ele>
        <time>2014-06-28T10:08:38Z</time>
      </trkpt>
      <trkpt lat="44.59923" lon="3.20269">
        <ele>1175.35</ele>
        <time>2014-06-28T10:08:51Z</time>
      </trkpt>
      <trkpt lat="44.5992" lon="3.20271">
        <ele>1175.35</ele>
        <time>2014-06-28T10:09:17Z</time>
      </trkpt>
      <trkpt lat="44.59921" lon="3.20269">
        <ele>1175.35</ele>
        <time>2014-06-28T10:09:48Z</time>
      </trkpt>
      <trkpt lat="44.59923" lon="3.20267">
        <ele>1175.35</ele>
        <time>2014-06-28T10:10:29Z</time>
      </trkpt>
      <trkpt lat="44.59925" lon="3.20268">
        <ele>1175.35</ele>
        <time>2014-06-28T10:10:58Z</time>
      </trkpt>
      <trkpt lat="44.59927" lon="3.20265">
        <ele>1175.35</ele>
        <time>2014-06-28T10:11:31Z</time>
      </trkpt>
      <trkpt lat="44.59926" lon="3.20265">
        <ele>1175.35</ele>
        <time>2014-06-28T10:12:01Z</time>
      </trkpt>
      <trkpt lat="44.59928" lon="3.20266">
        <ele>1174.87</ele>
        <time>2014-06-28T10:12:37Z</time>
      </trkpt>
      <trkpt lat="44.59926" lon="3.20266">
        <ele>1174.87</ele>
        <time>2014-06-28T10:13:15Z</time>
      </trkpt>
      <trkpt lat="44.59928" lon="3.20265">
        <ele>1176.31</ele>
        <time>2014-06-28T10:13:50Z</time>
      </trkpt>
      <trkpt lat="44.59925" lon="3.20265">
        <ele>1176.31</ele>
        <time>2014-06-28T10:14:25Z</time>
      </trkpt>
      <trkpt lat="44.59925" lon="3.20265">
        <ele>1175.83</ele>
        <time>2014-06-28T10:14:55Z</time>
      </trkpt>
      <trkpt lat="44.59924" lon="3.20264">
        <ele>1175.83</ele>
        <time>2014-06-28T10:15:26Z</time>
      </trkpt>
      <trkpt lat="44.59924" lon="3.20264">
        <ele>1175.83</ele>
        <time>2014-06-28T10:15:59Z</time>
      </trkpt>
      <trkpt lat="44.59926" lon="3.20266">
        <ele>1175.83</ele>
        <time>2014-06-28T10:16:32Z</time>
      </trkpt>
      <trkpt lat="44.59925" lon="3.20268">
        <ele>1175.83</ele>
        <time>2014-06-28T10:17:11Z</time>
      </trkpt>
      <trkpt lat="44.59923" lon="3.20268">
        <ele>1175.83</ele>
        <time>2014-06-28T10:17:45Z</time>
      </trkpt>
      <trkpt lat="44.59923" lon="3.20267">
        <ele>1175.83</ele>
        <time>2014-06-28T10:18:20Z</time>
      </trkpt>
      <trkpt lat="44.59923" lon="3.20268">
        <ele>1175.83</ele>
        <time>2014-06-28T10:18:53Z</time>
      </trkpt>
      <trkpt lat="44.59921" lon="3.20271">
        <ele>1174.39</ele>
        <time>2014-06-28T10:19:34Z</time>
      </trkpt>
      <trkpt lat="44.59923" lon="3.20269">
        <ele>1174.39</ele>
        <time>2014-06-28T10:20:05Z</time>
      </trkpt>
      <trkpt lat="44.59922" lon="3.2027">
        <ele>1174.39</ele>
        <time>2014-06-28T10:20:32Z</time>
      </trkpt>
      <trkpt lat="44.59923" lon="3.20271">
        <ele>1173.91</ele>
        <time>2014-06-28T10:21:02Z</time>
      </trkpt>
      <trkpt lat="44.59922" lon="3.20272">
        <ele>1173.43</ele>
        <time>2014-06-28T10:21:30Z</time>
      </trkpt>
      <trkpt lat="44.59921" lon="3.20273">
        <ele>1173.43</ele>
        <time>2014-06-28T10:22:05Z</time>
      </trkpt>
      <trkpt lat="44.59923" lon="3.20269">
        <ele>1173.43</ele>
        <time>2014-06-28T10:22:50Z</time>
      </trkpt>
      <trkpt lat="44.59922" lon="3.20267">
        <ele>1173.43</ele>
        <time>2014-06-28T10:23:23Z</time>
      </trkpt>
      <trkpt lat="44.59925" lon="3.20265">
        <ele>1173.43</ele>
        <time>2014-06-28T10:23:57Z</time>
      </trkpt>
      <trkpt lat="44.59925" lon="3.20265">
        <ele>1173.43</ele>
        <time>2014-06-28T10:24:32Z</time>
      </trkpt>
      <trkpt lat="44.59924" lon="3.20264">
        <ele>1173.43</ele>
        <time>2014-06-28T10:25:10Z</time>
      </trkpt>
      <trkpt lat="44.59923" lon="3.20267">
        <ele>1173.43</ele>
        <time>2014-06-28T10:25:56Z</time>
      </trkpt>
      <trkpt lat="44.59923" lon="3.2027">
        <ele>1173.43</ele>
        <time>2014-06-28T10:26:32Z</time>
      </trkpt>
      <trkpt lat="44.59923" lon="3.20271">
        <ele>1173.43</ele>
        <time>2014-06-28T10:27:17Z</time>
      </trkpt>
      <trkpt lat="44.59923" lon="3.2027">
        <ele>1173.43</ele>
        <time>2014-06-28T10:27:58Z</time>
      </trkpt>
      <trkpt lat="44.59924" lon="3.20268">
        <ele>1173.43</ele>
        <time>2014-06-28T10:28:34Z</time>
      </trkpt>
      <trkpt lat="44.59925" lon="3.20271">
        <ele>1173.43</ele>
        <time>2014-06-28T10:29:13Z</time>
      </trkpt>
      <trkpt lat="44.59927" lon="3.20268">
        <ele>1173.43</ele>
        <time>2014-06-28T10:29:45Z</time>
      </trkpt>
      <trkpt lat="44.59928" lon="3.20267">
        <ele>1173.43</ele>
        <time>2014-06-28T10:30:20Z</time>
      </trkpt>
      <trkpt lat="44.59926" lon="3.20267">
        <ele>1174.87</ele>
        <time>2014-06-28T10:30:51Z</time>
      </trkpt>
      <trkpt lat="44.59924" lon="3.20264">
        <ele>1174.87</ele>
        <time>2014-06-28T10:31:29Z</time>
      </trkpt>
      <trkpt lat="44.59927" lon="3.20261">
        <ele>1174.87</ele>
        <time>2014-06-28T10:32:07Z</time>
      </trkpt>
      <trkpt lat="44.59929" lon="3.20263">
        <ele>1175.35</ele>
        <time>2014-06-28T10:32:45Z</time>
      </trkpt>
      <trkpt lat="44.59927" lon="3.20264">
        <ele>1175.35</ele>
        <time>2014-06-28T10:33:16Z</time>
      </trkpt>
      <trkpt lat="44.59922" lon="3.20267">
        <ele>1176.31</ele>
        <time>2014-06-28T10:33:48Z</time>
      </trkpt>
      <trkpt lat="44.59922" lon="3.20268">
        <ele>1176.31</ele>
        <time>2014-06-28T10:34:24Z</time>
      </trkpt>
      <trkpt lat="44.59923" lon="3.20271">
        <ele>1176.31</ele>
        <time>2014-06-28T10:35:02Z</time>
      </trkpt>
      <trkpt lat="44.59923" lon="3.20271">
        <ele>1175.35</ele>
        <time>2014-06-28T10:35:39Z</time>
      </trkpt>
      <trkpt lat="44.59924" lon="3.2027">
        <ele>1175.35</ele>
        <time>2014-06-28T10:36:12Z</time>
      </trkpt>
      <trkpt lat="44.59924" lon="3.2027">
        <ele>1175.83</ele>
        <time>2014-06-28T10:36:49Z</time>
      </trkpt>
      <trkpt lat="44.59922" lon="3.20271">
        <ele>1175.83</ele>
        <time>2014-06-28T10:37:21Z</time>
      </trkpt>
      <trkpt lat="44.59924" lon="3.20266">
        <ele>1175.83</ele>
        <time>2014-06-28T10:38:01Z</time>
      </trkpt>
      <trkpt lat="44.59927" lon="3.20266">
        <ele>1175.83</ele>
        <time>2014-06-28T10:38:39Z</time>
      </trkpt>
      <trkpt lat="44.59924" lon="3.20268">
        <ele>1177.27</ele>
        <time>2014-06-28T10:39:17Z</time>
      </trkpt>
      <trkpt lat="44.59924" lon="3.20268">
        <ele>1177.27</ele>
        <time>2014-06-28T10:39:50Z</time>
      </trkpt>
      <trkpt lat="44.59924" lon="3.20266">
        <ele>1177.27</ele>
        <time>2014-06-28T10:40:29Z</time>
      </trkpt>
      <trkpt lat="44.59924" lon="3.20265">
        <ele>1177.27</ele>
        <time>2014-06-28T10:41:04Z</time>
      </trkpt>
      <trkpt lat="44.59926" lon="3.20265">
        <ele>1177.75</ele>
        <time>2014-06-28T10:41:43Z</time>
      </trkpt>
      <trkpt lat="44.59926" lon="3.20267">
        <ele>1178.23</ele>
        <time>2014-06-28T10:42:15Z</time>
      </trkpt>
      <trkpt lat="44.59923" lon="3.20269">
        <ele>1178.23</ele>
        <time>2014-06-28T10:42:55Z</time>
      </trkpt>
      <trkpt lat="44.59923" lon="3.20268">
        <ele>1178.71</ele>
        <time>2014-06-28T10:43:30Z</time>
      </trkpt>
      <trkpt lat="44.59923" lon="3.20267">
        <ele>1178.71</ele>
        <time>2014-06-28T10:44:05Z</time>
      </trkpt>
      <trkpt lat="44.59925" lon="3.20266">
        <ele>1178.71</ele>
        <time>2014-06-28T10:44:26Z</time>
      </trkpt>
      <trkpt lat="44.59926" lon="3.20266">
        <ele>1179.19</ele>
        <time>2014-06-28T10:44:55Z</time>
      </trkpt>
      <trkpt lat="44.59923" lon="3.20268">
        <ele>1178.23</ele>
        <time>2014-06-28T10:45:11Z</time>
      </trkpt>
      <trkpt lat="44.59924" lon="3.20266">
        <ele>1178.23</ele>
        <time>2014-06-28T10:45:45Z</time>
      </trkpt>
      <trkpt lat="44.59925" lon="3.20266">
        <ele>1178.71</ele>
        <time>2014-06-28T10:46:10Z</time>
      </trkpt>
      <trkpt lat="44.59922" lon="3.20269">
        <ele>1178.71</ele>
        <time>2014-06-28T10:46:32Z</time>
      </trkpt>
      <trkpt lat="44.59925" lon="3.20271">
        <ele>1178.71</ele>
        <time>2014-06-28T10:47:04Z</time>
      </trkpt>
      <trkpt lat="44.59925" lon="3.20271">
        <ele>1177.75</ele>
        <time>2014-06-28T10:47:06Z</time>
      </trkpt>
      <trkpt lat="44.59924" lon="3.20271">
        <ele>1177.75</ele>
        <time>2014-06-28T10:47:39Z</time>
      </trkpt>
      <trkpt lat="44.59926" lon="3.20275">
        <ele>1177.75</ele>
        <time>2014-06-28T10:48:11Z</time>
      </trkpt>
      <trkpt lat="44.59925" lon="3.20273">
        <ele>1179.19</ele>
        <time>2014-06-28T10:48:34Z</time>
      </trkpt>
      <trkpt lat="44.59925" lon="3.20272">
        <ele>1179.19</ele>
        <time>2014-06-28T10:48:52Z</time>
      </trkpt>
      <trkpt lat="44.59922" lon="3.20272">
        <ele>1179.19</ele>
        <time>2014-06-28T10:49:14Z</time>
      </trkpt>
      <trkpt lat="44.59919" lon="3.20273">
        <ele>1179.19</ele>
        <time>2014-06-28T10:49:35Z</time>
      </trkpt>
      <trkpt lat="44.59928" lon="3.20275">
        <ele>1179.19</ele>
        <time>2014-06-28T10:49:53Z</time>
      </trkpt>
      <trkpt lat="44.59929" lon="3.20279">
        <ele>1177.75</ele>
        <time>2014-06-28T10:49:57Z</time>
      </trkpt>
      <trkpt lat="44.59929" lon="3.2028">
        <ele>1177.75</ele>
        <time>2014-06-28T10:49:58Z</time>
      </trkpt>
      <trkpt lat="44.59929" lon="3.20282">
        <ele>1176.79</ele>
        <time>2014-06-28T10:50:00Z</time>
      </trkpt>
      <trkpt lat="44.59931" lon="3.20284">
        <ele>1177.75</ele>
        <time>2014-06-28T10:50:03Z</time>
      </trkpt>
      <trkpt lat="44.59924" lon="3.20293">
        <ele>1176.79</ele>
        <time>2014-06-28T10:50:17Z</time>
      </trkpt>
      <trkpt lat="44.59918" lon="3.20288">
        <ele>1178.23</ele>
        <time>2014-06-28T10:50:24Z</time>
      </trkpt>
      <trkpt lat="44.5991" lon="3.20275">
        <ele>1180.64</ele>
        <time>2014-06-28T10:50:41Z</time>
      </trkpt>
      <trkpt lat="44.59903" lon="3.20266">
        <ele>1182.08</ele>
        <time>2014-06-28T10:50:52Z</time>
      </trkpt>
      <trkpt lat="44.59894" lon="3.20256">
        <ele>1183.52</ele>
        <time>2014-06-28T10:51:07Z</time>
      </trkpt>
      <trkpt lat="44.59886" lon="3.20247">
        <ele>1185.44</ele>
        <time>2014-06-28T10:51:22Z</time>
      </trkpt>
      <trkpt lat="44.59879" lon="3.20238">
        <ele>1186.4</ele>
        <time>2014-06-28T10:51:34Z</time>
      </trkpt>
      <trkpt lat="44.59876" lon="3.20227">
        <ele>1188.33</ele>
        <time>2014-06-28T10:51:49Z</time>
      </trkpt>
      <trkpt lat="44.59864" lon="3.20214">
        <ele>1188.81</ele>
        <time>2014-06-28T10:52:01Z</time>
      </trkpt>
      <trkpt lat="44.59856" lon="3.20202">
        <ele>1191.21</ele>
        <time>2014-06-28T10:52:13Z</time>
      </trkpt>
      <trkpt lat="44.59849" lon="3.20191">
        <ele>1192.65</ele>
        <time>2014-06-28T10:52:26Z</time>
      </trkpt>
      <trkpt lat="44.5984" lon="3.20183">
        <ele>1193.13</ele>
        <time>2014-06-28T10:52:36Z</time>
      </trkpt>
      <trkpt lat="44.59829" lon="3.20171">
        <ele>1194.58</ele>
        <time>2014-06-28T10:52:49Z</time>
      </trkpt>
      <trkpt lat="44.59817" lon="3.20158">
        <ele>1196.5</ele>
        <time>2014-06-28T10:53:04Z</time>
      </trkpt>
      <trkpt lat="44.59806" lon="3.20142">
        <ele>1198.42</ele>
        <time>2014-06-28T10:53:19Z</time>
      </trkpt>
      <trkpt lat="44.59797" lon="3.20127">
        <ele>1199.38</ele>
        <time>2014-06-28T10:53:33Z</time>
      </trkpt>
      <trkpt lat="44.59791" lon="3.20118">
        <ele>1199.38</ele>
        <time>2014-06-28T10:53:42Z</time>
      </trkpt>
      <trkpt lat="44.5978" lon="3.20106">
        <ele>1200.82</ele>
        <time>2014-06-28T10:53:56Z</time>
      </trkpt>
      <trkpt lat="44.59766" lon="3.20092">
        <ele>1202.27</ele>
        <time>2014-06-28T10:54:11Z</time>
      </trkpt>
      <trkpt lat="44.59755" lon="3.20076">
        <ele>1202.75</ele>
        <time>2014-06-28T10:54:22Z</time>
      </trkpt>
      <trkpt lat="44.59749" lon="3.20064">
        <ele>1205.15</ele>
        <time>2014-06-28T10:54:33Z</time>
      </trkpt>
      <trkpt lat="44.59744" lon="3.20045">
        <ele>1207.07</ele>
        <time>2014-06-28T10:54:49Z</time>
      </trkpt>
      <trkpt lat="44.5974" lon="3.20029">
        <ele>1208.03</ele>
        <time>2014-06-28T10:55:02Z</time>
      </trkpt>
      <trkpt lat="44.59735" lon="3.20009">
        <ele>1209.96</ele>
        <time>2014-06-28T10:55:17Z</time>
      </trkpt>
      <trkpt lat="44.59732" lon="3.19983">
        <ele>1210.92</ele>
        <time>2014-06-28T10:55:33Z</time>
      </trkpt>
      <trkpt lat="44.59725" lon="3.19961">
        <ele>1211.88</ele>
        <time>2014-06-28T10:55:49Z</time>
      </trkpt>
      <trkpt lat="44.59719" lon="3.19942">
        <ele>1213.8</ele>
        <time>2014-06-28T10:56:04Z</time>
      </trkpt>
      <trkpt lat="44.59717" lon="3.19918">
        <ele>1216.21</ele>
        <time>2014-06-28T10:56:21Z</time>
      </trkpt>
      <trkpt lat="44.59719" lon="3.19899">
        <ele>1217.17</ele>
        <time>2014-06-28T10:56:36Z</time>
      </trkpt>
      <trkpt lat="44.59723" lon="3.19879">
        <ele>1218.61</ele>
        <time>2014-06-28T10:56:52Z</time>
      </trkpt>
      <trkpt lat="44.59727" lon="3.1986">
        <ele>1219.57</ele>
        <time>2014-06-28T10:57:05Z</time>
      </trkpt>
      <trkpt lat="44.59736" lon="3.19839">
        <ele>1221.97</ele>
        <time>2014-06-28T10:57:23Z</time>
      </trkpt>
      <trkpt lat="44.5974" lon="3.19819">
        <ele>1223.42</ele>
        <time>2014-06-28T10:57:39Z</time>
      </trkpt>
      <trkpt lat="44.59744" lon="3.19789">
        <ele>1226.3</ele>
        <time>2014-06-28T10:57:56Z</time>
      </trkpt>
      <trkpt lat="44.59741" lon="3.1977">
        <ele>1228.7</ele>
        <time>2014-06-28T10:58:12Z</time>
      </trkpt>
      <trkpt lat="44.59737" lon="3.19758">
        <ele>1230.62</ele>
        <time>2014-06-28T10:58:22Z</time>
      </trkpt>
      <trkpt lat="44.59728" lon="3.19734">
        <ele>1233.03</ele>
        <time>2014-06-28T10:58:42Z</time>
      </trkpt>
      <trkpt lat="44.59725" lon="3.1972">
        <ele>1234.47</ele>
        <time>2014-06-28T10:58:54Z</time>
      </trkpt>
      <trkpt lat="44.59724" lon="3.19719">
        <ele>1234.47</ele>
        <time>2014-06-28T10:58:55Z</time>
      </trkpt>
      <trkpt lat="44.59717" lon="3.19708">
        <ele>1236.39</ele>
        <time>2014-06-28T10:59:08Z</time>
      </trkpt>
      <trkpt lat="44.59709" lon="3.19693">
        <ele>1237.35</ele>
        <time>2014-06-28T10:59:22Z</time>
      </trkpt>
      <trkpt lat="44.597" lon="3.19682">
        <ele>1237.35</ele>
        <time>2014-06-28T10:59:35Z</time>
      </trkpt>
      <trkpt lat="44.59699" lon="3.1968">
        <ele>1237.35</ele>
        <time>2014-06-28T10:59:37Z</time>
      </trkpt>
      <trkpt lat="44.59688" lon="3.19672">
        <ele>1238.32</ele>
        <time>2014-06-28T10:59:50Z</time>
      </trkpt>
      <trkpt lat="44.59677" lon="3.19662">
        <ele>1238.8</ele>
        <time>2014-06-28T11:00:03Z</time>
      </trkpt>
      <trkpt lat="44.59665" lon="3.19657">
        <ele>1239.76</ele>
        <time>2014-06-28T11:00:15Z</time>
      </trkpt>
      <trkpt lat="44.5965" lon="3.19656">
        <ele>1241.2</ele>
        <time>2014-06-28T11:00:30Z</time>
      </trkpt>
      <trkpt lat="44.59647" lon="3.19656">
        <ele>1241.2</ele>
        <time>2014-06-28T11:00:32Z</time>
      </trkpt>
      <trkpt lat="44.59631" lon="3.19659">
        <ele>1241.68</ele>
        <time>2014-06-28T11:00:47Z</time>
      </trkpt>
      <trkpt lat="44.59628" lon="3.19659">
        <ele>1241.68</ele>
        <time>2014-06-28T11:00:50Z</time>
      </trkpt>
      <trkpt lat="44.59614" lon="3.19647">
        <ele>1241.68</ele>
        <time>2014-06-28T11:01:04Z</time>
      </trkpt>
      <trkpt lat="44.59612" lon="3.19644">
        <ele>1241.68</ele>
        <time>2014-06-28T11:01:06Z</time>
      </trkpt>
      <trkpt lat="44.59601" lon="3.19629">
        <ele>1242.16</ele>
        <time>2014-06-28T11:01:18Z</time>
      </trkpt>
      <trkpt lat="44.59599" lon="3.19626">
        <ele>1242.16</ele>
        <time>2014-06-28T11:01:20Z</time>
      </trkpt>
      <trkpt lat="44.59595" lon="3.19621">
        <ele>1242.16</ele>
        <time>2014-06-28T11:01:24Z</time>
      </trkpt>
      <trkpt lat="44.59591" lon="3.19617">
        <ele>1242.64</ele>
        <time>2014-06-28T11:01:28Z</time>
      </trkpt>
      <trkpt lat="44.59582" lon="3.19607">
        <ele>1243.12</ele>
        <time>2014-06-28T11:01:38Z</time>
      </trkpt>
      <trkpt lat="44.59576" lon="3.19602">
        <ele>1243.6</ele>
        <time>2014-06-28T11:01:45Z</time>
      </trkpt>
      <trkpt lat="44.59571" lon="3.19598">
        <ele>1244.08</ele>
        <time>2014-06-28T11:01:51Z</time>
      </trkpt>
      <trkpt lat="44.59561" lon="3.19588">
        <ele>1245.04</ele>
        <time>2014-06-28T11:02:03Z</time>
      </trkpt>
      <trkpt lat="44.59554" lon="3.1958">
        <ele>1246.01</ele>
        <time>2014-06-28T11:02:13Z</time>
      </trkpt>
      <trkpt lat="44.5955" lon="3.19572">
        <ele>1247.45</ele>
        <time>2014-06-28T11:02:23Z</time>
      </trkpt>
      <trkpt lat="44.59545" lon="3.1957">
        <ele>1249.85</ele>
        <time>2014-06-28T11:02:33Z</time>
      </trkpt>
      <trkpt lat="44.59544" lon="3.19569">
        <ele>1248.41</ele>
        <time>2014-06-28T11:02:36Z</time>
      </trkpt>
      <trkpt lat="44.59539" lon="3.19563">
        <ele>1248.41</ele>
        <time>2014-06-28T11:02:47Z</time>
      </trkpt>
      <trkpt lat="44.59536" lon="3.1956">
        <ele>1249.37</ele>
        <time>2014-06-28T11:02:51Z</time>
      </trkpt>
      <trkpt lat="44.59527" lon="3.19549">
        <ele>1249.85</ele>
        <time>2014-06-28T11:03:03Z</time>
      </trkpt>
      <trkpt lat="44.59525" lon="3.19547">
        <ele>1249.85</ele>
        <time>2014-06-28T11:03:05Z</time>
      </trkpt>
      <trkpt lat="44.59518" lon="3.19539">
        <ele>1249.85</ele>
        <time>2014-06-28T11:03:14Z</time>
      </trkpt>
      <trkpt lat="44.59515" lon="3.19534">
        <ele>1250.33</ele>
        <time>2014-06-28T11:03:18Z</time>
      </trkpt>
      <trkpt lat="44.59507" lon="3.19526">
        <ele>1251.29</ele>
        <time>2014-06-28T11:03:30Z</time>
      </trkpt>
      <trkpt lat="44.59504" lon="3.19522">
        <ele>1251.29</ele>
        <time>2014-06-28T11:03:34Z</time>
      </trkpt>
      <trkpt lat="44.59493" lon="3.1951">
        <ele>1252.25</ele>
        <time>2014-06-28T11:03:48Z</time>
      </trkpt>
      <trkpt lat="44.59484" lon="3.19501">
        <ele>1250.81</ele>
        <time>2014-06-28T11:03:59Z</time>
      </trkpt>
      <trkpt lat="44.59481" lon="3.19497">
        <ele>1250.33</ele>
        <time>2014-06-28T11:04:03Z</time>
      </trkpt>
      <trkpt lat="44.59479" lon="3.19495">
        <ele>1251.77</ele>
        <time>2014-06-28T11:04:05Z</time>
      </trkpt>
      <trkpt lat="44.59478" lon="3.19493">
        <ele>1253.22</ele>
        <time>2014-06-28T11:04:07Z</time>
      </trkpt>
      <trkpt lat="44.59474" lon="3.19489">
        <ele>1252.25</ele>
        <time>2014-06-28T11:04:12Z</time>
      </trkpt>
      <trkpt lat="44.59471" lon="3.19485">
        <ele>1253.7</ele>
        <time>2014-06-28T11:04:15Z</time>
      </trkpt>
      <trkpt lat="44.59463" lon="3.19479">
        <ele>1254.18</ele>
        <time>2014-06-28T11:04:23Z</time>
      </trkpt>
      <trkpt lat="44.59451" lon="3.19464">
        <ele>1255.14</ele>
        <time>2014-06-28T11:04:37Z</time>
      </trkpt>
      <trkpt lat="44.5945" lon="3.19464">
        <ele>1255.14</ele>
        <time>2014-06-28T11:04:38Z</time>
      </trkpt>
      <trkpt lat="44.59446" lon="3.19459">
        <ele>1255.14</ele>
        <time>2014-06-28T11:04:43Z</time>
      </trkpt>
      <trkpt lat="44.59441" lon="3.19456">
        <ele>1255.14</ele>
        <time>2014-06-28T11:04:47Z</time>
      </trkpt>
      <trkpt lat="44.59436" lon="3.19451">
        <ele>1255.14</ele>
        <time>2014-06-28T11:04:53Z</time>
      </trkpt>
      <trkpt lat="44.59423" lon="3.19438">
        <ele>1257.06</ele>
        <time>2014-06-28T11:05:06Z</time>
      </trkpt>
      <trkpt lat="44.59412" lon="3.19426">
        <ele>1258.02</ele>
        <time>2014-06-28T11:05:19Z</time>
      </trkpt>
      <trkpt lat="44.59407" lon="3.1942">
        <ele>1258.5</ele>
        <time>2014-06-28T11:05:25Z</time>
      </trkpt>
      <trkpt lat="44.59403" lon="3.19416">
        <ele>1258.5</ele>
        <time>2014-06-28T11:05:29Z</time>
      </trkpt>
      <trkpt lat="44.5939" lon="3.19402">
        <ele>1259.94</ele>
        <time>2014-06-28T11:05:43Z</time>
      </trkpt>
      <trkpt lat="44.59383" lon="3.19394">
        <ele>1260.43</ele>
        <time>2014-06-28T11:05:50Z</time>
      </trkpt>
      <trkpt lat="44.59382" lon="3.19389">
        <ele>1260.43</ele>
        <time>2014-06-28T11:05:54Z</time>
      </trkpt>
      <trkpt lat="44.59374" lon="3.19364">
        <ele>1260.43</ele>
        <time>2014-06-28T11:06:12Z</time>
      </trkpt>
      <trkpt lat="44.59367" lon="3.19341">
        <ele>1260.43</ele>
        <time>2014-06-28T11:06:27Z</time>
      </trkpt>
      <trkpt lat="44.59367" lon="3.19338">
        <ele>1258.98</ele>
        <time>2014-06-28T11:06:29Z</time>
      </trkpt>
      <trkpt lat="44.59368" lon="3.19311">
        <ele>1258.02</ele>
        <time>2014-06-28T11:06:46Z</time>
      </trkpt>
      <trkpt lat="44.59369" lon="3.1929">
        <ele>1257.06</ele>
        <time>2014-06-28T11:07:00Z</time>
      </trkpt>
      <trkpt lat="44.59369" lon="3.19265">
        <ele>1256.58</ele>
        <time>2014-06-28T11:07:15Z</time>
      </trkpt>
      <trkpt lat="44.59372" lon="3.19242">
        <ele>1255.62</ele>
        <time>2014-06-28T11:07:29Z</time>
      </trkpt>
      <trkpt lat="44.59371" lon="3.19218">
        <ele>1255.14</ele>
        <time>2014-06-28T11:07:43Z</time>
      </trkpt>
      <trkpt lat="44.59372" lon="3.19213">
        <ele>1254.66</ele>
        <time>2014-06-28T11:07:46Z</time>
      </trkpt>
      <trkpt lat="44.59373" lon="3.19184">
        <ele>1253.22</ele>
        <time>2014-06-28T11:08:03Z</time>
      </trkpt>
      <trkpt lat="44.59374" lon="3.1916">
        <ele>1252.25</ele>
        <time>2014-06-28T11:08:17Z</time>
      </trkpt>
      <trkpt lat="44.59379" lon="3.1914">
        <ele>1250.81</ele>
        <time>2014-06-28T11:08:29Z</time>
      </trkpt>
      <trkpt lat="44.59373" lon="3.19107">
        <ele>1249.85</ele>
        <time>2014-06-28T11:08:47Z</time>
      </trkpt>
      <trkpt lat="44.59372" lon="3.19102">
        <ele>1249.85</ele>
        <time>2014-06-28T11:08:50Z</time>
      </trkpt>
      <trkpt lat="44.59368" lon="3.19077">
        <ele>1248.89</ele>
        <time>2014-06-28T11:09:04Z</time>
      </trkpt>
      <trkpt lat="44.59363" lon="3.19052">
        <ele>1247.93</ele>
        <time>2014-06-28T11:09:19Z</time>
      </trkpt>
      <trkpt lat="44.59367" lon="3.19024">
        <ele>1246.97</ele>
        <time>2014-06-28T11:09:34Z</time>
      </trkpt>
      <trkpt lat="44.59366" lon="3.18993">
        <ele>1246.97</ele>
        <time>2014-06-28T11:09:51Z</time>
      </trkpt>
      <trkpt lat="44.59363" lon="3.18968">
        <ele>1245.53</ele>
        <time>2014-06-28T11:10:06Z</time>
      </trkpt>
      <trkpt lat="44.5936" lon="3.18957">
        <ele>1245.04</ele>
        <time>2014-06-28T11:10:13Z</time>
      </trkpt>
      <trkpt lat="44.59356" lon="3.18947">
        <ele>1244.08</ele>
        <time>2014-06-28T11:10:20Z</time>
      </trkpt>
      <trkpt lat="44.5935" lon="3.18925">
        <ele>1243.12</ele>
        <time>2014-06-28T11:10:33Z</time>
      </trkpt>
      <trkpt lat="44.59347" lon="3.18917">
        <ele>1242.64</ele>
        <time>2014-06-28T11:10:38Z</time>
      </trkpt>
      <trkpt lat="44.59337" lon="3.18899">
        <ele>1241.2</ele>
        <time>2014-06-28T11:10:51Z</time>
      </trkpt>
      <trkpt lat="44.59336" lon="3.18898">
        <ele>1241.2</ele>
        <time>2014-06-28T11:10:52Z</time>
      </trkpt>
      <trkpt lat="44.59334" lon="3.18893">
        <ele>1241.68</ele>
        <time>2014-06-28T11:10:56Z</time>
      </trkpt>
      <trkpt lat="44.59327" lon="3.18886">
        <ele>1243.12</ele>
        <time>2014-06-28T11:11:04Z</time>
      </trkpt>
      <trkpt lat="44.5932" lon="3.18878">
        <ele>1241.2</ele>
        <time>2014-06-28T11:11:11Z</time>
      </trkpt>
      <trkpt lat="44.59315" lon="3.18873">
        <ele>1241.68</ele>
        <time>2014-06-28T11:11:16Z</time>
      </trkpt>
      <trkpt lat="44.59302" lon="3.18857">
        <ele>1241.2</ele>
        <time>2014-06-28T11:11:31Z</time>
      </trkpt>
      <trkpt lat="44.59289" lon="3.18842">
        <ele>1241.2</ele>
        <time>2014-06-28T11:11:44Z</time>
      </trkpt>
      <trkpt lat="44.59285" lon="3.18837">
        <ele>1241.2</ele>
        <time>2014-06-28T11:11:48Z</time>
      </trkpt>
      <trkpt lat="44.59269" lon="3.18821">
        <ele>1241.2</ele>
        <time>2014-06-28T11:12:03Z</time>
      </trkpt>
      <trkpt lat="44.59261" lon="3.1881">
        <ele>1242.64</ele>
        <time>2014-06-28T11:12:12Z</time>
      </trkpt>
      <trkpt lat="44.59256" lon="3.18801">
        <ele>1242.64</ele>
        <time>2014-06-28T11:12:19Z</time>
      </trkpt>
      <trkpt lat="44.59243" lon="3.18784">
        <ele>1243.12</ele>
        <time>2014-06-28T11:12:33Z</time>
      </trkpt>
      <trkpt lat="44.59238" lon="3.18778">
        <ele>1243.6</ele>
        <time>2014-06-28T11:12:38Z</time>
      </trkpt>
      <trkpt lat="44.59236" lon="3.18777">
        <ele>1244.08</ele>
        <time>2014-06-28T11:12:40Z</time>
      </trkpt>
      <trkpt lat="44.59233" lon="3.1877">
        <ele>1245.04</ele>
        <time>2014-06-28T11:12:45Z</time>
      </trkpt>
      <trkpt lat="44.59224" lon="3.18757">
        <ele>1246.49</ele>
        <time>2014-06-28T11:12:59Z</time>
      </trkpt>
      <trkpt lat="44.59221" lon="3.18753">
        <ele>1246.49</ele>
        <time>2014-06-28T11:13:04Z</time>
      </trkpt>
      <trkpt lat="44.5921" lon="3.18741">
        <ele>1247.93</ele>
        <time>2014-06-28T11:13:18Z</time>
      </trkpt>
      <trkpt lat="44.59207" lon="3.18734">
        <ele>1248.41</ele>
        <time>2014-06-28T11:13:41Z</time>
      </trkpt>
      <trkpt lat="44.59197" lon="3.18724">
        <ele>1249.85</ele>
        <time>2014-06-28T11:13:54Z</time>
      </trkpt>
      <trkpt lat="44.59194" lon="3.18719">
        <ele>1250.81</ele>
        <time>2014-06-28T11:14:11Z</time>
      </trkpt>
      <trkpt lat="44.59191" lon="3.18715">
        <ele>1250.81</ele>
        <time>2014-06-28T11:14:16Z</time>
      </trkpt>
      <trkpt lat="44.59179" lon="3.187">
        <ele>1252.25</ele>
        <time>2014-06-28T11:14:33Z</time>
      </trkpt>
      <trkpt lat="44.59166" lon="3.18687">
        <ele>1253.22</ele>
        <time>2014-06-28T11:14:48Z</time>
      </trkpt>
      <trkpt lat="44.59152" lon="3.18669">
        <ele>1254.66</ele>
        <time>2014-06-28T11:15:04Z</time>
      </trkpt>
      <trkpt lat="44.59141" lon="3.18652">
        <ele>1254.66</ele>
        <time>2014-06-28T11:15:18Z</time>
      </trkpt>
      <trkpt lat="44.59139" lon="3.18648">
        <ele>1252.74</ele>
        <time>2014-06-28T11:15:24Z</time>
      </trkpt>
      <trkpt lat="44.59137" lon="3.18646">
        <ele>1254.18</ele>
        <time>2014-06-28T11:15:26Z</time>
      </trkpt>
      <trkpt lat="44.59128" lon="3.18633">
        <ele>1252.74</ele>
        <time>2014-06-28T11:15:36Z</time>
      </trkpt>
      <trkpt lat="44.59118" lon="3.18617">
        <ele>1252.74</ele>
        <time>2014-06-28T11:15:51Z</time>
      </trkpt>
      <trkpt lat="44.59109" lon="3.18602">
        <ele>1251.29</ele>
        <time>2014-06-28T11:16:03Z</time>
      </trkpt>
      <trkpt lat="44.59101" lon="3.18591">
        <ele>1249.85</ele>
        <time>2014-06-28T11:16:12Z</time>
      </trkpt>
      <trkpt lat="44.59097" lon="3.18585">
        <ele>1250.81</ele>
        <time>2014-06-28T11:16:16Z</time>
      </trkpt>
      <trkpt lat="44.59094" lon="3.1858">
        <ele>1251.29</ele>
        <time>2014-06-28T11:16:20Z</time>
      </trkpt>
      <trkpt lat="44.59084" lon="3.18565">
        <ele>1251.29</ele>
        <time>2014-06-28T11:16:34Z</time>
      </trkpt>
      <trkpt lat="44.59083" lon="3.18564">
        <ele>1251.29</ele>
        <time>2014-06-28T11:16:35Z</time>
      </trkpt>
      <trkpt lat="44.5908" lon="3.18559">
        <ele>1249.85</ele>
        <time>2014-06-28T11:16:40Z</time>
      </trkpt>
      <trkpt lat="44.59076" lon="3.18542">
        <ele>1248.89</ele>
        <time>2014-06-28T11:16:54Z</time>
      </trkpt>
      <trkpt lat="44.59071" lon="3.18527">
        <ele>1247.93</ele>
        <time>2014-06-28T11:17:07Z</time>
      </trkpt>
      <trkpt lat="44.59062" lon="3.18499">
        <ele>1245.53</ele>
        <time>2014-06-28T11:17:25Z</time>
      </trkpt>
      <trkpt lat="44.59061" lon="3.18495">
        <ele>1245.04</ele>
        <time>2014-06-28T11:17:28Z</time>
      </trkpt>
      <trkpt lat="44.5906" lon="3.18491">
        <ele>1244.56</ele>
        <time>2014-06-28T11:17:31Z</time>
      </trkpt>
      <trkpt lat="44.59058" lon="3.18482">
        <ele>1243.6</ele>
        <time>2014-06-28T11:17:38Z</time>
      </trkpt>
      <trkpt lat="44.59057" lon="3.18466">
        <ele>1241.68</ele>
        <time>2014-06-28T11:17:48Z</time>
      </trkpt>
      <trkpt lat="44.59057" lon="3.18463">
        <ele>1241.2</ele>
        <time>2014-06-28T11:17:51Z</time>
      </trkpt>
      <trkpt lat="44.59056" lon="3.18446">
        <ele>1239.76</ele>
        <time>2014-06-28T11:18:02Z</time>
      </trkpt>
      <trkpt lat="44.59055" lon="3.1844">
        <ele>1238.8</ele>
        <time>2014-06-28T11:18:06Z</time>
      </trkpt>
      <trkpt lat="44.59055" lon="3.18434">
        <ele>1237.83</ele>
        <time>2014-06-28T11:18:10Z</time>
      </trkpt>
      <trkpt lat="44.5906" lon="3.1842">
        <ele>1236.87</ele>
        <time>2014-06-28T11:18:19Z</time>
      </trkpt>
      <trkpt lat="44.5906" lon="3.18403">
        <ele>1233.99</ele>
        <time>2014-06-28T11:18:29Z</time>
      </trkpt>
      <trkpt lat="44.59062" lon="3.18377">
        <ele>1232.07</ele>
        <time>2014-06-28T11:18:45Z</time>
      </trkpt>
      <trkpt lat="44.59055" lon="3.18353">
        <ele>1229.18</ele>
        <time>2014-06-28T11:19:00Z</time>
      </trkpt>
      <trkpt lat="44.59048" lon="3.18333">
        <ele>1227.74</ele>
        <time>2014-06-28T11:19:13Z</time>
      </trkpt>
      <trkpt lat="44.59045" lon="3.18314">
        <ele>1226.3</ele>
        <time>2014-06-28T11:19:25Z</time>
      </trkpt>
      <trkpt lat="44.59037" lon="3.18291">
        <ele>1223.42</ele>
        <time>2014-06-28T11:19:39Z</time>
      </trkpt>
      <trkpt lat="44.59026" lon="3.18266">
        <ele>1222.93</ele>
        <time>2014-06-28T11:19:55Z</time>
      </trkpt>
      <trkpt lat="44.59018" lon="3.18251">
        <ele>1224.38</ele>
        <time>2014-06-28T11:20:10Z</time>
      </trkpt>
      <trkpt lat="44.59017" lon="3.1824">
        <ele>1223.42</ele>
        <time>2014-06-28T11:20:21Z</time>
      </trkpt>
      <trkpt lat="44.59011" lon="3.18228">
        <ele>1223.42</ele>
        <time>2014-06-28T11:20:31Z</time>
      </trkpt>
      <trkpt lat="44.59007" lon="3.18213">
        <ele>1223.42</ele>
        <time>2014-06-28T11:20:40Z</time>
      </trkpt>
      <trkpt lat="44.59005" lon="3.18199">
        <ele>1223.42</ele>
        <time>2014-06-28T11:20:48Z</time>
      </trkpt>
      <trkpt lat="44.59001" lon="3.18176">
        <ele>1224.38</ele>
        <time>2014-06-28T11:21:02Z</time>
      </trkpt>
      <trkpt lat="44.58997" lon="3.18151">
        <ele>1226.3</ele>
        <time>2014-06-28T11:21:17Z</time>
      </trkpt>
      <trkpt lat="44.58996" lon="3.18141">
        <ele>1227.26</ele>
        <time>2014-06-28T11:21:24Z</time>
      </trkpt>
      <trkpt lat="44.58998" lon="3.18121">
        <ele>1229.18</ele>
        <time>2014-06-28T11:21:37Z</time>
      </trkpt>
      <trkpt lat="44.58998" lon="3.18114">
        <ele>1229.66</ele>
        <time>2014-06-28T11:21:41Z</time>
      </trkpt>
      <trkpt lat="44.58999" lon="3.18093">
        <ele>1231.11</ele>
        <time>2014-06-28T11:21:54Z</time>
      </trkpt>
      <trkpt lat="44.59" lon="3.18077">
        <ele>1232.55</ele>
        <time>2014-06-28T11:22:05Z</time>
      </trkpt>
      <trkpt lat="44.58993" lon="3.18066">
        <ele>1234.95</ele>
        <time>2014-06-28T11:22:18Z</time>
      </trkpt>
      <trkpt lat="44.58992" lon="3.18066">
        <ele>1234.95</ele>
        <time>2014-06-28T11:22:19Z</time>
      </trkpt>
      <trkpt lat="44.58979" lon="3.18062">
        <ele>1236.87</ele>
        <time>2014-06-28T11:22:34Z</time>
      </trkpt>
      <trkpt lat="44.58963" lon="3.1806">
        <ele>1238.8</ele>
        <time>2014-06-28T11:22:47Z</time>
      </trkpt>
      <trkpt lat="44.58955" lon="3.18057">
        <ele>1240.24</ele>
        <time>2014-06-28T11:22:55Z</time>
      </trkpt>
      <trkpt lat="44.58945" lon="3.18043">
        <ele>1242.16</ele>
        <time>2014-06-28T11:23:08Z</time>
      </trkpt>
      <trkpt lat="44.58939" lon="3.1803">
        <ele>1242.64</ele>
        <time>2014-06-28T11:23:19Z</time>
      </trkpt>
      <trkpt lat="44.58932" lon="3.18013">
        <ele>1244.08</ele>
        <time>2014-06-28T11:23:31Z</time>
      </trkpt>
      <trkpt lat="44.58925" lon="3.17998">
        <ele>1246.01</ele>
        <time>2014-06-28T11:23:44Z</time>
      </trkpt>
      <trkpt lat="44.58917" lon="3.17983">
        <ele>1246.97</ele>
        <time>2014-06-28T11:23:55Z</time>
      </trkpt>
      <trkpt lat="44.58911" lon="3.17969">
        <ele>1248.89</ele>
        <time>2014-06-28T11:24:07Z</time>
      </trkpt>
      <trkpt lat="44.58908" lon="3.17962">
        <ele>1249.37</ele>
        <time>2014-06-28T11:24:12Z</time>
      </trkpt>
      <trkpt lat="44.58903" lon="3.17955">
        <ele>1250.33</ele>
        <time>2014-06-28T11:24:19Z</time>
      </trkpt>
      <trkpt lat="44.58901" lon="3.1795">
        <ele>1250.33</ele>
        <time>2014-06-28T11:24:23Z</time>
      </trkpt>
      <trkpt lat="44.58899" lon="3.17947">
        <ele>1250.33</ele>
        <time>2014-06-28T11:24:25Z</time>
      </trkpt>
      <trkpt lat="44.58895" lon="3.17942">
        <ele>1250.33</ele>
        <time>2014-06-28T11:24:30Z</time>
      </trkpt>
      <trkpt lat="44.58892" lon="3.17933">
        <ele>1250.81</ele>
        <time>2014-06-28T11:24:42Z</time>
      </trkpt>
      <trkpt lat="44.58893" lon="3.17934">
        <ele>1250.81</ele>
        <time>2014-06-28T11:24:59Z</time>
      </trkpt>
      <trkpt lat="44.58894" lon="3.17934">
        <ele>1251.29</ele>
        <time>2014-06-28T11:25:25Z</time>
      </trkpt>
      <trkpt lat="44.58893" lon="3.17933">
        <ele>1251.29</ele>
        <time>2014-06-28T11:25:41Z</time>
      </trkpt>
      <trkpt lat="44.58895" lon="3.17936">
        <ele>1251.29</ele>
        <time>2014-06-28T11:26:03Z</time>
      </trkpt>
      <trkpt lat="44.58897" lon="3.17935">
        <ele>1251.29</ele>
        <time>2014-06-28T11:26:29Z</time>
      </trkpt>
      <trkpt lat="44.58894" lon="3.1793">
        <ele>1251.29</ele>
        <time>2014-06-28T11:26:44Z</time>
      </trkpt>
      <trkpt lat="44.5888" lon="3.17914">
        <ele>1251.77</ele>
        <time>2014-06-28T11:26:58Z</time>
      </trkpt>
      <trkpt lat="44.58864" lon="3.17896">
        <ele>1250.33</ele>
        <time>2014-06-28T11:27:14Z</time>
      </trkpt>
      <trkpt lat="44.5885" lon="3.1788">
        <ele>1248.89</ele>
        <time>2014-06-28T11:27:28Z</time>
      </trkpt>
      <trkpt lat="44.58834" lon="3.17872">
        <ele>1248.41</ele>
        <time>2014-06-28T11:27:44Z</time>
      </trkpt>
      <trkpt lat="44.58817" lon="3.17865">
        <ele>1246.97</ele>
        <time>2014-06-28T11:28:00Z</time>
      </trkpt>
      <trkpt lat="44.58798" lon="3.1786">
        <ele>1245.53</ele>
        <time>2014-06-28T11:28:16Z</time>
      </trkpt>
      <trkpt lat="44.58783" lon="3.17851">
        <ele>1245.04</ele>
        <time>2014-06-28T11:28:31Z</time>
      </trkpt>
      <trkpt lat="44.58765" lon="3.17841">
        <ele>1243.6</ele>
        <time>2014-06-28T11:28:47Z</time>
      </trkpt>
      <trkpt lat="44.58758" lon="3.17838">
        <ele>1242.64</ele>
        <time>2014-06-28T11:28:53Z</time>
      </trkpt>
      <trkpt lat="44.5874" lon="3.1782">
        <ele>1241.68</ele>
        <time>2014-06-28T11:29:10Z</time>
      </trkpt>
      <trkpt lat="44.58723" lon="3.17803">
        <ele>1241.2</ele>
        <time>2014-06-28T11:29:26Z</time>
      </trkpt>
      <trkpt lat="44.58716" lon="3.17793">
        <ele>1241.2</ele>
        <time>2014-06-28T11:29:33Z</time>
      </trkpt>
      <trkpt lat="44.58697" lon="3.17776">
        <ele>1239.28</ele>
        <time>2014-06-28T11:29:51Z</time>
      </trkpt>
      <trkpt lat="44.58684" lon="3.17762">
        <ele>1240.72</ele>
        <time>2014-06-28T11:30:03Z</time>
      </trkpt>
      <trkpt lat="44.58668" lon="3.17746">
        <ele>1239.76</ele>
        <time>2014-06-28T11:30:21Z</time>
      </trkpt>
      <trkpt lat="44.58665" lon="3.17741">
        <ele>1239.76</ele>
        <time>2014-06-28T11:30:25Z</time>
      </trkpt>
      <trkpt lat="44.58655" lon="3.17731">
        <ele>1239.28</ele>
        <time>2014-06-28T11:30:37Z</time>
      </trkpt>
      <trkpt lat="44.58642" lon="3.17719">
        <ele>1238.8</ele>
        <time>2014-06-28T11:30:50Z</time>
      </trkpt>
      <trkpt lat="44.58629" lon="3.17707">
        <ele>1238.8</ele>
        <time>2014-06-28T11:31:05Z</time>
      </trkpt>
      <trkpt lat="44.58621" lon="3.17699">
        <ele>1238.32</ele>
        <time>2014-06-28T11:31:13Z</time>
      </trkpt>
      <trkpt lat="44.58614" lon="3.17694">
        <ele>1238.32</ele>
        <time>2014-06-28T11:31:19Z</time>
      </trkpt>
      <trkpt lat="44.586" lon="3.17685">
        <ele>1238.32</ele>
        <time>2014-06-28T11:31:32Z</time>
      </trkpt>
      <trkpt lat="44.58589" lon="3.17673">
        <ele>1238.32</ele>
        <time>2014-06-28T11:31:45Z</time>
      </trkpt>
      <trkpt lat="44.58573" lon="3.17664">
        <ele>1237.83</ele>
        <time>2014-06-28T11:31:59Z</time>
      </trkpt>
      <trkpt lat="44.58571" lon="3.17663">
        <ele>1237.83</ele>
        <time>2014-06-28T11:32:01Z</time>
      </trkpt>
      <trkpt lat="44.58555" lon="3.17654">
        <ele>1237.35</ele>
        <time>2014-06-28T11:32:17Z</time>
      </trkpt>
      <trkpt lat="44.5854" lon="3.17648">
        <ele>1236.87</ele>
        <time>2014-06-28T11:32:30Z</time>
      </trkpt>
      <trkpt lat="44.58523" lon="3.17641">
        <ele>1235.91</ele>
        <time>2014-06-28T11:32:44Z</time>
      </trkpt>
      <trkpt lat="44.58519" lon="3.17637">
        <ele>1235.91</ele>
        <time>2014-06-28T11:32:48Z</time>
      </trkpt>
      <trkpt lat="44.58499" lon="3.1762">
        <ele>1235.91</ele>
        <time>2014-06-28T11:33:03Z</time>
      </trkpt>
      <trkpt lat="44.58477" lon="3.17604">
        <ele>1235.43</ele>
        <time>2014-06-28T11:33:18Z</time>
      </trkpt>
      <trkpt lat="44.58455" lon="3.17579">
        <ele>1234.95</ele>
        <time>2014-06-28T11:33:36Z</time>
      </trkpt>
      <trkpt lat="44.58442" lon="3.1756">
        <ele>1234.47</ele>
        <time>2014-06-28T11:33:51Z</time>
      </trkpt>
      <trkpt lat="44.58432" lon="3.17542">
        <ele>1233.51</ele>
        <time>2014-06-28T11:34:07Z</time>
      </trkpt>
      <trkpt lat="44.58426" lon="3.17533">
        <ele>1233.51</ele>
        <time>2014-06-28T11:34:15Z</time>
      </trkpt>
      <trkpt lat="44.58422" lon="3.17526">
        <ele>1233.51</ele>
        <time>2014-06-28T11:34:19Z</time>
      </trkpt>
      <trkpt lat="44.58411" lon="3.17505">
        <ele>1233.03</ele>
        <time>2014-06-28T11:34:33Z</time>
      </trkpt>
      <trkpt lat="44.584" lon="3.17488">
        <ele>1231.59</ele>
        <time>2014-06-28T11:34:47Z</time>
      </trkpt>
      <trkpt lat="44.58394" lon="3.17476">
        <ele>1231.11</ele>
        <time>2014-06-28T11:34:54Z</time>
      </trkpt>
      <trkpt lat="44.58382" lon="3.1745">
        <ele>1230.62</ele>
        <time>2014-06-28T11:35:07Z</time>
      </trkpt>
      <trkpt lat="44.58374" lon="3.17435">
        <ele>1230.14</ele>
        <time>2014-06-28T11:35:15Z</time>
      </trkpt>
      <trkpt lat="44.58362" lon="3.17411">
        <ele>1230.14</ele>
        <time>2014-06-28T11:35:29Z</time>
      </trkpt>
      <trkpt lat="44.58353" lon="3.17382">
        <ele>1229.18</ele>
        <time>2014-06-28T11:35:45Z</time>
      </trkpt>
      <trkpt lat="44.5835" lon="3.17376">
        <ele>1228.7</ele>
        <time>2014-06-28T11:35:49Z</time>
      </trkpt>
      <trkpt lat="44.58341" lon="3.17362">
        <ele>1227.74</ele>
        <time>2014-06-28T11:36:01Z</time>
      </trkpt>
      <trkpt lat="44.58342" lon="3.17364">
        <ele>1226.78</ele>
        <time>2014-06-28T11:36:20Z</time>
      </trkpt>
      <trkpt lat="44.5834" lon="3.17364">
        <ele>1226.78</ele>
        <time>2014-06-28T11:36:55Z</time>
      </trkpt>
      <trkpt lat="44.58337" lon="3.17362">
        <ele>1226.78</ele>
        <time>2014-06-28T11:37:31Z</time>
      </trkpt>
      <trkpt lat="44.58334" lon="3.1736">
        <ele>1226.3</ele>
        <time>2014-06-28T11:38:06Z</time>
      </trkpt>
      <trkpt lat="44.58334" lon="3.17361">
        <ele>1228.22</ele>
        <time>2014-06-28T11:38:42Z</time>
      </trkpt>
      <trkpt lat="44.58334" lon="3.17357">
        <ele>1228.22</ele>
        <time>2014-06-28T11:38:44Z</time>
      </trkpt>
      <trkpt lat="44.58336" lon="3.17323">
        <ele>1228.7</ele>
        <time>2014-06-28T11:38:59Z</time>
      </trkpt>
      <trkpt lat="44.58336" lon="3.17317">
        <ele>1228.7</ele>
        <time>2014-06-28T11:39:02Z</time>
      </trkpt>
      <trkpt lat="44.58336" lon="3.1731">
        <ele>1228.7</ele>
        <time>2014-06-28T11:39:06Z</time>
      </trkpt>
      <trkpt lat="44.58334" lon="3.17283">
        <ele>1228.7</ele>
        <time>2014-06-28T11:39:22Z</time>
      </trkpt>
      <trkpt lat="44.58333" lon="3.17265">
        <ele>1229.18</ele>
        <time>2014-06-28T11:39:34Z</time>
      </trkpt>
      <trkpt lat="44.5833" lon="3.17244">
        <ele>1230.14</ele>
        <time>2014-06-28T11:39:48Z</time>
      </trkpt>
      <trkpt lat="44.5833" lon="3.17242">
        <ele>1230.14</ele>
        <time>2014-06-28T11:39:49Z</time>
      </trkpt>
      <trkpt lat="44.58328" lon="3.1722">
        <ele>1232.07</ele>
        <time>2014-06-28T11:40:02Z</time>
      </trkpt>
      <trkpt lat="44.58321" lon="3.17194">
        <ele>1233.51</ele>
        <time>2014-06-28T11:40:18Z</time>
      </trkpt>
      <trkpt lat="44.58318" lon="3.17186">
        <ele>1234.47</ele>
        <time>2014-06-28T11:40:24Z</time>
      </trkpt>
      <trkpt lat="44.5831" lon="3.17171">
        <ele>1236.87</ele>
        <time>2014-06-28T11:40:36Z</time>
      </trkpt>
      <trkpt lat="44.58297" lon="3.17157">
        <ele>1238.8</ele>
        <time>2014-06-28T11:40:50Z</time>
      </trkpt>
      <trkpt lat="44.58288" lon="3.17141">
        <ele>1240.24</ele>
        <time>2014-06-28T11:41:03Z</time>
      </trkpt>
      <trkpt lat="44.58285" lon="3.17125">
        <ele>1240.72</ele>
        <time>2014-06-28T11:41:16Z</time>
      </trkpt>
      <trkpt lat="44.58279" lon="3.171">
        <ele>1241.2</ele>
        <time>2014-06-28T11:41:31Z</time>
      </trkpt>
      <trkpt lat="44.58269" lon="3.17074">
        <ele>1242.16</ele>
        <time>2014-06-28T11:41:47Z</time>
      </trkpt>
      <trkpt lat="44.58267" lon="3.1706">
        <ele>1243.12</ele>
        <time>2014-06-28T11:41:56Z</time>
      </trkpt>
      <trkpt lat="44.5826" lon="3.17034">
        <ele>1244.08</ele>
        <time>2014-06-28T11:42:13Z</time>
      </trkpt>
      <trkpt lat="44.58259" lon="3.17033">
        <ele>1244.08</ele>
        <time>2014-06-28T11:42:14Z</time>
      </trkpt>
      <trkpt lat="44.58253" lon="3.17008">
        <ele>1244.08</ele>
        <time>2014-06-28T11:42:30Z</time>
      </trkpt>
      <trkpt lat="44.58242" lon="3.16983">
        <ele>1244.08</ele>
        <time>2014-06-28T11:42:47Z</time>
      </trkpt>
      <trkpt lat="44.58237" lon="3.16975">
        <ele>1242.64</ele>
        <time>2014-06-28T11:42:53Z</time>
      </trkpt>
      <trkpt lat="44.58234" lon="3.16971">
        <ele>1242.64</ele>
        <time>2014-06-28T11:42:57Z</time>
      </trkpt>
      <trkpt lat="44.58225" lon="3.16953">
        <ele>1241.2</ele>
        <time>2014-06-28T11:43:10Z</time>
      </trkpt>
      <trkpt lat="44.58213" lon="3.16924">
        <ele>1239.28</ele>
        <time>2014-06-28T11:43:28Z</time>
      </trkpt>
      <trkpt lat="44.58208" lon="3.16905">
        <ele>1237.83</ele>
        <time>2014-06-28T11:43:39Z</time>
      </trkpt>
      <trkpt lat="44.58207" lon="3.169">
        <ele>1239.28</ele>
        <time>2014-06-28T11:43:42Z</time>
      </trkpt>
      <trkpt lat="44.58206" lon="3.16897">
        <ele>1239.28</ele>
        <time>2014-06-28T11:43:44Z</time>
      </trkpt>
      <trkpt lat="44.58204" lon="3.16884">
        <ele>1237.83</ele>
        <time>2014-06-28T11:43:51Z</time>
      </trkpt>
      <trkpt lat="44.58197" lon="3.16857">
        <ele>1237.35</ele>
        <time>2014-06-28T11:44:07Z</time>
      </trkpt>
      <trkpt lat="44.58191" lon="3.16831">
        <ele>1237.35</ele>
        <time>2014-06-28T11:44:23Z</time>
      </trkpt>
      <trkpt lat="44.58184" lon="3.16803">
        <ele>1237.35</ele>
        <time>2014-06-28T11:44:40Z</time>
      </trkpt>
      <trkpt lat="44.58175" lon="3.16773">
        <ele>1236.87</ele>
        <time>2014-06-28T11:44:58Z</time>
      </trkpt>
      <trkpt lat="44.58166" lon="3.16745">
        <ele>1235.43</ele>
        <time>2014-06-28T11:45:15Z</time>
      </trkpt>
      <trkpt lat="44.58157" lon="3.16714">
        <ele>1234.95</ele>
        <time>2014-06-28T11:45:33Z</time>
      </trkpt>
      <trkpt lat="44.5815" lon="3.16687">
        <ele>1233.51</ele>
        <time>2014-06-28T11:45:49Z</time>
      </trkpt>
      <trkpt lat="44.58141" lon="3.16657">
        <ele>1231.59</ele>
        <time>2014-06-28T11:46:06Z</time>
      </trkpt>
      <trkpt lat="44.5813" lon="3.16628">
        <ele>1230.14</ele>
        <time>2014-06-28T11:46:23Z</time>
      </trkpt>
      <trkpt lat="44.5812" lon="3.16601">
        <ele>1229.18</ele>
        <time>2014-06-28T11:46:40Z</time>
      </trkpt>
      <trkpt lat="44.58111" lon="3.16587">
        <ele>1228.22</ele>
        <time>2014-06-28T11:46:51Z</time>
      </trkpt>
      <trkpt lat="44.581" lon="3.16569">
        <ele>1225.34</ele>
        <time>2014-06-28T11:47:05Z</time>
      </trkpt>
      <trkpt lat="44.58087" lon="3.16546">
        <ele>1222.45</ele>
        <time>2014-06-28T11:47:19Z</time>
      </trkpt>
      <trkpt lat="44.58078" lon="3.1652">
        <ele>1220.05</ele>
        <time>2014-06-28T11:47:35Z</time>
      </trkpt>
      <trkpt lat="44.58067" lon="3.1649">
        <ele>1218.61</ele>
        <time>2014-06-28T11:47:52Z</time>
      </trkpt>
      <trkpt lat="44.58063" lon="3.16461">
        <ele>1216.21</ele>
        <time>2014-06-28T11:48:09Z</time>
      </trkpt>
      <trkpt lat="44.58069" lon="3.16428">
        <ele>1214.76</ele>
        <time>2014-06-28T11:48:26Z</time>
      </trkpt>
      <trkpt lat="44.5807" lon="3.16421">
        <ele>1214.76</ele>
        <time>2014-06-28T11:48:30Z</time>
      </trkpt>
      <trkpt lat="44.58073" lon="3.16418">
        <ele>1214.76</ele>
        <time>2014-06-28T11:48:35Z</time>
      </trkpt>
      <trkpt lat="44.58077" lon="3.16389">
        <ele>1213.32</ele>
        <time>2014-06-28T11:48:52Z</time>
      </trkpt>
      <trkpt lat="44.58078" lon="3.16359">
        <ele>1211.4</ele>
        <time>2014-06-28T11:49:08Z</time>
      </trkpt>
      <trkpt lat="44.5808" lon="3.16331">
        <ele>1209</ele>
        <time>2014-06-28T11:49:24Z</time>
      </trkpt>
      <trkpt lat="44.5808" lon="3.16327">
        <ele>1209</ele>
        <time>2014-06-28T11:49:27Z</time>
      </trkpt>
      <trkpt lat="44.58082" lon="3.16301">
        <ele>1209</ele>
        <time>2014-06-28T11:49:41Z</time>
      </trkpt>
      <trkpt lat="44.58083" lon="3.1627">
        <ele>1207.07</ele>
        <time>2014-06-28T11:49:58Z</time>
      </trkpt>
      <trkpt lat="44.5808" lon="3.16255">
        <ele>1207.55</ele>
        <time>2014-06-28T11:50:06Z</time>
      </trkpt>
      <trkpt lat="44.58079" lon="3.16249">
        <ele>1206.11</ele>
        <time>2014-06-28T11:50:10Z</time>
      </trkpt>
      <trkpt lat="44.58077" lon="3.16221">
        <ele>1204.67</ele>
        <time>2014-06-28T11:50:27Z</time>
      </trkpt>
      <trkpt lat="44.58075" lon="3.16194">
        <ele>1203.23</ele>
        <time>2014-06-28T11:50:43Z</time>
      </trkpt>
      <trkpt lat="44.58066" lon="3.16165">
        <ele>1202.27</ele>
        <time>2014-06-28T11:51:01Z</time>
      </trkpt>
      <trkpt lat="44.5806" lon="3.16149">
        <ele>1201.79</ele>
        <time>2014-06-28T11:51:14Z</time>
      </trkpt>
      <trkpt lat="44.5806" lon="3.16143">
        <ele>1201.79</ele>
        <time>2014-06-28T11:51:18Z</time>
      </trkpt>
      <trkpt lat="44.58059" lon="3.16139">
        <ele>1201.79</ele>
        <time>2014-06-28T11:51:21Z</time>
      </trkpt>
      <trkpt lat="44.58059" lon="3.16135">
        <ele>1201.79</ele>
        <time>2014-06-28T11:51:23Z</time>
      </trkpt>
      <trkpt lat="44.58056" lon="3.16122">
        <ele>1201.79</ele>
        <time>2014-06-28T11:51:31Z</time>
      </trkpt>
      <trkpt lat="44.5804" lon="3.16111">
        <ele>1200.82</ele>
        <time>2014-06-28T11:51:46Z</time>
      </trkpt>
      <trkpt lat="44.58025" lon="3.16118">
        <ele>1199.38</ele>
        <time>2014-06-28T11:52:00Z</time>
      </trkpt>
      <trkpt lat="44.58024" lon="3.1612">
        <ele>1198.9</ele>
        <time>2014-06-28T11:52:02Z</time>
      </trkpt>
      <trkpt lat="44.58019" lon="3.16124">
        <ele>1198.42</ele>
        <time>2014-06-28T11:52:07Z</time>
      </trkpt>
      <trkpt lat="44.58003" lon="3.1612">
        <ele>1196.5</ele>
        <time>2014-06-28T11:52:22Z</time>
      </trkpt>
      <trkpt lat="44.57987" lon="3.16102">
        <ele>1194.09</ele>
        <time>2014-06-28T11:52:37Z</time>
      </trkpt>
      <trkpt lat="44.5797" lon="3.16078">
        <ele>1192.65</ele>
        <time>2014-06-28T11:52:56Z</time>
      </trkpt>
      <trkpt lat="44.57966" lon="3.16069">
        <ele>1191.69</ele>
        <time>2014-06-28T11:53:02Z</time>
      </trkpt>
      <trkpt lat="44.57958" lon="3.16062">
        <ele>1190.25</ele>
        <time>2014-06-28T11:53:09Z</time>
      </trkpt>
      <trkpt lat="44.57956" lon="3.16056">
        <ele>1189.77</ele>
        <time>2014-06-28T11:53:13Z</time>
      </trkpt>
      <trkpt lat="44.57952" lon="3.16021">
        <ele>1187.37</ele>
        <time>2014-06-28T11:53:33Z</time>
      </trkpt>
      <trkpt lat="44.57948" lon="3.16008">
        <ele>1185.92</ele>
        <time>2014-06-28T11:53:42Z</time>
      </trkpt>
      <trkpt lat="44.57947" lon="3.16005">
        <ele>1187.85</ele>
        <time>2014-06-28T11:53:44Z</time>
      </trkpt>
      <trkpt lat="44.57937" lon="3.1598">
        <ele>1186.4</ele>
        <time>2014-06-28T11:54:01Z</time>
      </trkpt>
      <trkpt lat="44.57924" lon="3.15966">
        <ele>1186.4</ele>
        <time>2014-06-28T11:54:14Z</time>
      </trkpt>
      <trkpt lat="44.57903" lon="3.15956">
        <ele>1185.92</ele>
        <time>2014-06-28T11:54:30Z</time>
      </trkpt>
      <trkpt lat="44.57896" lon="3.15952">
        <ele>1185.92</ele>
        <time>2014-06-28T11:54:36Z</time>
      </trkpt>
      <trkpt lat="44.57876" lon="3.1594">
        <ele>1185.92</ele>
        <time>2014-06-28T11:54:53Z</time>
      </trkpt>
      <trkpt lat="44.57874" lon="3.15938">
        <ele>1187.37</ele>
        <time>2014-06-28T11:54:55Z</time>
      </trkpt>
      <trkpt lat="44.57872" lon="3.15935">
        <ele>1187.37</ele>
        <time>2014-06-28T11:54:57Z</time>
      </trkpt>
      <trkpt lat="44.57869" lon="3.15928">
        <ele>1188.33</ele>
        <time>2014-06-28T11:55:02Z</time>
      </trkpt>
      <trkpt lat="44.57868" lon="3.15922">
        <ele>1188.81</ele>
        <time>2014-06-28T11:55:06Z</time>
      </trkpt>
      <trkpt lat="44.57866" lon="3.15918">
        <ele>1189.77</ele>
        <time>2014-06-28T11:55:09Z</time>
      </trkpt>
      <trkpt lat="44.57865" lon="3.15914">
        <ele>1189.77</ele>
        <time>2014-06-28T11:55:12Z</time>
      </trkpt>
      <trkpt lat="44.57862" lon="3.15908">
        <ele>1190.25</ele>
        <time>2014-06-28T11:55:16Z</time>
      </trkpt>
      <trkpt lat="44.57861" lon="3.15906">
        <ele>1190.25</ele>
        <time>2014-06-28T11:55:18Z</time>
      </trkpt>
      <trkpt lat="44.5786" lon="3.15901">
        <ele>1190.73</ele>
        <time>2014-06-28T11:55:21Z</time>
      </trkpt>
      <trkpt lat="44.57857" lon="3.15896">
        <ele>1191.21</ele>
        <time>2014-06-28T11:55:25Z</time>
      </trkpt>
      <trkpt lat="44.57856" lon="3.1589">
        <ele>1191.69</ele>
        <time>2014-06-28T11:55:29Z</time>
      </trkpt>
      <trkpt lat="44.57849" lon="3.15871">
        <ele>1192.17</ele>
        <time>2014-06-28T11:55:42Z</time>
      </trkpt>
      <trkpt lat="44.57842" lon="3.15849">
        <ele>1190.73</ele>
        <time>2014-06-28T11:55:55Z</time>
      </trkpt>
      <trkpt lat="44.57827" lon="3.15829">
        <ele>1188.33</ele>
        <time>2014-06-28T11:56:13Z</time>
      </trkpt>
      <trkpt lat="44.57826" lon="3.15828">
        <ele>1187.85</ele>
        <time>2014-06-28T11:56:15Z</time>
      </trkpt>
      <trkpt lat="44.57815" lon="3.15811">
        <ele>1186.4</ele>
        <time>2014-06-28T11:56:27Z</time>
      </trkpt>
      <trkpt lat="44.57803" lon="3.1578">
        <ele>1184</ele>
        <time>2014-06-28T11:56:47Z</time>
      </trkpt>
      <trkpt lat="44.57802" lon="3.15766">
        <ele>1183.52</ele>
        <time>2014-06-28T11:56:56Z</time>
      </trkpt>
      <trkpt lat="44.57802" lon="3.15761">
        <ele>1183.04</ele>
        <time>2014-06-28T11:56:59Z</time>
      </trkpt>
      <trkpt lat="44.578" lon="3.15743">
        <ele>1181.6</ele>
        <time>2014-06-28T11:57:10Z</time>
      </trkpt>
      <trkpt lat="44.57796" lon="3.15728">
        <ele>1180.16</ele>
        <time>2014-06-28T11:57:20Z</time>
      </trkpt>
      <trkpt lat="44.5778" lon="3.15712">
        <ele>1178.23</ele>
        <time>2014-06-28T11:57:37Z</time>
      </trkpt>
      <trkpt lat="44.57758" lon="3.15711">
        <ele>1176.31</ele>
        <time>2014-06-28T11:57:55Z</time>
      </trkpt>
      <trkpt lat="44.57738" lon="3.15702">
        <ele>1174.87</ele>
        <time>2014-06-28T11:58:13Z</time>
      </trkpt>
      <trkpt lat="44.57725" lon="3.15682">
        <ele>1174.39</ele>
        <time>2014-06-28T11:58:30Z</time>
      </trkpt>
      <trkpt lat="44.57715" lon="3.15664">
        <ele>1173.43</ele>
        <time>2014-06-28T11:58:44Z</time>
      </trkpt>
      <trkpt lat="44.57704" lon="3.15659">
        <ele>1173.43</ele>
        <time>2014-06-28T11:58:57Z</time>
      </trkpt>
      <trkpt lat="44.57702" lon="3.15657">
        <ele>1173.43</ele>
        <time>2014-06-28T11:59:07Z</time>
      </trkpt>
      <trkpt lat="44.57702" lon="3.15656">
        <ele>1172.95</ele>
        <time>2014-06-28T11:59:23Z</time>
      </trkpt>
      <trkpt lat="44.57701" lon="3.15658">
        <ele>1172.95</ele>
        <time>2014-06-28T11:59:31Z</time>
      </trkpt>
      <trkpt lat="44.57699" lon="3.15658">
        <ele>1171.5</ele>
        <time>2014-06-28T11:59:39Z</time>
      </trkpt>
      <trkpt lat="44.57695" lon="3.15651">
        <ele>1171.5</ele>
        <time>2014-06-28T12:00:11Z</time>
      </trkpt>
      <trkpt lat="44.57696" lon="3.1565">
        <ele>1171.5</ele>
        <time>2014-06-28T12:00:46Z</time>
      </trkpt>
      <trkpt lat="44.57696" lon="3.15653">
        <ele>1171.5</ele>
        <time>2014-06-28T12:01:19Z</time>
      </trkpt>
      <trkpt lat="44.57696" lon="3.15654">
        <ele>1171.98</ele>
        <time>2014-06-28T12:01:48Z</time>
      </trkpt>
      <trkpt lat="44.57697" lon="3.15656">
        <ele>1171.98</ele>
        <time>2014-06-28T12:02:21Z</time>
      </trkpt>
      <trkpt lat="44.57698" lon="3.15658">
        <ele>1171.5</ele>
        <time>2014-06-28T12:02:57Z</time>
      </trkpt>
      <trkpt lat="44.57697" lon="3.15657">
        <ele>1171.5</ele>
        <time>2014-06-28T12:03:24Z</time>
      </trkpt>
      <trkpt lat="44.57698" lon="3.15657">
        <ele>1172.95</ele>
        <time>2014-06-28T12:03:55Z</time>
      </trkpt>
      <trkpt lat="44.57702" lon="3.15658">
        <ele>1172.95</ele>
        <time>2014-06-28T12:04:27Z</time>
      </trkpt>
      <trkpt lat="44.57701" lon="3.15658">
        <ele>1172.95</ele>
        <time>2014-06-28T12:05:01Z</time>
      </trkpt>
      <trkpt lat="44.577" lon="3.15656">
        <ele>1172.95</ele>
        <time>2014-06-28T12:05:28Z</time>
      </trkpt>
      <trkpt lat="44.57698" lon="3.15653">
        <ele>1172.95</ele>
        <time>2014-06-28T12:05:58Z</time>
      </trkpt>
      <trkpt lat="44.57697" lon="3.15655">
        <ele>1173.43</ele>
        <time>2014-06-28T12:06:12Z</time>
      </trkpt>
      <trkpt lat="44.57694" lon="3.15655">
        <ele>1173.43</ele>
        <time>2014-06-28T12:06:27Z</time>
      </trkpt>
      <trkpt lat="44.57684" lon="3.15661">
        <ele>1173.43</ele>
        <time>2014-06-28T12:06:41Z</time>
      </trkpt>
      <trkpt lat="44.57678" lon="3.15664">
        <ele>1173.43</ele>
        <time>2014-06-28T12:06:49Z</time>
      </trkpt>
      <trkpt lat="44.57664" lon="3.15673">
        <ele>1174.39</ele>
        <time>2014-06-28T12:07:04Z</time>
      </trkpt>
      <trkpt lat="44.57653" lon="3.15676">
        <ele>1174.87</ele>
        <time>2014-06-28T12:07:17Z</time>
      </trkpt>
      <trkpt lat="44.57645" lon="3.1568">
        <ele>1175.35</ele>
        <time>2014-06-28T12:07:30Z</time>
      </trkpt>
      <trkpt lat="44.57626" lon="3.15689">
        <ele>1175.83</ele>
        <time>2014-06-28T12:07:47Z</time>
      </trkpt>
      <trkpt lat="44.5761" lon="3.15697">
        <ele>1176.31</ele>
        <time>2014-06-28T12:08:01Z</time>
      </trkpt>
      <trkpt lat="44.57605" lon="3.15701">
        <ele>1176.79</ele>
        <time>2014-06-28T12:08:05Z</time>
      </trkpt>
      <trkpt lat="44.576" lon="3.15708">
        <ele>1177.27</ele>
        <time>2014-06-28T12:08:10Z</time>
      </trkpt>
      <trkpt lat="44.57586" lon="3.15722">
        <ele>1177.27</ele>
        <time>2014-06-28T12:08:24Z</time>
      </trkpt>
      <trkpt lat="44.57585" lon="3.15726">
        <ele>1177.75</ele>
        <time>2014-06-28T12:08:27Z</time>
      </trkpt>
      <trkpt lat="44.57576" lon="3.1574">
        <ele>1179.67</ele>
        <time>2014-06-28T12:08:42Z</time>
      </trkpt>
      <trkpt lat="44.57571" lon="3.15749">
        <ele>1180.64</ele>
        <time>2014-06-28T12:08:49Z</time>
      </trkpt>
      <trkpt lat="44.57557" lon="3.15771">
        <ele>1181.6</ele>
        <time>2014-06-28T12:09:06Z</time>
      </trkpt>
      <trkpt lat="44.57544" lon="3.15787">
        <ele>1182.56</ele>
        <time>2014-06-28T12:09:21Z</time>
      </trkpt>
      <trkpt lat="44.57533" lon="3.15808">
        <ele>1183.04</ele>
        <time>2014-06-28T12:09:37Z</time>
      </trkpt>
      <trkpt lat="44.57528" lon="3.15816">
        <ele>1183.04</ele>
        <time>2014-06-28T12:09:44Z</time>
      </trkpt>
      <trkpt lat="44.57515" lon="3.15834">
        <ele>1183.52</ele>
        <time>2014-06-28T12:09:59Z</time>
      </trkpt>
      <trkpt lat="44.57507" lon="3.1585">
        <ele>1184.48</ele>
        <time>2014-06-28T12:10:10Z</time>
      </trkpt>
      <trkpt lat="44.57504" lon="3.15855">
        <ele>1184.96</ele>
        <time>2014-06-28T12:10:14Z</time>
      </trkpt>
      <trkpt lat="44.575" lon="3.1586">
        <ele>1184.96</ele>
        <time>2014-06-28T12:10:19Z</time>
      </trkpt>
      <trkpt lat="44.57499" lon="3.15864">
        <ele>1185.44</ele>
        <time>2014-06-28T12:10:22Z</time>
      </trkpt>
      <trkpt lat="44.57496" lon="3.15867">
        <ele>1185.92</ele>
        <time>2014-06-28T12:10:25Z</time>
      </trkpt>
      <trkpt lat="44.57494" lon="3.1587">
        <ele>1185.92</ele>
        <time>2014-06-28T12:10:28Z</time>
      </trkpt>
      <trkpt lat="44.57483" lon="3.15887">
        <ele>1186.88</ele>
        <time>2014-06-28T12:10:43Z</time>
      </trkpt>
      <trkpt lat="44.57479" lon="3.15892">
        <ele>1186.88</ele>
        <time>2014-06-28T12:10:48Z</time>
      </trkpt>
      <trkpt lat="44.57474" lon="3.15899">
        <ele>1186.88</ele>
        <time>2014-06-28T12:10:54Z</time>
      </trkpt>
      <trkpt lat="44.57468" lon="3.15911">
        <ele>1186.88</ele>
        <time>2014-06-28T12:11:02Z</time>
      </trkpt>
      <trkpt lat="44.57464" lon="3.15919">
        <ele>1186.88</ele>
        <time>2014-06-28T12:11:08Z</time>
      </trkpt>
      <trkpt lat="44.5746" lon="3.15928">
        <ele>1187.37</ele>
        <time>2014-06-28T12:11:15Z</time>
      </trkpt>
      <trkpt lat="44.5745" lon="3.15946">
        <ele>1188.33</ele>
        <time>2014-06-28T12:11:30Z</time>
      </trkpt>
      <trkpt lat="44.57439" lon="3.15961">
        <ele>1188.81</ele>
        <time>2014-06-28T12:11:44Z</time>
      </trkpt>
      <trkpt lat="44.57432" lon="3.15971">
        <ele>1188.81</ele>
        <time>2014-06-28T12:11:53Z</time>
      </trkpt>
      <trkpt lat="44.57428" lon="3.15976">
        <ele>1188.81</ele>
        <time>2014-06-28T12:11:58Z</time>
      </trkpt>
      <trkpt lat="44.57415" lon="3.15987">
        <ele>1188.81</ele>
        <time>2014-06-28T12:12:13Z</time>
      </trkpt>
      <trkpt lat="44.57401" lon="3.15996">
        <ele>1189.29</ele>
        <time>2014-06-28T12:12:26Z</time>
      </trkpt>
      <trkpt lat="44.57396" lon="3.15999">
        <ele>1189.29</ele>
        <time>2014-06-28T12:12:31Z</time>
      </trkpt>
      <trkpt lat="44.57383" lon="3.16005">
        <ele>1190.73</ele>
        <time>2014-06-28T12:12:45Z</time>
      </trkpt>
      <trkpt lat="44.57379" lon="3.16007">
        <ele>1190.73</ele>
        <time>2014-06-28T12:12:49Z</time>
      </trkpt>
      <trkpt lat="44.57362" lon="3.16016">
        <ele>1191.21</ele>
        <time>2014-06-28T12:13:04Z</time>
      </trkpt>
      <trkpt lat="44.5735" lon="3.16029">
        <ele>1192.17</ele>
        <time>2014-06-28T12:13:17Z</time>
      </trkpt>
      <trkpt lat="44.5734" lon="3.16041">
        <ele>1193.13</ele>
        <time>2014-06-28T12:13:29Z</time>
      </trkpt>
      <trkpt lat="44.57329" lon="3.16053">
        <ele>1194.09</ele>
        <time>2014-06-28T12:13:43Z</time>
      </trkpt>
      <trkpt lat="44.57321" lon="3.16062">
        <ele>1195.06</ele>
        <time>2014-06-28T12:13:55Z</time>
      </trkpt>
      <trkpt lat="44.57315" lon="3.16068">
        <ele>1196.02</ele>
        <time>2014-06-28T12:14:02Z</time>
      </trkpt>
      <trkpt lat="44.57314" lon="3.16072">
        <ele>1196.02</ele>
        <time>2014-06-28T12:14:04Z</time>
      </trkpt>
      <trkpt lat="44.57306" lon="3.16082">
        <ele>1196.5</ele>
        <time>2014-06-28T12:14:15Z</time>
      </trkpt>
      <trkpt lat="44.57295" lon="3.16097">
        <ele>1197.94</ele>
        <time>2014-06-28T12:14:30Z</time>
      </trkpt>
      <trkpt lat="44.57285" lon="3.16107">
        <ele>1199.38</ele>
        <time>2014-06-28T12:14:44Z</time>
      </trkpt>
      <trkpt lat="44.57275" lon="3.16119">
        <ele>1200.34</ele>
        <time>2014-06-28T12:14:57Z</time>
      </trkpt>
      <trkpt lat="44.57264" lon="3.16132">
        <ele>1200.34</ele>
        <time>2014-06-28T12:15:10Z</time>
      </trkpt>
      <trkpt lat="44.57248" lon="3.16153">
        <ele>1201.3</ele>
        <time>2014-06-28T12:15:25Z</time>
      </trkpt>
      <trkpt lat="44.57247" lon="3.16155">
        <ele>1201.3</ele>
        <time>2014-06-28T12:15:26Z</time>
      </trkpt>
      <trkpt lat="44.5724" lon="3.16181">
        <ele>1201.3</ele>
        <time>2014-06-28T12:15:42Z</time>
      </trkpt>
      <trkpt lat="44.57235" lon="3.16196">
        <ele>1201.79</ele>
        <time>2014-06-28T12:15:54Z</time>
      </trkpt>
      <trkpt lat="44.5723" lon="3.16209">
        <ele>1201.79</ele>
        <time>2014-06-28T12:16:06Z</time>
      </trkpt>
      <trkpt lat="44.57225" lon="3.16247">
        <ele>1202.75</ele>
        <time>2014-06-28T12:16:23Z</time>
      </trkpt>
      <trkpt lat="44.57225" lon="3.16252">
        <ele>1203.23</ele>
        <time>2014-06-28T12:16:25Z</time>
      </trkpt>
      <trkpt lat="44.57219" lon="3.16271">
        <ele>1203.71</ele>
        <time>2014-06-28T12:16:34Z</time>
      </trkpt>
      <trkpt lat="44.57217" lon="3.16281">
        <ele>1204.19</ele>
        <time>2014-06-28T12:16:39Z</time>
      </trkpt>
      <trkpt lat="44.5721" lon="3.163">
        <ele>1205.63</ele>
        <time>2014-06-28T12:16:52Z</time>
      </trkpt>
      <trkpt lat="44.5721" lon="3.16301">
        <ele>1205.63</ele>
        <time>2014-06-28T12:16:53Z</time>
      </trkpt>
      <trkpt lat="44.57203" lon="3.16323">
        <ele>1207.07</ele>
        <time>2014-06-28T12:17:07Z</time>
      </trkpt>
      <trkpt lat="44.57199" lon="3.16334">
        <ele>1207.07</ele>
        <time>2014-06-28T12:17:15Z</time>
      </trkpt>
      <trkpt lat="44.57198" lon="3.16342">
        <ele>1207.55</ele>
        <time>2014-06-28T12:17:20Z</time>
      </trkpt>
      <trkpt lat="44.57197" lon="3.16359">
        <ele>1208.03</ele>
        <time>2014-06-28T12:17:30Z</time>
      </trkpt>
      <trkpt lat="44.57195" lon="3.16376">
        <ele>1209</ele>
        <time>2014-06-28T12:17:42Z</time>
      </trkpt>
      <trkpt lat="44.57198" lon="3.16395">
        <ele>1209.48</ele>
        <time>2014-06-28T12:17:54Z</time>
      </trkpt>
      <trkpt lat="44.572" lon="3.16405">
        <ele>1209.96</ele>
        <time>2014-06-28T12:17:59Z</time>
      </trkpt>
      <trkpt lat="44.572" lon="3.16416">
        <ele>1209.96</ele>
        <time>2014-06-28T12:18:05Z</time>
      </trkpt>
      <trkpt lat="44.57199" lon="3.16427">
        <ele>1211.88</ele>
        <time>2014-06-28T12:18:12Z</time>
      </trkpt>
      <trkpt lat="44.57195" lon="3.16432">
        <ele>1211.88</ele>
        <time>2014-06-28T12:18:17Z</time>
      </trkpt>
      <trkpt lat="44.5719" lon="3.16435">
        <ele>1212.84</ele>
        <time>2014-06-28T12:18:28Z</time>
      </trkpt>
      <trkpt lat="44.57191" lon="3.16436">
        <ele>1213.8</ele>
        <time>2014-06-28T12:18:40Z</time>
      </trkpt>
      <trkpt lat="44.56993" lon="3.16189">
        <ele>1236.87</ele>
        <time>2014-06-28T12:23:40Z</time>
      </trkpt>
      <trkpt lat="44.56984" lon="3.16189">
        <ele>1237.83</ele>
        <time>2014-06-28T12:23:50Z</time>
      </trkpt>
      <trkpt lat="44.56968" lon="3.16197">
        <ele>1238.8</ele>
        <time>2014-06-28T12:24:05Z</time>
      </trkpt>
      <trkpt lat="44.56957" lon="3.16198">
        <ele>1239.28</ele>
        <time>2014-06-28T12:24:16Z</time>
      </trkpt>
      <trkpt lat="44.5695" lon="3.16204">
        <ele>1239.76</ele>
        <time>2014-06-28T12:24:28Z</time>
      </trkpt>
      <trkpt lat="44.56944" lon="3.16188">
        <ele>1240.24</ele>
        <time>2014-06-28T12:24:49Z</time>
      </trkpt>
      <trkpt lat="44.56939" lon="3.1618">
        <ele>1238.32</ele>
        <time>2014-06-28T12:25:13Z</time>
      </trkpt>
      <trkpt lat="44.56927" lon="3.1619">
        <ele>1238.32</ele>
        <time>2014-06-28T12:25:26Z</time>
      </trkpt>
      <trkpt lat="44.56925" lon="3.16193">
        <ele>1238.32</ele>
        <time>2014-06-28T12:25:29Z</time>
      </trkpt>
      <trkpt lat="44.5692" lon="3.16196">
        <ele>1238.32</ele>
        <time>2014-06-28T12:25:34Z</time>
      </trkpt>
      <trkpt lat="44.56911" lon="3.16197">
        <ele>1239.28</ele>
        <time>2014-06-28T12:25:43Z</time>
      </trkpt>
      <trkpt lat="44.56895" lon="3.16205">
        <ele>1241.2</ele>
        <time>2014-06-28T12:25:57Z</time>
      </trkpt>
      <trkpt lat="44.5689" lon="3.16206">
        <ele>1241.68</ele>
        <time>2014-06-28T12:26:02Z</time>
      </trkpt>
      <trkpt lat="44.56882" lon="3.16211">
        <ele>1241.68</ele>
        <time>2014-06-28T12:26:09Z</time>
      </trkpt>
      <trkpt lat="44.56879" lon="3.16214">
        <ele>1242.16</ele>
        <time>2014-06-28T12:26:11Z</time>
      </trkpt>
      <trkpt lat="44.56873" lon="3.16219">
        <ele>1242.16</ele>
        <time>2014-06-28T12:26:16Z</time>
      </trkpt>
      <trkpt lat="44.5686" lon="3.16232">
        <ele>1242.64</ele>
        <time>2014-06-28T12:26:30Z</time>
      </trkpt>
      <trkpt lat="44.56859" lon="3.16232">
        <ele>1242.64</ele>
        <time>2014-06-28T12:26:31Z</time>
      </trkpt>
      <trkpt lat="44.56841" lon="3.16244">
        <ele>1243.12</ele>
        <time>2014-06-28T12:26:45Z</time>
      </trkpt>
      <trkpt lat="44.56826" lon="3.16255">
        <ele>1243.6</ele>
        <time>2014-06-28T12:26:57Z</time>
      </trkpt>
      <trkpt lat="44.56819" lon="3.16258">
        <ele>1244.56</ele>
        <time>2014-06-28T12:27:05Z</time>
      </trkpt>
      <trkpt lat="44.56818" lon="3.16259">
        <ele>1244.56</ele>
        <time>2014-06-28T12:27:06Z</time>
      </trkpt>
      <trkpt lat="44.56806" lon="3.16269">
        <ele>1245.04</ele>
        <time>2014-06-28T12:27:19Z</time>
      </trkpt>
      <trkpt lat="44.56792" lon="3.16279">
        <ele>1246.01</ele>
        <time>2014-06-28T12:27:29Z</time>
      </trkpt>
      <trkpt lat="44.5679" lon="3.1628">
        <ele>1246.01</ele>
        <time>2014-06-28T12:27:31Z</time>
      </trkpt>
      <trkpt lat="44.56777" lon="3.16286">
        <ele>1247.45</ele>
        <time>2014-06-28T12:27:43Z</time>
      </trkpt>
      <trkpt lat="44.5677" lon="3.16293">
        <ele>1247.45</ele>
        <time>2014-06-28T12:27:51Z</time>
      </trkpt>
      <trkpt lat="44.56768" lon="3.16296">
        <ele>1247.93</ele>
        <time>2014-06-28T12:27:55Z</time>
      </trkpt>
      <trkpt lat="44.56765" lon="3.16297">
        <ele>1247.93</ele>
        <time>2014-06-28T12:27:57Z</time>
      </trkpt>
      <trkpt lat="44.56756" lon="3.16305">
        <ele>1248.89</ele>
        <time>2014-06-28T12:28:07Z</time>
      </trkpt>
      <trkpt lat="44.56751" lon="3.16307">
        <ele>1248.89</ele>
        <time>2014-06-28T12:28:10Z</time>
      </trkpt>
      <trkpt lat="44.56742" lon="3.16311">
        <ele>1250.33</ele>
        <time>2014-06-28T12:28:19Z</time>
      </trkpt>
      <trkpt lat="44.56738" lon="3.16318">
        <ele>1251.29</ele>
        <time>2014-06-28T12:28:27Z</time>
      </trkpt>
      <trkpt lat="44.56734" lon="3.16319">
        <ele>1251.77</ele>
        <time>2014-06-28T12:28:31Z</time>
      </trkpt>
      <trkpt lat="44.56726" lon="3.16331">
        <ele>1252.25</ele>
        <time>2014-06-28T12:28:45Z</time>
      </trkpt>
      <trkpt lat="44.56723" lon="3.16334">
        <ele>1252.25</ele>
        <time>2014-06-28T12:28:49Z</time>
      </trkpt>
      <trkpt lat="44.5671" lon="3.16351">
        <ele>1253.22</ele>
        <time>2014-06-28T12:29:06Z</time>
      </trkpt>
      <trkpt lat="44.56704" lon="3.16356">
        <ele>1254.66</ele>
        <time>2014-06-28T12:29:17Z</time>
      </trkpt>
      <trkpt lat="44.56698" lon="3.16365">
        <ele>1256.1</ele>
        <time>2014-06-28T12:29:31Z</time>
      </trkpt>
      <trkpt lat="44.5669" lon="3.16377">
        <ele>1257.06</ele>
        <time>2014-06-28T12:29:43Z</time>
      </trkpt>
      <trkpt lat="44.5668" lon="3.16383">
        <ele>1257.54</ele>
        <time>2014-06-28T12:29:56Z</time>
      </trkpt>
      <trkpt lat="44.5667" lon="3.1639">
        <ele>1258.98</ele>
        <time>2014-06-28T12:30:08Z</time>
      </trkpt>
      <trkpt lat="44.56668" lon="3.16392">
        <ele>1258.98</ele>
        <time>2014-06-28T12:30:11Z</time>
      </trkpt>
      <trkpt lat="44.56655" lon="3.16406">
        <ele>1260.43</ele>
        <time>2014-06-28T12:30:26Z</time>
      </trkpt>
      <trkpt lat="44.56649" lon="3.16416">
        <ele>1261.87</ele>
        <time>2014-06-28T12:30:38Z</time>
      </trkpt>
      <trkpt lat="44.5664" lon="3.16424">
        <ele>1262.83</ele>
        <time>2014-06-28T12:30:49Z</time>
      </trkpt>
      <trkpt lat="44.56627" lon="3.16428">
        <ele>1262.83</ele>
        <time>2014-06-28T12:31:02Z</time>
      </trkpt>
      <trkpt lat="44.56623" lon="3.16429">
        <ele>1262.83</ele>
        <time>2014-06-28T12:31:05Z</time>
      </trkpt>
      <trkpt lat="44.56611" lon="3.16427">
        <ele>1262.83</ele>
        <time>2014-06-28T12:31:20Z</time>
      </trkpt>
      <trkpt lat="44.56612" lon="3.16428">
        <ele>1262.83</ele>
        <time>2014-06-28T12:31:30Z</time>
      </trkpt>
      <trkpt lat="44.5661" lon="3.16431">
        <ele>1262.83</ele>
        <time>2014-06-28T12:31:33Z</time>
      </trkpt>
      <trkpt lat="44.566" lon="3.16431">
        <ele>1264.75</ele>
        <time>2014-06-28T12:31:46Z</time>
      </trkpt>
      <trkpt lat="44.56592" lon="3.16436">
        <ele>1267.16</ele>
        <time>2014-06-28T12:31:58Z</time>
      </trkpt>
      <trkpt lat="44.56579" lon="3.16433">
        <ele>1268.6</ele>
        <time>2014-06-28T12:32:10Z</time>
      </trkpt>
      <trkpt lat="44.56576" lon="3.16433">
        <ele>1269.56</ele>
        <time>2014-06-28T12:32:14Z</time>
      </trkpt>
      <trkpt lat="44.5656" lon="3.1643">
        <ele>1270.52</ele>
        <time>2014-06-28T12:32:30Z</time>
      </trkpt>
      <trkpt lat="44.56551" lon="3.16418">
        <ele>1271.96</ele>
        <time>2014-06-28T12:32:44Z</time>
      </trkpt>
      <trkpt lat="44.56548" lon="3.16408">
        <ele>1273.88</ele>
        <time>2014-06-28T12:32:56Z</time>
      </trkpt>
      <trkpt lat="44.56544" lon="3.16399">
        <ele>1275.81</ele>
        <time>2014-06-28T12:33:09Z</time>
      </trkpt>
      <trkpt lat="44.56542" lon="3.16391">
        <ele>1276.77</ele>
        <time>2014-06-28T12:33:18Z</time>
      </trkpt>
      <trkpt lat="44.56535" lon="3.16386">
        <ele>1279.17</ele>
        <time>2014-06-28T12:33:33Z</time>
      </trkpt>
      <trkpt lat="44.56529" lon="3.16387">
        <ele>1281.09</ele>
        <time>2014-06-28T12:33:44Z</time>
      </trkpt>
      <trkpt lat="44.56524" lon="3.16394">
        <ele>1283.02</ele>
        <time>2014-06-28T12:33:54Z</time>
      </trkpt>
      <trkpt lat="44.56518" lon="3.16391">
        <ele>1283.98</ele>
        <time>2014-06-28T12:34:06Z</time>
      </trkpt>
      <trkpt lat="44.56514" lon="3.1639">
        <ele>1285.42</ele>
        <time>2014-06-28T12:34:18Z</time>
      </trkpt>
      <trkpt lat="44.56507" lon="3.16387">
        <ele>1287.34</ele>
        <time>2014-06-28T12:34:31Z</time>
      </trkpt>
      <trkpt lat="44.56501" lon="3.1639">
        <ele>1289.27</ele>
        <time>2014-06-28T12:34:43Z</time>
      </trkpt>
      <trkpt lat="44.56498" lon="3.16391">
        <ele>1290.23</ele>
        <time>2014-06-28T12:35:00Z</time>
      </trkpt>
      <trkpt lat="44.56492" lon="3.16384">
        <ele>1292.15</ele>
        <time>2014-06-28T12:35:10Z</time>
      </trkpt>
      <trkpt lat="44.56488" lon="3.16381">
        <ele>1293.59</ele>
        <time>2014-06-28T12:35:22Z</time>
      </trkpt>
      <trkpt lat="44.56483" lon="3.16377">
        <ele>1294.55</ele>
        <time>2014-06-28T12:35:33Z</time>
      </trkpt>
      <trkpt lat="44.56477" lon="3.16375">
        <ele>1296.48</ele>
        <time>2014-06-28T12:35:44Z</time>
      </trkpt>
      <trkpt lat="44.56469" lon="3.16373">
        <ele>1298.88</ele>
        <time>2014-06-28T12:35:58Z</time>
      </trkpt>
      <trkpt lat="44.56467" lon="3.16376">
        <ele>1299.84</ele>
        <time>2014-06-28T12:36:10Z</time>
      </trkpt>
      <trkpt lat="44.56462" lon="3.16375">
        <ele>1301.76</ele>
        <time>2014-06-28T12:36:22Z</time>
      </trkpt>
      <trkpt lat="44.56454" lon="3.16374">
        <ele>1304.65</ele>
        <time>2014-06-28T12:36:35Z</time>
      </trkpt>
      <trkpt lat="44.56449" lon="3.16367">
        <ele>1306.09</ele>
        <time>2014-06-28T12:36:48Z</time>
      </trkpt>
      <trkpt lat="44.56444" lon="3.16364">
        <ele>1307.05</ele>
        <time>2014-06-28T12:37:05Z</time>
      </trkpt>
      <trkpt lat="44.56435" lon="3.16359">
        <ele>1309.45</ele>
        <time>2014-06-28T12:37:19Z</time>
      </trkpt>
      <trkpt lat="44.56428" lon="3.16359">
        <ele>1311.38</ele>
        <time>2014-06-28T12:37:29Z</time>
      </trkpt>
      <trkpt lat="44.56429" lon="3.16355">
        <ele>1311.86</ele>
        <time>2014-06-28T12:37:43Z</time>
      </trkpt>
      <trkpt lat="44.56429" lon="3.16356">
        <ele>1311.86</ele>
        <time>2014-06-28T12:38:07Z</time>
      </trkpt>
      <trkpt lat="44.5643" lon="3.16357">
        <ele>1311.86</ele>
        <time>2014-06-28T12:38:30Z</time>
      </trkpt>
      <trkpt lat="44.5643" lon="3.16358">
        <ele>1311.86</ele>
        <time>2014-06-28T12:38:50Z</time>
      </trkpt>
      <trkpt lat="44.56428" lon="3.16359">
        <ele>1311.86</ele>
        <time>2014-06-28T12:39:15Z</time>
      </trkpt>
      <trkpt lat="44.56419" lon="3.16352">
        <ele>1312.34</ele>
        <time>2014-06-28T12:39:28Z</time>
      </trkpt>
      <trkpt lat="44.56411" lon="3.16348">
        <ele>1313.78</ele>
        <time>2014-06-28T12:39:40Z</time>
      </trkpt>
      <trkpt lat="44.56408" lon="3.16347">
        <ele>1313.78</ele>
        <time>2014-06-28T12:39:43Z</time>
      </trkpt>
      <trkpt lat="44.56407" lon="3.16345">
        <ele>1313.78</ele>
        <time>2014-06-28T12:39:45Z</time>
      </trkpt>
      <trkpt lat="44.56405" lon="3.16345">
        <ele>1314.26</ele>
        <time>2014-06-28T12:39:47Z</time>
      </trkpt>
      <trkpt lat="44.56395" lon="3.16335">
        <ele>1316.18</ele>
        <time>2014-06-28T12:40:03Z</time>
      </trkpt>
      <trkpt lat="44.56387" lon="3.16331">
        <ele>1316.66</ele>
        <time>2014-06-28T12:40:15Z</time>
      </trkpt>
      <trkpt lat="44.56377" lon="3.16326">
        <ele>1318.1</ele>
        <time>2014-06-28T12:40:27Z</time>
      </trkpt>
      <trkpt lat="44.56367" lon="3.16325">
        <ele>1319.07</ele>
        <time>2014-06-28T12:40:37Z</time>
      </trkpt>
      <trkpt lat="44.56366" lon="3.16324">
        <ele>1319.55</ele>
        <time>2014-06-28T12:40:39Z</time>
      </trkpt>
      <trkpt lat="44.56364" lon="3.16324">
        <ele>1320.03</ele>
        <time>2014-06-28T12:40:41Z</time>
      </trkpt>
      <trkpt lat="44.56361" lon="3.16321">
        <ele>1320.03</ele>
        <time>2014-06-28T12:40:44Z</time>
      </trkpt>
      <trkpt lat="44.56359" lon="3.1632">
        <ele>1320.03</ele>
        <time>2014-06-28T12:40:46Z</time>
      </trkpt>
      <trkpt lat="44.56354" lon="3.16317">
        <ele>1320.03</ele>
        <time>2014-06-28T12:40:51Z</time>
      </trkpt>
      <trkpt lat="44.5634" lon="3.16309">
        <ele>1320.99</ele>
        <time>2014-06-28T12:41:04Z</time>
      </trkpt>
      <trkpt lat="44.56326" lon="3.16301">
        <ele>1322.91</ele>
        <time>2014-06-28T12:41:20Z</time>
      </trkpt>
      <trkpt lat="44.56315" lon="3.16298">
        <ele>1324.35</ele>
        <time>2014-06-28T12:41:32Z</time>
      </trkpt>
      <trkpt lat="44.56304" lon="3.16292">
        <ele>1325.8</ele>
        <time>2014-06-28T12:41:45Z</time>
      </trkpt>
      <trkpt lat="44.56293" lon="3.16283">
        <ele>1327.72</ele>
        <time>2014-06-28T12:42:01Z</time>
      </trkpt>
      <trkpt lat="44.56284" lon="3.16276">
        <ele>1329.16</ele>
        <time>2014-06-28T12:42:16Z</time>
      </trkpt>
      <trkpt lat="44.56276" lon="3.16273">
        <ele>1330.12</ele>
        <time>2014-06-28T12:42:27Z</time>
      </trkpt>
      <trkpt lat="44.56267" lon="3.1627">
        <ele>1331.56</ele>
        <time>2014-06-28T12:42:38Z</time>
      </trkpt>
      <trkpt lat="44.56259" lon="3.16263">
        <ele>1334.45</ele>
        <time>2014-06-28T12:42:51Z</time>
      </trkpt>
      <trkpt lat="44.5625" lon="3.16259">
        <ele>1335.41</ele>
        <time>2014-06-28T12:43:03Z</time>
      </trkpt>
      <trkpt lat="44.56239" lon="3.16258">
        <ele>1336.85</ele>
        <time>2014-06-28T12:43:16Z</time>
      </trkpt>
      <trkpt lat="44.56237" lon="3.16258">
        <ele>1337.33</ele>
        <time>2014-06-28T12:43:19Z</time>
      </trkpt>
      <trkpt lat="44.56231" lon="3.16259">
        <ele>1339.73</ele>
        <time>2014-06-28T12:43:31Z</time>
      </trkpt>
      <trkpt lat="44.5623" lon="3.16258">
        <ele>1339.73</ele>
        <time>2014-06-28T12:43:33Z</time>
      </trkpt>
      <trkpt lat="44.56229" lon="3.16256">
        <ele>1339.73</ele>
        <time>2014-06-28T12:43:35Z</time>
      </trkpt>
      <trkpt lat="44.56225" lon="3.1625">
        <ele>1340.22</ele>
        <time>2014-06-28T12:43:41Z</time>
      </trkpt>
      <trkpt lat="44.56217" lon="3.16247">
        <ele>1341.18</ele>
        <time>2014-06-28T12:43:49Z</time>
      </trkpt>
      <trkpt lat="44.56215" lon="3.16246">
        <ele>1341.66</ele>
        <time>2014-06-28T12:43:51Z</time>
      </trkpt>
      <trkpt lat="44.56211" lon="3.16245">
        <ele>1341.66</ele>
        <time>2014-06-28T12:43:55Z</time>
      </trkpt>
      <trkpt lat="44.56206" lon="3.16243">
        <ele>1341.66</ele>
        <time>2014-06-28T12:44:01Z</time>
      </trkpt>
      <trkpt lat="44.56204" lon="3.16242">
        <ele>1342.14</ele>
        <time>2014-06-28T12:44:03Z</time>
      </trkpt>
      <trkpt lat="44.56202" lon="3.16242">
        <ele>1342.14</ele>
        <time>2014-06-28T12:44:05Z</time>
      </trkpt>
      <trkpt lat="44.56201" lon="3.16241">
        <ele>1342.62</ele>
        <time>2014-06-28T12:44:07Z</time>
      </trkpt>
      <trkpt lat="44.56199" lon="3.1624">
        <ele>1343.58</ele>
        <time>2014-06-28T12:44:09Z</time>
      </trkpt>
      <trkpt lat="44.56195" lon="3.16238">
        <ele>1344.06</ele>
        <time>2014-06-28T12:44:13Z</time>
      </trkpt>
      <trkpt lat="44.56186" lon="3.16229">
        <ele>1345.02</ele>
        <time>2014-06-28T12:44:26Z</time>
      </trkpt>
      <trkpt lat="44.56175" lon="3.16227">
        <ele>1346.94</ele>
        <time>2014-06-28T12:44:39Z</time>
      </trkpt>
      <trkpt lat="44.56164" lon="3.16225">
        <ele>1348.87</ele>
        <time>2014-06-28T12:44:51Z</time>
      </trkpt>
      <trkpt lat="44.56156" lon="3.1622">
        <ele>1348.87</ele>
        <time>2014-06-28T12:45:02Z</time>
      </trkpt>
      <trkpt lat="44.56155" lon="3.16219">
        <ele>1348.87</ele>
        <time>2014-06-28T12:45:15Z</time>
      </trkpt>
      <trkpt lat="44.56155" lon="3.16219">
        <ele>1347.43</ele>
        <time>2014-06-28T12:45:22Z</time>
      </trkpt>
      <trkpt lat="44.56156" lon="3.16216">
        <ele>1347.91</ele>
        <time>2014-06-28T12:46:00Z</time>
      </trkpt>
      <trkpt lat="44.56156" lon="3.16216">
        <ele>1347.43</ele>
        <time>2014-06-28T12:46:42Z</time>
      </trkpt>
      <trkpt lat="44.56156" lon="3.16217">
        <ele>1347.43</ele>
        <time>2014-06-28T12:47:17Z</time>
      </trkpt>
      <trkpt lat="44.56157" lon="3.16218">
        <ele>1348.87</ele>
        <time>2014-06-28T12:47:31Z</time>
      </trkpt>
      <trkpt lat="44.56156" lon="3.16217">
        <ele>1348.87</ele>
        <time>2014-06-28T12:47:44Z</time>
      </trkpt>
      <trkpt lat="44.56156" lon="3.16218">
        <ele>1348.87</ele>
        <time>2014-06-28T12:48:07Z</time>
      </trkpt>
      <trkpt lat="44.56153" lon="3.16222">
        <ele>1348.87</ele>
        <time>2014-06-28T12:48:30Z</time>
      </trkpt>
      <trkpt lat="44.56154" lon="3.16222">
        <ele>1348.87</ele>
        <time>2014-06-28T12:48:52Z</time>
      </trkpt>
      <trkpt lat="44.56146" lon="3.16218">
        <ele>1349.35</ele>
        <time>2014-06-28T12:49:06Z</time>
      </trkpt>
      <trkpt lat="44.56138" lon="3.16215">
        <ele>1350.79</ele>
        <time>2014-06-28T12:49:14Z</time>
      </trkpt>
      <trkpt lat="44.56132" lon="3.16212">
        <ele>1351.27</ele>
        <time>2014-06-28T12:49:21Z</time>
      </trkpt>
      <trkpt lat="44.56117" lon="3.16207">
        <ele>1351.27</ele>
        <time>2014-06-28T12:49:35Z</time>
      </trkpt>
      <trkpt lat="44.56103" lon="3.16204">
        <ele>1351.75</ele>
        <time>2014-06-28T12:49:48Z</time>
      </trkpt>
      <trkpt lat="44.56083" lon="3.162">
        <ele>1351.75</ele>
        <time>2014-06-28T12:50:05Z</time>
      </trkpt>
      <trkpt lat="44.56065" lon="3.16195">
        <ele>1352.23</ele>
        <time>2014-06-28T12:50:20Z</time>
      </trkpt>
      <trkpt lat="44.56049" lon="3.16192">
        <ele>1352.23</ele>
        <time>2014-06-28T12:50:33Z</time>
      </trkpt>
      <trkpt lat="44.56029" lon="3.16183">
        <ele>1350.79</ele>
        <time>2014-06-28T12:50:50Z</time>
      </trkpt>
      <trkpt lat="44.56012" lon="3.16178">
        <ele>1350.79</ele>
        <time>2014-06-28T12:51:05Z</time>
      </trkpt>
      <trkpt lat="44.56007" lon="3.16177">
        <ele>1351.27</ele>
        <time>2014-06-28T12:51:09Z</time>
      </trkpt>
      <trkpt lat="44.56002" lon="3.16177">
        <ele>1351.27</ele>
        <time>2014-06-28T12:51:13Z</time>
      </trkpt>
      <trkpt lat="44.55994" lon="3.16175">
        <ele>1351.27</ele>
        <time>2014-06-28T12:51:21Z</time>
      </trkpt>
      <trkpt lat="44.55981" lon="3.16172">
        <ele>1352.23</ele>
        <time>2014-06-28T12:51:31Z</time>
      </trkpt>
      <trkpt lat="44.55965" lon="3.16167">
        <ele>1353.19</ele>
        <time>2014-06-28T12:51:46Z</time>
      </trkpt>
      <trkpt lat="44.55949" lon="3.16163">
        <ele>1354.63</ele>
        <time>2014-06-28T12:52:02Z</time>
      </trkpt>
      <trkpt lat="44.55936" lon="3.1616">
        <ele>1356.08</ele>
        <time>2014-06-28T12:52:15Z</time>
      </trkpt>
      <trkpt lat="44.55921" lon="3.16156">
        <ele>1357.04</ele>
        <time>2014-06-28T12:52:28Z</time>
      </trkpt>
      <trkpt lat="44.55906" lon="3.16153">
        <ele>1358</ele>
        <time>2014-06-28T12:52:43Z</time>
      </trkpt>
      <trkpt lat="44.55896" lon="3.16151">
        <ele>1358.48</ele>
        <time>2014-06-28T12:52:52Z</time>
      </trkpt>
      <trkpt lat="44.55889" lon="3.16151">
        <ele>1358.48</ele>
        <time>2014-06-28T12:52:59Z</time>
      </trkpt>
      <trkpt lat="44.5588" lon="3.16148">
        <ele>1358.96</ele>
        <time>2014-06-28T12:53:13Z</time>
      </trkpt>
      <trkpt lat="44.5588" lon="3.16147">
        <ele>1359.92</ele>
        <time>2014-06-28T12:53:18Z</time>
      </trkpt>
      <trkpt lat="44.5588" lon="3.16146">
        <ele>1359.92</ele>
        <time>2014-06-28T12:53:28Z</time>
      </trkpt>
      <trkpt lat="44.55878" lon="3.16146">
        <ele>1359.92</ele>
        <time>2014-06-28T12:53:47Z</time>
      </trkpt>
      <trkpt lat="44.55876" lon="3.16145">
        <ele>1360.4</ele>
        <time>2014-06-28T12:54:01Z</time>
      </trkpt>
      <trkpt lat="44.55865" lon="3.16141">
        <ele>1360.88</ele>
        <time>2014-06-28T12:54:14Z</time>
      </trkpt>
      <trkpt lat="44.55855" lon="3.16121">
        <ele>1361.36</ele>
        <time>2014-06-28T12:54:29Z</time>
      </trkpt>
      <trkpt lat="44.55845" lon="3.16102">
        <ele>1361.36</ele>
        <time>2014-06-28T12:54:44Z</time>
      </trkpt>
      <trkpt lat="44.55833" lon="3.16082">
        <ele>1361.84</ele>
        <time>2014-06-28T12:55:00Z</time>
      </trkpt>
      <trkpt lat="44.55825" lon="3.1606">
        <ele>1361.84</ele>
        <time>2014-06-28T12:55:13Z</time>
      </trkpt>
      <trkpt lat="44.55824" lon="3.16056">
        <ele>1360.4</ele>
        <time>2014-06-28T12:55:15Z</time>
      </trkpt>
      <trkpt lat="44.55816" lon="3.1603">
        <ele>1359.92</ele>
        <time>2014-06-28T12:55:31Z</time>
      </trkpt>
      <trkpt lat="44.55811" lon="3.16015">
        <ele>1359.92</ele>
        <time>2014-06-28T12:55:40Z</time>
      </trkpt>
      <trkpt lat="44.558" lon="3.15988">
        <ele>1358.48</ele>
        <time>2014-06-28T12:55:57Z</time>
      </trkpt>
      <trkpt lat="44.55791" lon="3.15959">
        <ele>1358</ele>
        <time>2014-06-28T12:56:14Z</time>
      </trkpt>
      <trkpt lat="44.55783" lon="3.15939">
        <ele>1358.96</ele>
        <time>2014-06-28T12:56:26Z</time>
      </trkpt>
      <trkpt lat="44.55778" lon="3.1591">
        <ele>1360.4</ele>
        <time>2014-06-28T12:56:43Z</time>
      </trkpt>
      <trkpt lat="44.55773" lon="3.15886">
        <ele>1360.88</ele>
        <time>2014-06-28T12:56:58Z</time>
      </trkpt>
      <trkpt lat="44.5577" lon="3.1586">
        <ele>1361.84</ele>
        <time>2014-06-28T12:57:15Z</time>
      </trkpt>
      <trkpt lat="44.5577" lon="3.15852">
        <ele>1362.33</ele>
        <time>2014-06-28T12:57:29Z</time>
      </trkpt>
      <trkpt lat="44.55781" lon="3.15842">
        <ele>1362.81</ele>
        <time>2014-06-28T12:57:43Z</time>
      </trkpt>
      <trkpt lat="44.55788" lon="3.15836">
        <ele>1363.29</ele>
        <time>2014-06-28T12:57:51Z</time>
      </trkpt>
      <trkpt lat="44.55794" lon="3.1583">
        <ele>1363.77</ele>
        <time>2014-06-28T12:57:58Z</time>
      </trkpt>
      <trkpt lat="44.55807" lon="3.15819">
        <ele>1364.73</ele>
        <time>2014-06-28T12:58:12Z</time>
      </trkpt>
      <trkpt lat="44.55821" lon="3.15806">
        <ele>1365.69</ele>
        <time>2014-06-28T12:58:27Z</time>
      </trkpt>
      <trkpt lat="44.55831" lon="3.1579">
        <ele>1366.65</ele>
        <time>2014-06-28T12:58:41Z</time>
      </trkpt>
      <trkpt lat="44.55832" lon="3.15766">
        <ele>1367.61</ele>
        <time>2014-06-28T12:58:56Z</time>
      </trkpt>
      <trkpt lat="44.5583" lon="3.15742">
        <ele>1368.57</ele>
        <time>2014-06-28T12:59:12Z</time>
      </trkpt>
      <trkpt lat="44.55827" lon="3.15726">
        <ele>1368.57</ele>
        <time>2014-06-28T12:59:26Z</time>
      </trkpt>
      <trkpt lat="44.55822" lon="3.157">
        <ele>1368.57</ele>
        <time>2014-06-28T12:59:43Z</time>
      </trkpt>
      <trkpt lat="44.55818" lon="3.15669">
        <ele>1369.05</ele>
        <time>2014-06-28T12:59:59Z</time>
      </trkpt>
      <trkpt lat="44.55816" lon="3.15644">
        <ele>1369.05</ele>
        <time>2014-06-28T13:00:13Z</time>
      </trkpt>
      <trkpt lat="44.55814" lon="3.15615">
        <ele>1367.61</ele>
        <time>2014-06-28T13:00:29Z</time>
      </trkpt>
      <trkpt lat="44.55813" lon="3.15588">
        <ele>1367.61</ele>
        <time>2014-06-28T13:00:46Z</time>
      </trkpt>
      <trkpt lat="44.55813" lon="3.15572">
        <ele>1367.61</ele>
        <time>2014-06-28T13:00:56Z</time>
      </trkpt>
      <trkpt lat="44.55815" lon="3.15545">
        <ele>1367.61</ele>
        <time>2014-06-28T13:01:12Z</time>
      </trkpt>
      <trkpt lat="44.55816" lon="3.15521">
        <ele>1367.61</ele>
        <time>2014-06-28T13:01:26Z</time>
      </trkpt>
      <trkpt lat="44.55819" lon="3.1551">
        <ele>1367.61</ele>
        <time>2014-06-28T13:01:33Z</time>
      </trkpt>
      <trkpt lat="44.55821" lon="3.15501">
        <ele>1367.61</ele>
        <time>2014-06-28T13:01:39Z</time>
      </trkpt>
      <trkpt lat="44.55826" lon="3.15488">
        <ele>1368.57</ele>
        <time>2014-06-28T13:01:47Z</time>
      </trkpt>
      <trkpt lat="44.55839" lon="3.15467">
        <ele>1369.05</ele>
        <time>2014-06-28T13:02:03Z</time>
      </trkpt>
      <trkpt lat="44.55848" lon="3.15447">
        <ele>1369.05</ele>
        <time>2014-06-28T13:02:17Z</time>
      </trkpt>
      <trkpt lat="44.55861" lon="3.15418">
        <ele>1368.57</ele>
        <time>2014-06-28T13:02:37Z</time>
      </trkpt>
      <trkpt lat="44.55871" lon="3.1539">
        <ele>1368.57</ele>
        <time>2014-06-28T13:02:56Z</time>
      </trkpt>
      <trkpt lat="44.55879" lon="3.1536">
        <ele>1369.05</ele>
        <time>2014-06-28T13:03:13Z</time>
      </trkpt>
      <trkpt lat="44.55887" lon="3.15335">
        <ele>1368.57</ele>
        <time>2014-06-28T13:03:28Z</time>
      </trkpt>
      <trkpt lat="44.55891" lon="3.15315">
        <ele>1368.57</ele>
        <time>2014-06-28T13:03:39Z</time>
      </trkpt>
      <trkpt lat="44.55896" lon="3.15301">
        <ele>1368.57</ele>
        <time>2014-06-28T13:03:48Z</time>
      </trkpt>
      <trkpt lat="44.55902" lon="3.15273">
        <ele>1369.05</ele>
        <time>2014-06-28T13:04:03Z</time>
      </trkpt>
      <trkpt lat="44.55909" lon="3.15252">
        <ele>1369.54</ele>
        <time>2014-06-28T13:04:16Z</time>
      </trkpt>
      <trkpt lat="44.5591" lon="3.15248">
        <ele>1369.05</ele>
        <time>2014-06-28T13:04:19Z</time>
      </trkpt>
      <trkpt lat="44.5592" lon="3.15221">
        <ele>1369.54</ele>
        <time>2014-06-28T13:04:37Z</time>
      </trkpt>
      <trkpt lat="44.5593" lon="3.15197">
        <ele>1369.54</ele>
        <time>2014-06-28T13:04:53Z</time>
      </trkpt>
      <trkpt lat="44.55938" lon="3.15172">
        <ele>1369.54</ele>
        <time>2014-06-28T13:05:09Z</time>
      </trkpt>
      <trkpt lat="44.55939" lon="3.15169">
        <ele>1369.54</ele>
        <time>2014-06-28T13:05:11Z</time>
      </trkpt>
      <trkpt lat="44.55941" lon="3.15164">
        <ele>1369.54</ele>
        <time>2014-06-28T13:05:15Z</time>
      </trkpt>
      <trkpt lat="44.55949" lon="3.15136">
        <ele>1370.5</ele>
        <time>2014-06-28T13:05:31Z</time>
      </trkpt>
      <trkpt lat="44.55955" lon="3.15111">
        <ele>1370.02</ele>
        <time>2014-06-28T13:05:44Z</time>
      </trkpt>
      <trkpt lat="44.5596" lon="3.15094">
        <ele>1370.02</ele>
        <time>2014-06-28T13:05:54Z</time>
      </trkpt>
      <trkpt lat="44.55965" lon="3.15077">
        <ele>1370.5</ele>
        <time>2014-06-28T13:06:05Z</time>
      </trkpt>
      <trkpt lat="44.55973" lon="3.15055">
        <ele>1370.98</ele>
        <time>2014-06-28T13:06:19Z</time>
      </trkpt>
      <trkpt lat="44.55983" lon="3.15035">
        <ele>1371.46</ele>
        <time>2014-06-28T13:06:33Z</time>
      </trkpt>
      <trkpt lat="44.55984" lon="3.15032">
        <ele>1371.46</ele>
        <time>2014-06-28T13:06:35Z</time>
      </trkpt>
      <trkpt lat="44.55994" lon="3.15006">
        <ele>1371.46</ele>
        <time>2014-06-28T13:06:51Z</time>
      </trkpt>
      <trkpt lat="44.56001" lon="3.14986">
        <ele>1371.46</ele>
        <time>2014-06-28T13:07:04Z</time>
      </trkpt>
      <trkpt lat="44.56012" lon="3.14963">
        <ele>1371.46</ele>
        <time>2014-06-28T13:07:19Z</time>
      </trkpt>
      <trkpt lat="44.56022" lon="3.14942">
        <ele>1370.98</ele>
        <time>2014-06-28T13:07:33Z</time>
      </trkpt>
      <trkpt lat="44.56031" lon="3.14918">
        <ele>1370.98</ele>
        <time>2014-06-28T13:07:49Z</time>
      </trkpt>
      <trkpt lat="44.56035" lon="3.14899">
        <ele>1370.98</ele>
        <time>2014-06-28T13:08:00Z</time>
      </trkpt>
      <trkpt lat="44.56038" lon="3.14888">
        <ele>1370.02</ele>
        <time>2014-06-28T13:08:06Z</time>
      </trkpt>
      <trkpt lat="44.56043" lon="3.14858">
        <ele>1369.54</ele>
        <time>2014-06-28T13:08:23Z</time>
      </trkpt>
      <trkpt lat="44.56045" lon="3.14822">
        <ele>1368.57</ele>
        <time>2014-06-28T13:08:41Z</time>
      </trkpt>
      <trkpt lat="44.56047" lon="3.14795">
        <ele>1368.09</ele>
        <time>2014-06-28T13:08:56Z</time>
      </trkpt>
      <trkpt lat="44.56052" lon="3.14758">
        <ele>1367.61</ele>
        <time>2014-06-28T13:09:17Z</time>
      </trkpt>
      <trkpt lat="44.56058" lon="3.14733">
        <ele>1366.65</ele>
        <time>2014-06-28T13:09:32Z</time>
      </trkpt>
      <trkpt lat="44.56066" lon="3.14711">
        <ele>1366.65</ele>
        <time>2014-06-28T13:09:47Z</time>
      </trkpt>
      <trkpt lat="44.56075" lon="3.1469">
        <ele>1366.17</ele>
        <time>2014-06-28T13:10:02Z</time>
      </trkpt>
      <trkpt lat="44.56078" lon="3.14677">
        <ele>1366.17</ele>
        <time>2014-06-28T13:10:09Z</time>
      </trkpt>
      <trkpt lat="44.56091" lon="3.14645">
        <ele>1365.21</ele>
        <time>2014-06-28T13:10:27Z</time>
      </trkpt>
      <trkpt lat="44.56094" lon="3.14634">
        <ele>1365.21</ele>
        <time>2014-06-28T13:10:33Z</time>
      </trkpt>
      <trkpt lat="44.56107" lon="3.14604">
        <ele>1365.21</ele>
        <time>2014-06-28T13:10:52Z</time>
      </trkpt>
      <trkpt lat="44.56119" lon="3.1458">
        <ele>1365.21</ele>
        <time>2014-06-28T13:11:09Z</time>
      </trkpt>
      <trkpt lat="44.56133" lon="3.14561">
        <ele>1365.21</ele>
        <time>2014-06-28T13:11:24Z</time>
      </trkpt>
      <trkpt lat="44.56145" lon="3.14544">
        <ele>1366.65</ele>
        <time>2014-06-28T13:11:38Z</time>
      </trkpt>
      <trkpt lat="44.56148" lon="3.1454">
        <ele>1366.65</ele>
        <time>2014-06-28T13:11:42Z</time>
      </trkpt>
      <trkpt lat="44.5616" lon="3.14516">
        <ele>1368.09</ele>
        <time>2014-06-28T13:12:00Z</time>
      </trkpt>
      <trkpt lat="44.5616" lon="3.14514">
        <ele>1368.09</ele>
        <time>2014-06-28T13:12:01Z</time>
      </trkpt>
      <trkpt lat="44.56161" lon="3.14511">
        <ele>1368.09</ele>
        <time>2014-06-28T13:12:03Z</time>
      </trkpt>
      <trkpt lat="44.56169" lon="3.14491">
        <ele>1369.54</ele>
        <time>2014-06-28T13:12:17Z</time>
      </trkpt>
      <trkpt lat="44.56175" lon="3.14471">
        <ele>1369.54</ele>
        <time>2014-06-28T13:12:30Z</time>
      </trkpt>
      <trkpt lat="44.56181" lon="3.14445">
        <ele>1370.5</ele>
        <time>2014-06-28T13:12:45Z</time>
      </trkpt>
      <trkpt lat="44.56195" lon="3.14426">
        <ele>1371.46</ele>
        <time>2014-06-28T13:13:02Z</time>
      </trkpt>
      <trkpt lat="44.56206" lon="3.14414">
        <ele>1371.46</ele>
        <time>2014-06-28T13:13:15Z</time>
      </trkpt>
      <trkpt lat="44.56217" lon="3.14396">
        <ele>1372.42</ele>
        <time>2014-06-28T13:13:29Z</time>
      </trkpt>
      <trkpt lat="44.56227" lon="3.14373">
        <ele>1372.9</ele>
        <time>2014-06-28T13:13:45Z</time>
      </trkpt>
      <trkpt lat="44.56233" lon="3.14358">
        <ele>1375.3</ele>
        <time>2014-06-28T13:13:59Z</time>
      </trkpt>
      <trkpt lat="44.56238" lon="3.14346">
        <ele>1375.78</ele>
        <time>2014-06-28T13:14:09Z</time>
      </trkpt>
      <trkpt lat="44.56241" lon="3.1434">
        <ele>1376.75</ele>
        <time>2014-06-28T13:14:14Z</time>
      </trkpt>
      <trkpt lat="44.56252" lon="3.14334">
        <ele>1377.71</ele>
        <time>2014-06-28T13:14:25Z</time>
      </trkpt>
      <trkpt lat="44.5626" lon="3.14331">
        <ele>1378.19</ele>
        <time>2014-06-28T13:14:33Z</time>
      </trkpt>
      <trkpt lat="44.56262" lon="3.14329">
        <ele>1378.19</ele>
        <time>2014-06-28T13:14:35Z</time>
      </trkpt>
      <trkpt lat="44.56269" lon="3.14324">
        <ele>1379.15</ele>
        <time>2014-06-28T13:14:43Z</time>
      </trkpt>
      <trkpt lat="44.56272" lon="3.14321">
        <ele>1379.63</ele>
        <time>2014-06-28T13:14:46Z</time>
      </trkpt>
      <trkpt lat="44.56274" lon="3.14319">
        <ele>1379.63</ele>
        <time>2014-06-28T13:14:49Z</time>
      </trkpt>
      <trkpt lat="44.56283" lon="3.14306">
        <ele>1380.11</ele>
        <time>2014-06-28T13:15:00Z</time>
      </trkpt>
      <trkpt lat="44.56285" lon="3.14302">
        <ele>1380.11</ele>
        <time>2014-06-28T13:15:03Z</time>
      </trkpt>
      <trkpt lat="44.5629" lon="3.14292">
        <ele>1380.11</ele>
        <time>2014-06-28T13:15:11Z</time>
      </trkpt>
      <trkpt lat="44.56298" lon="3.14279">
        <ele>1380.11</ele>
        <time>2014-06-28T13:15:23Z</time>
      </trkpt>
      <trkpt lat="44.56311" lon="3.14255">
        <ele>1380.59</ele>
        <time>2014-06-28T13:15:41Z</time>
      </trkpt>
      <trkpt lat="44.56321" lon="3.14232">
        <ele>1381.55</ele>
        <time>2014-06-28T13:15:56Z</time>
      </trkpt>
      <trkpt lat="44.56332" lon="3.14213">
        <ele>1382.03</ele>
        <time>2014-06-28T13:16:11Z</time>
      </trkpt>
      <trkpt lat="44.56344" lon="3.14193">
        <ele>1382.99</ele>
        <time>2014-06-28T13:16:26Z</time>
      </trkpt>
      <trkpt lat="44.56351" lon="3.14171">
        <ele>1382.99</ele>
        <time>2014-06-28T13:16:41Z</time>
      </trkpt>
      <trkpt lat="44.56355" lon="3.14147">
        <ele>1383.96</ele>
        <time>2014-06-28T13:16:55Z</time>
      </trkpt>
      <trkpt lat="44.56358" lon="3.14141">
        <ele>1383.96</ele>
        <time>2014-06-28T13:17:00Z</time>
      </trkpt>
      <trkpt lat="44.56365" lon="3.14122">
        <ele>1385.4</ele>
        <time>2014-06-28T13:17:14Z</time>
      </trkpt>
      <trkpt lat="44.56374" lon="3.14098">
        <ele>1385.88</ele>
        <time>2014-06-28T13:17:30Z</time>
      </trkpt>
      <trkpt lat="44.56374" lon="3.14095">
        <ele>1385.88</ele>
        <time>2014-06-28T13:17:32Z</time>
      </trkpt>
      <trkpt lat="44.56376" lon="3.14091">
        <ele>1385.88</ele>
        <time>2014-06-28T13:17:35Z</time>
      </trkpt>
      <trkpt lat="44.56379" lon="3.14079">
        <ele>1386.36</ele>
        <time>2014-06-28T13:17:41Z</time>
      </trkpt>
      <trkpt lat="44.56386" lon="3.14052">
        <ele>1386.84</ele>
        <time>2014-06-28T13:17:58Z</time>
      </trkpt>
      <trkpt lat="44.56389" lon="3.14023">
        <ele>1387.32</ele>
        <time>2014-06-28T13:18:15Z</time>
      </trkpt>
      <trkpt lat="44.56391" lon="3.13998">
        <ele>1389.24</ele>
        <time>2014-06-28T13:18:30Z</time>
      </trkpt>
      <trkpt lat="44.56395" lon="3.13979">
        <ele>1389.24</ele>
        <time>2014-06-28T13:18:43Z</time>
      </trkpt>
      <trkpt lat="44.56396" lon="3.13976">
        <ele>1389.24</ele>
        <time>2014-06-28T13:18:45Z</time>
      </trkpt>
      <trkpt lat="44.564" lon="3.13948">
        <ele>1389.72</ele>
        <time>2014-06-28T13:19:05Z</time>
      </trkpt>
      <trkpt lat="44.56403" lon="3.13924">
        <ele>1389.72</ele>
        <time>2014-06-28T13:19:20Z</time>
      </trkpt>
      <trkpt lat="44.56407" lon="3.13896">
        <ele>1388.28</ele>
        <time>2014-06-28T13:19:36Z</time>
      </trkpt>
      <trkpt lat="44.5642" lon="3.13869">
        <ele>1388.28</ele>
        <time>2014-06-28T13:19:54Z</time>
      </trkpt>
      <trkpt lat="44.56425" lon="3.13854">
        <ele>1388.76</ele>
        <time>2014-06-28T13:20:05Z</time>
      </trkpt>
      <trkpt lat="44.56436" lon="3.13828">
        <ele>1389.24</ele>
        <time>2014-06-28T13:20:22Z</time>
      </trkpt>
      <trkpt lat="44.56442" lon="3.13806">
        <ele>1387.8</ele>
        <time>2014-06-28T13:20:36Z</time>
      </trkpt>
      <trkpt lat="44.56449" lon="3.13777">
        <ele>1389.24</ele>
        <time>2014-06-28T13:20:54Z</time>
      </trkpt>
      <trkpt lat="44.56456" lon="3.13752">
        <ele>1389.24</ele>
        <time>2014-06-28T13:21:09Z</time>
      </trkpt>
      <trkpt lat="44.56462" lon="3.13729">
        <ele>1389.24</ele>
        <time>2014-06-28T13:21:24Z</time>
      </trkpt>
      <trkpt lat="44.56464" lon="3.13723">
        <ele>1389.24</ele>
        <time>2014-06-28T13:21:28Z</time>
      </trkpt>
      <trkpt lat="44.56471" lon="3.13702">
        <ele>1388.28</ele>
        <time>2014-06-28T13:21:42Z</time>
      </trkpt>
      <trkpt lat="44.56478" lon="3.13674">
        <ele>1387.32</ele>
        <time>2014-06-28T13:22:00Z</time>
      </trkpt>
      <trkpt lat="44.56484" lon="3.13644">
        <ele>1387.32</ele>
        <time>2014-06-28T13:22:17Z</time>
      </trkpt>
      <trkpt lat="44.56483" lon="3.13632">
        <ele>1387.32</ele>
        <time>2014-06-28T13:22:32Z</time>
      </trkpt>
      <trkpt lat="44.56484" lon="3.13632">
        <ele>1387.32</ele>
        <time>2014-06-28T13:22:44Z</time>
      </trkpt>
      <trkpt lat="44.56489" lon="3.13616">
        <ele>1387.32</ele>
        <time>2014-06-28T13:22:56Z</time>
      </trkpt>
      <trkpt lat="44.56489" lon="3.13612">
        <ele>1388.28</ele>
        <time>2014-06-28T13:22:58Z</time>
      </trkpt>
      <trkpt lat="44.5649" lon="3.13585">
        <ele>1388.28</ele>
        <time>2014-06-28T13:23:14Z</time>
      </trkpt>
      <trkpt lat="44.56488" lon="3.13563">
        <ele>1387.32</ele>
        <time>2014-06-28T13:23:27Z</time>
      </trkpt>
      <trkpt lat="44.56486" lon="3.13549">
        <ele>1388.76</ele>
        <time>2014-06-28T13:23:36Z</time>
      </trkpt>
      <trkpt lat="44.56485" lon="3.13526">
        <ele>1389.72</ele>
        <time>2014-06-28T13:23:49Z</time>
      </trkpt>
      <trkpt lat="44.56491" lon="3.13499">
        <ele>1389.72</ele>
        <time>2014-06-28T13:24:05Z</time>
      </trkpt>
      <trkpt lat="44.56501" lon="3.13478">
        <ele>1388.76</ele>
        <time>2014-06-28T13:24:21Z</time>
      </trkpt>
      <trkpt lat="44.56506" lon="3.13464">
        <ele>1388.76</ele>
        <time>2014-06-28T13:24:30Z</time>
      </trkpt>
      <trkpt lat="44.56508" lon="3.13448">
        <ele>1387.8</ele>
        <time>2014-06-28T13:24:47Z</time>
      </trkpt>
      <trkpt lat="44.56509" lon="3.13445">
        <ele>1389.24</ele>
        <time>2014-06-28T13:24:57Z</time>
      </trkpt>
      <trkpt lat="44.56509" lon="3.13446">
        <ele>1389.24</ele>
        <time>2014-06-28T13:25:15Z</time>
      </trkpt>
      <trkpt lat="44.56509" lon="3.13446">
        <ele>1389.24</ele>
        <time>2014-06-28T13:25:37Z</time>
      </trkpt>
      <trkpt lat="44.56509" lon="3.13447">
        <ele>1387.8</ele>
        <time>2014-06-28T13:25:54Z</time>
      </trkpt>
      <trkpt lat="44.56509" lon="3.13442">
        <ele>1388.28</ele>
        <time>2014-06-28T13:26:08Z</time>
      </trkpt>
      <trkpt lat="44.56508" lon="3.13438">
        <ele>1388.28</ele>
        <time>2014-06-28T13:26:14Z</time>
      </trkpt>
      <trkpt lat="44.56505" lon="3.13415">
        <ele>1388.28</ele>
        <time>2014-06-28T13:26:28Z</time>
      </trkpt>
      <trkpt lat="44.5651" lon="3.13402">
        <ele>1389.24</ele>
        <time>2014-06-28T13:26:37Z</time>
      </trkpt>
      <trkpt lat="44.56511" lon="3.134">
        <ele>1389.72</ele>
        <time>2014-06-28T13:26:39Z</time>
      </trkpt>
      <trkpt lat="44.56518" lon="3.13393">
        <ele>1391.17</ele>
        <time>2014-06-28T13:26:46Z</time>
      </trkpt>
      <trkpt lat="44.56537" lon="3.13383">
        <ele>1391.17</ele>
        <time>2014-06-28T13:27:03Z</time>
      </trkpt>
      <trkpt lat="44.56539" lon="3.13382">
        <ele>1391.17</ele>
        <time>2014-06-28T13:27:05Z</time>
      </trkpt>
      <trkpt lat="44.56541" lon="3.1338">
        <ele>1391.17</ele>
        <time>2014-06-28T13:27:07Z</time>
      </trkpt>
      <trkpt lat="44.56546" lon="3.13376">
        <ele>1391.17</ele>
        <time>2014-06-28T13:27:12Z</time>
      </trkpt>
      <trkpt lat="44.56558" lon="3.13362">
        <ele>1391.65</ele>
        <time>2014-06-28T13:27:26Z</time>
      </trkpt>
      <trkpt lat="44.56575" lon="3.13339">
        <ele>1391.65</ele>
        <time>2014-06-28T13:27:45Z</time>
      </trkpt>
      <trkpt lat="44.56587" lon="3.13315">
        <ele>1391.65</ele>
        <time>2014-06-28T13:28:01Z</time>
      </trkpt>
      <trkpt lat="44.566" lon="3.13295">
        <ele>1391.65</ele>
        <time>2014-06-28T13:28:16Z</time>
      </trkpt>
      <trkpt lat="44.56606" lon="3.13286">
        <ele>1392.13</ele>
        <time>2014-06-28T13:28:23Z</time>
      </trkpt>
      <trkpt lat="44.56618" lon="3.13269">
        <ele>1392.61</ele>
        <time>2014-06-28T13:28:36Z</time>
      </trkpt>
      <trkpt lat="44.56628" lon="3.1325">
        <ele>1392.61</ele>
        <time>2014-06-28T13:28:50Z</time>
      </trkpt>
      <trkpt lat="44.5664" lon="3.13228">
        <ele>1392.61</ele>
        <time>2014-06-28T13:29:07Z</time>
      </trkpt>
      <trkpt lat="44.56651" lon="3.13206">
        <ele>1392.61</ele>
        <time>2014-06-28T13:29:22Z</time>
      </trkpt>
      <trkpt lat="44.56653" lon="3.13202">
        <ele>1392.61</ele>
        <time>2014-06-28T13:29:25Z</time>
      </trkpt>
      <trkpt lat="44.56663" lon="3.13185">
        <ele>1392.61</ele>
        <time>2014-06-28T13:29:39Z</time>
      </trkpt>
      <trkpt lat="44.56669" lon="3.13177">
        <ele>1392.61</ele>
        <time>2014-06-28T13:29:46Z</time>
      </trkpt>
      <trkpt lat="44.56674" lon="3.13168">
        <ele>1392.13</ele>
        <time>2014-06-28T13:29:53Z</time>
      </trkpt>
      <trkpt lat="44.56678" lon="3.1316">
        <ele>1391.17</ele>
        <time>2014-06-28T13:29:59Z</time>
      </trkpt>
      <trkpt lat="44.56687" lon="3.13146">
        <ele>1390.68</ele>
        <time>2014-06-28T13:30:10Z</time>
      </trkpt>
      <trkpt lat="44.56697" lon="3.13129">
        <ele>1390.68</ele>
        <time>2014-06-28T13:30:24Z</time>
      </trkpt>
      <trkpt lat="44.56704" lon="3.1312">
        <ele>1390.68</ele>
        <time>2014-06-28T13:30:32Z</time>
      </trkpt>
      <trkpt lat="44.56716" lon="3.13097">
        <ele>1390.2</ele>
        <time>2014-06-28T13:30:48Z</time>
      </trkpt>
      <trkpt lat="44.56727" lon="3.13069">
        <ele>1390.2</ele>
        <time>2014-06-28T13:31:05Z</time>
      </trkpt>
      <trkpt lat="44.56732" lon="3.13055">
        <ele>1389.72</ele>
        <time>2014-06-28T13:31:13Z</time>
      </trkpt>
      <trkpt lat="44.56734" lon="3.13049">
        <ele>1389.72</ele>
        <time>2014-06-28T13:31:17Z</time>
      </trkpt>
      <trkpt lat="44.56745" lon="3.13021">
        <ele>1388.76</ele>
        <time>2014-06-28T13:31:35Z</time>
      </trkpt>
      <trkpt lat="44.56755" lon="3.12996">
        <ele>1388.76</ele>
        <time>2014-06-28T13:31:52Z</time>
      </trkpt>
      <trkpt lat="44.56766" lon="3.12967">
        <ele>1388.76</ele>
        <time>2014-06-28T13:32:09Z</time>
      </trkpt>
      <trkpt lat="44.56776" lon="3.12942">
        <ele>1388.28</ele>
        <time>2014-06-28T13:32:25Z</time>
      </trkpt>
      <trkpt lat="44.56777" lon="3.12939">
        <ele>1388.28</ele>
        <time>2014-06-28T13:32:27Z</time>
      </trkpt>
      <trkpt lat="44.56788" lon="3.12912">
        <ele>1387.8</ele>
        <time>2014-06-28T13:32:44Z</time>
      </trkpt>
      <trkpt lat="44.56793" lon="3.12896">
        <ele>1387.32</ele>
        <time>2014-06-28T13:32:54Z</time>
      </trkpt>
      <trkpt lat="44.568" lon="3.12874">
        <ele>1386.84</ele>
        <time>2014-06-28T13:33:09Z</time>
      </trkpt>
      <trkpt lat="44.56805" lon="3.12864">
        <ele>1386.36</ele>
        <time>2014-06-28T13:33:17Z</time>
      </trkpt>
      <trkpt lat="44.56816" lon="3.12843">
        <ele>1384.92</ele>
        <time>2014-06-28T13:33:33Z</time>
      </trkpt>
      <trkpt lat="44.56831" lon="3.12823">
        <ele>1382.99</ele>
        <time>2014-06-28T13:33:50Z</time>
      </trkpt>
      <trkpt lat="44.56838" lon="3.12811">
        <ele>1382.99</ele>
        <time>2014-06-28T13:34:00Z</time>
      </trkpt>
      <trkpt lat="44.56848" lon="3.1279">
        <ele>1381.07</ele>
        <time>2014-06-28T13:34:15Z</time>
      </trkpt>
      <trkpt lat="44.56858" lon="3.12769">
        <ele>1380.11</ele>
        <time>2014-06-28T13:34:29Z</time>
      </trkpt>
      <trkpt lat="44.56862" lon="3.12763">
        <ele>1378.67</ele>
        <time>2014-06-28T13:34:34Z</time>
      </trkpt>
      <trkpt lat="44.56875" lon="3.12738">
        <ele>1376.75</ele>
        <time>2014-06-28T13:34:51Z</time>
      </trkpt>
      <trkpt lat="44.56882" lon="3.1272">
        <ele>1375.3</ele>
        <time>2014-06-28T13:35:06Z</time>
      </trkpt>
      <trkpt lat="44.56882" lon="3.12718">
        <ele>1375.3</ele>
        <time>2014-06-28T13:35:17Z</time>
      </trkpt>
      <trkpt lat="44.56881" lon="3.12717">
        <ele>1375.3</ele>
        <time>2014-06-28T13:35:30Z</time>
      </trkpt>
      <trkpt lat="44.56881" lon="3.12717">
        <ele>1375.3</ele>
        <time>2014-06-28T13:35:47Z</time>
      </trkpt>
      <trkpt lat="44.56884" lon="3.12713">
        <ele>1375.3</ele>
        <time>2014-06-28T13:35:53Z</time>
      </trkpt>
      <trkpt lat="44.56895" lon="3.12694">
        <ele>1373.86</ele>
        <time>2014-06-28T13:36:07Z</time>
      </trkpt>
      <trkpt lat="44.56896" lon="3.12693">
        <ele>1373.86</ele>
        <time>2014-06-28T13:36:09Z</time>
      </trkpt>
      <trkpt lat="44.56898" lon="3.12683">
        <ele>1372.9</ele>
        <time>2014-06-28T13:36:16Z</time>
      </trkpt>
      <trkpt lat="44.569" lon="3.12677">
        <ele>1371.94</ele>
        <time>2014-06-28T13:36:20Z</time>
      </trkpt>
      <trkpt lat="44.56903" lon="3.12656">
        <ele>1370.98</ele>
        <time>2014-06-28T13:36:33Z</time>
      </trkpt>
      <trkpt lat="44.56904" lon="3.12652">
        <ele>1370.5</ele>
        <time>2014-06-28T13:36:35Z</time>
      </trkpt>
      <trkpt lat="44.56907" lon="3.12642">
        <ele>1369.54</ele>
        <time>2014-06-28T13:36:42Z</time>
      </trkpt>
      <trkpt lat="44.56908" lon="3.12637">
        <ele>1369.05</ele>
        <time>2014-06-28T13:36:45Z</time>
      </trkpt>
      <trkpt lat="44.56918" lon="3.12629">
        <ele>1367.61</ele>
        <time>2014-06-28T13:36:59Z</time>
      </trkpt>
      <trkpt lat="44.56921" lon="3.12623">
        <ele>1367.61</ele>
        <time>2014-06-28T13:37:04Z</time>
      </trkpt>
      <trkpt lat="44.56922" lon="3.12611">
        <ele>1366.65</ele>
        <time>2014-06-28T13:37:12Z</time>
      </trkpt>
      <trkpt lat="44.56926" lon="3.12598">
        <ele>1365.69</ele>
        <time>2014-06-28T13:37:21Z</time>
      </trkpt>
      <trkpt lat="44.56932" lon="3.1259">
        <ele>1364.25</ele>
        <time>2014-06-28T13:37:30Z</time>
      </trkpt>
      <trkpt lat="44.56933" lon="3.12586">
        <ele>1363.77</ele>
        <time>2014-06-28T13:37:33Z</time>
      </trkpt>
      <trkpt lat="44.56933" lon="3.12581">
        <ele>1363.77</ele>
        <time>2014-06-28T13:37:37Z</time>
      </trkpt>
      <trkpt lat="44.56938" lon="3.12563">
        <ele>1362.33</ele>
        <time>2014-06-28T13:37:51Z</time>
      </trkpt>
      <trkpt lat="44.56939" lon="3.12559">
        <ele>1362.33</ele>
        <time>2014-06-28T13:37:54Z</time>
      </trkpt>
      <trkpt lat="44.5695" lon="3.12539">
        <ele>1361.36</ele>
        <time>2014-06-28T13:38:10Z</time>
      </trkpt>
      <trkpt lat="44.56952" lon="3.12537">
        <ele>1361.36</ele>
        <time>2014-06-28T13:38:12Z</time>
      </trkpt>
      <trkpt lat="44.56963" lon="3.1252">
        <ele>1358.96</ele>
        <time>2014-06-28T13:38:27Z</time>
      </trkpt>
      <trkpt lat="44.56967" lon="3.12511">
        <ele>1358.96</ele>
        <time>2014-06-28T13:38:34Z</time>
      </trkpt>
      <trkpt lat="44.56981" lon="3.12492">
        <ele>1357.04</ele>
        <time>2014-06-28T13:38:51Z</time>
      </trkpt>
      <trkpt lat="44.56985" lon="3.12487">
        <ele>1357.04</ele>
        <time>2014-06-28T13:38:56Z</time>
      </trkpt>
      <trkpt lat="44.5699" lon="3.12481">
        <ele>1357.52</ele>
        <time>2014-06-28T13:39:01Z</time>
      </trkpt>
      <trkpt lat="44.56993" lon="3.12478">
        <ele>1357.52</ele>
        <time>2014-06-28T13:39:04Z</time>
      </trkpt>
      <trkpt lat="44.57" lon="3.12471">
        <ele>1356.08</ele>
        <time>2014-06-28T13:39:12Z</time>
      </trkpt>
      <trkpt lat="44.57006" lon="3.12467">
        <ele>1356.08</ele>
        <time>2014-06-28T13:39:19Z</time>
      </trkpt>
      <trkpt lat="44.57016" lon="3.12453">
        <ele>1354.15</ele>
        <time>2014-06-28T13:39:33Z</time>
      </trkpt>
      <trkpt lat="44.57023" lon="3.12437">
        <ele>1352.71</ele>
        <time>2014-06-28T13:39:47Z</time>
      </trkpt>
      <trkpt lat="44.57025" lon="3.12432">
        <ele>1351.27</ele>
        <time>2014-06-28T13:39:51Z</time>
      </trkpt>
      <trkpt lat="44.57028" lon="3.12422">
        <ele>1351.27</ele>
        <time>2014-06-28T13:40:00Z</time>
      </trkpt>
      <trkpt lat="44.5703" lon="3.12416">
        <ele>1349.83</ele>
        <time>2014-06-28T13:40:04Z</time>
      </trkpt>
      <trkpt lat="44.57041" lon="3.12403">
        <ele>1349.83</ele>
        <time>2014-06-28T13:40:17Z</time>
      </trkpt>
      <trkpt lat="44.57059" lon="3.1239">
        <ele>1348.87</ele>
        <time>2014-06-28T13:40:35Z</time>
      </trkpt>
      <trkpt lat="44.57062" lon="3.12389">
        <ele>1348.87</ele>
        <time>2014-06-28T13:40:38Z</time>
      </trkpt>
      <trkpt lat="44.57066" lon="3.12384">
        <ele>1348.39</ele>
        <time>2014-06-28T13:40:43Z</time>
      </trkpt>
      <trkpt lat="44.57084" lon="3.12381">
        <ele>1347.91</ele>
        <time>2014-06-28T13:40:59Z</time>
      </trkpt>
      <trkpt lat="44.57099" lon="3.12377">
        <ele>1347.91</ele>
        <time>2014-06-28T13:41:13Z</time>
      </trkpt>
      <trkpt lat="44.57115" lon="3.12371">
        <ele>1347.43</ele>
        <time>2014-06-28T13:41:28Z</time>
      </trkpt>
      <trkpt lat="44.57128" lon="3.12365">
        <ele>1346.94</ele>
        <time>2014-06-28T13:41:42Z</time>
      </trkpt>
      <trkpt lat="44.57129" lon="3.12364">
        <ele>1346.94</ele>
        <time>2014-06-28T13:41:43Z</time>
      </trkpt>
      <trkpt lat="44.57132" lon="3.12361">
        <ele>1346.46</ele>
        <time>2014-06-28T13:41:47Z</time>
      </trkpt>
      <trkpt lat="44.57134" lon="3.12354">
        <ele>1345.98</ele>
        <time>2014-06-28T13:42:01Z</time>
      </trkpt>
      <trkpt lat="44.57134" lon="3.12353">
        <ele>1346.94</ele>
        <time>2014-06-28T13:42:10Z</time>
      </trkpt>
      <trkpt lat="44.57135" lon="3.12348">
        <ele>1345.98</ele>
        <time>2014-06-28T13:42:25Z</time>
      </trkpt>
      <trkpt lat="44.57138" lon="3.12326">
        <ele>1344.54</ele>
        <time>2014-06-28T13:42:39Z</time>
      </trkpt>
      <trkpt lat="44.5714" lon="3.12316">
        <ele>1344.54</ele>
        <time>2014-06-28T13:42:45Z</time>
      </trkpt>
      <trkpt lat="44.57141" lon="3.12308">
        <ele>1345.02</ele>
        <time>2014-06-28T13:42:50Z</time>
      </trkpt>
      <trkpt lat="44.57143" lon="3.12294">
        <ele>1343.58</ele>
        <time>2014-06-28T13:42:59Z</time>
      </trkpt>
      <trkpt lat="44.57143" lon="3.12287">
        <ele>1343.58</ele>
        <time>2014-06-28T13:43:04Z</time>
      </trkpt>
      <trkpt lat="44.57146" lon="3.12281">
        <ele>1343.58</ele>
        <time>2014-06-28T13:43:18Z</time>
      </trkpt>
      <trkpt lat="44.57147" lon="3.12272">
        <ele>1343.1</ele>
        <time>2014-06-28T13:43:28Z</time>
      </trkpt>
      <trkpt lat="44.57148" lon="3.12266">
        <ele>1343.1</ele>
        <time>2014-06-28T13:43:32Z</time>
      </trkpt>
      <trkpt lat="44.57152" lon="3.12243">
        <ele>1343.1</ele>
        <time>2014-06-28T13:43:47Z</time>
      </trkpt>
      <trkpt lat="44.57153" lon="3.12241">
        <ele>1343.1</ele>
        <time>2014-06-28T13:43:49Z</time>
      </trkpt>
      <trkpt lat="44.57159" lon="3.12235">
        <ele>1343.58</ele>
        <time>2014-06-28T13:44:02Z</time>
      </trkpt>
      <trkpt lat="44.5716" lon="3.12235">
        <ele>1341.18</ele>
        <time>2014-06-28T13:44:15Z</time>
      </trkpt>
      <trkpt lat="44.5716" lon="3.12235">
        <ele>1342.62</ele>
        <time>2014-06-28T13:44:23Z</time>
      </trkpt>
      <trkpt lat="44.5716" lon="3.12236">
        <ele>1341.18</ele>
        <time>2014-06-28T13:44:27Z</time>
      </trkpt>
      <trkpt lat="44.57161" lon="3.12233">
        <ele>1342.62</ele>
        <time>2014-06-28T13:44:48Z</time>
      </trkpt>
      <trkpt lat="44.57161" lon="3.12232">
        <ele>1340.7</ele>
        <time>2014-06-28T13:45:10Z</time>
      </trkpt>
      <trkpt lat="44.57161" lon="3.12232">
        <ele>1342.14</ele>
        <time>2014-06-28T13:45:14Z</time>
      </trkpt>
      <trkpt lat="44.57161" lon="3.12232">
        <ele>1341.18</ele>
        <time>2014-06-28T13:45:24Z</time>
      </trkpt>
      <trkpt lat="44.57161" lon="3.12232">
        <ele>1340.7</ele>
        <time>2014-06-28T13:45:49Z</time>
      </trkpt>
      <trkpt lat="44.57161" lon="3.12233">
        <ele>1342.14</ele>
        <time>2014-06-28T13:45:53Z</time>
      </trkpt>
      <trkpt lat="44.57162" lon="3.12233">
        <ele>1341.66</ele>
        <time>2014-06-28T13:46:04Z</time>
      </trkpt>
      <trkpt lat="44.57161" lon="3.12231">
        <ele>1342.14</ele>
        <time>2014-06-28T13:46:27Z</time>
      </trkpt>
      <trkpt lat="44.57162" lon="3.12233">
        <ele>1340.7</ele>
        <time>2014-06-28T13:46:38Z</time>
      </trkpt>
      <trkpt lat="44.57162" lon="3.12232">
        <ele>1341.66</ele>
        <time>2014-06-28T13:46:48Z</time>
      </trkpt>
      <trkpt lat="44.57163" lon="3.12233">
        <ele>1340.7</ele>
        <time>2014-06-28T13:47:11Z</time>
      </trkpt>
      <trkpt lat="44.57163" lon="3.12232">
        <ele>1340.7</ele>
        <time>2014-06-28T13:47:12Z</time>
      </trkpt>
      <trkpt lat="44.57163" lon="3.12232">
        <ele>1342.14</ele>
        <time>2014-06-28T13:47:20Z</time>
      </trkpt>
      <trkpt lat="44.57163" lon="3.1223">
        <ele>1342.14</ele>
        <time>2014-06-28T13:47:53Z</time>
      </trkpt>
      <trkpt lat="44.57163" lon="3.12231">
        <ele>1342.14</ele>
        <time>2014-06-28T13:48:19Z</time>
      </trkpt>
      <trkpt lat="44.57166" lon="3.12234">
        <ele>1342.62</ele>
        <time>2014-06-28T13:48:39Z</time>
      </trkpt>
      <trkpt lat="44.57167" lon="3.12232">
        <ele>1342.14</ele>
        <time>2014-06-28T13:49:13Z</time>
      </trkpt>
      <trkpt lat="44.57167" lon="3.12233">
        <ele>1340.22</ele>
        <time>2014-06-28T13:49:42Z</time>
      </trkpt>
      <trkpt lat="44.57167" lon="3.12232">
        <ele>1340.7</ele>
        <time>2014-06-28T13:49:46Z</time>
      </trkpt>
      <trkpt lat="44.57162" lon="3.12233">
        <ele>1340.7</ele>
        <time>2014-06-28T13:50:07Z</time>
      </trkpt>
      <trkpt lat="44.57162" lon="3.12234">
        <ele>1340.22</ele>
        <time>2014-06-28T13:50:21Z</time>
      </trkpt>
      <trkpt lat="44.5716" lon="3.12235">
        <ele>1341.66</ele>
        <time>2014-06-28T13:50:38Z</time>
      </trkpt>
      <trkpt lat="44.57159" lon="3.12234">
        <ele>1341.66</ele>
        <time>2014-06-28T13:50:55Z</time>
      </trkpt>
      <trkpt lat="44.57157" lon="3.12233">
        <ele>1342.14</ele>
        <time>2014-06-28T13:51:17Z</time>
      </trkpt>
      <trkpt lat="44.57156" lon="3.12236">
        <ele>1342.14</ele>
        <time>2014-06-28T13:51:43Z</time>
      </trkpt>
      <trkpt lat="44.57157" lon="3.12237">
        <ele>1342.62</ele>
        <time>2014-06-28T13:52:03Z</time>
      </trkpt>
      <trkpt lat="44.5716" lon="3.12235">
        <ele>1341.66</ele>
        <time>2014-06-28T13:52:20Z</time>
      </trkpt>
      <trkpt lat="44.57161" lon="3.12234">
        <ele>1341.18</ele>
        <time>2014-06-28T13:52:42Z</time>
      </trkpt>
      <trkpt lat="44.57165" lon="3.12235">
        <ele>1341.18</ele>
        <time>2014-06-28T13:53:01Z</time>
      </trkpt>
      <trkpt lat="44.57162" lon="3.12236">
        <ele>1341.18</ele>
        <time>2014-06-28T13:53:26Z</time>
      </trkpt>
      <trkpt lat="44.57161" lon="3.12236">
        <ele>1341.18</ele>
        <time>2014-06-28T13:53:55Z</time>
      </trkpt>
      <trkpt lat="44.57163" lon="3.12235">
        <ele>1341.18</ele>
        <time>2014-06-28T13:54:20Z</time>
      </trkpt>
      <trkpt lat="44.57163" lon="3.12233">
        <ele>1341.18</ele>
        <time>2014-06-28T13:54:55Z</time>
      </trkpt>
      <trkpt lat="44.57163" lon="3.12235">
        <ele>1341.66</ele>
        <time>2014-06-28T13:55:24Z</time>
      </trkpt>
      <trkpt lat="44.57161" lon="3.12233">
        <ele>1341.18</ele>
        <time>2014-06-28T13:56:00Z</time>
      </trkpt>
      <trkpt lat="44.57161" lon="3.12233">
        <ele>1341.18</ele>
        <time>2014-06-28T13:56:30Z</time>
      </trkpt>
      <trkpt lat="44.57162" lon="3.12232">
        <ele>1340.7</ele>
        <time>2014-06-28T13:57:05Z</time>
      </trkpt>
      <trkpt lat="44.57163" lon="3.12234">
        <ele>1340.7</ele>
        <time>2014-06-28T13:57:48Z</time>
      </trkpt>
      <trkpt lat="44.57163" lon="3.12236">
        <ele>1341.66</ele>
        <time>2014-06-28T13:58:04Z</time>
      </trkpt>
      <trkpt lat="44.57162" lon="3.12235">
        <ele>1340.7</ele>
        <time>2014-06-28T13:58:41Z</time>
      </trkpt>
      <trkpt lat="44.57163" lon="3.12236">
        <ele>1340.7</ele>
        <time>2014-06-28T13:59:19Z</time>
      </trkpt>
      <trkpt lat="44.57161" lon="3.12237">
        <ele>1340.22</ele>
        <time>2014-06-28T13:59:48Z</time>
      </trkpt>
      <trkpt lat="44.57161" lon="3.12235">
        <ele>1341.66</ele>
        <time>2014-06-28T14:00:16Z</time>
      </trkpt>
      <trkpt lat="44.57159" lon="3.12233">
        <ele>1341.66</ele>
        <time>2014-06-28T14:00:52Z</time>
      </trkpt>
      <trkpt lat="44.57161" lon="3.12232">
        <ele>1340.22</ele>
        <time>2014-06-28T14:01:08Z</time>
      </trkpt>
      <trkpt lat="44.57161" lon="3.12233">
        <ele>1341.18</ele>
        <time>2014-06-28T14:01:31Z</time>
      </trkpt>
      <trkpt lat="44.57159" lon="3.12231">
        <ele>1341.66</ele>
        <time>2014-06-28T14:01:46Z</time>
      </trkpt>
      <trkpt lat="44.57154" lon="3.12227">
        <ele>1340.7</ele>
        <time>2014-06-28T14:02:02Z</time>
      </trkpt>
      <trkpt lat="44.57152" lon="3.12222">
        <ele>1340.22</ele>
        <time>2014-06-28T14:02:13Z</time>
      </trkpt>
      <trkpt lat="44.57154" lon="3.12208">
        <ele>1341.18</ele>
        <time>2014-06-28T14:02:23Z</time>
      </trkpt>
      <trkpt lat="44.57161" lon="3.12194">
        <ele>1340.22</ele>
        <time>2014-06-28T14:02:35Z</time>
      </trkpt>
      <trkpt lat="44.57175" lon="3.12169">
        <ele>1338.77</ele>
        <time>2014-06-28T14:02:54Z</time>
      </trkpt>
      <trkpt lat="44.57186" lon="3.12143">
        <ele>1338.29</ele>
        <time>2014-06-28T14:03:14Z</time>
      </trkpt>
      <trkpt lat="44.57191" lon="3.12128">
        <ele>1337.33</ele>
        <time>2014-06-28T14:03:25Z</time>
      </trkpt>
      <trkpt lat="44.57198" lon="3.12103">
        <ele>1336.85</ele>
        <time>2014-06-28T14:03:39Z</time>
      </trkpt>
      <trkpt lat="44.57199" lon="3.1209">
        <ele>1334.93</ele>
        <time>2014-06-28T14:03:47Z</time>
      </trkpt>
      <trkpt lat="44.572" lon="3.12081">
        <ele>1335.89</ele>
        <time>2014-06-28T14:03:52Z</time>
      </trkpt>
      <trkpt lat="44.57201" lon="3.12074">
        <ele>1334.93</ele>
        <time>2014-06-28T14:03:56Z</time>
      </trkpt>
      <trkpt lat="44.572" lon="3.12055">
        <ele>1333.97</ele>
        <time>2014-06-28T14:04:07Z</time>
      </trkpt>
      <trkpt lat="44.57199" lon="3.12046">
        <ele>1333.49</ele>
        <time>2014-06-28T14:04:12Z</time>
      </trkpt>
      <trkpt lat="44.57193" lon="3.12001">
        <ele>1331.08</ele>
        <time>2014-06-28T14:04:38Z</time>
      </trkpt>
      <trkpt lat="44.57192" lon="3.11994">
        <ele>1332.04</ele>
        <time>2014-06-28T14:04:42Z</time>
      </trkpt>
      <trkpt lat="44.57191" lon="3.11983">
        <ele>1330.6</ele>
        <time>2014-06-28T14:04:48Z</time>
      </trkpt>
      <trkpt lat="44.5719" lon="3.11974">
        <ele>1331.56</ele>
        <time>2014-06-28T14:04:53Z</time>
      </trkpt>
      <trkpt lat="44.57189" lon="3.11969">
        <ele>1330.6</ele>
        <time>2014-06-28T14:04:56Z</time>
      </trkpt>
      <trkpt lat="44.57188" lon="3.11964">
        <ele>1328.68</ele>
        <time>2014-06-28T14:04:59Z</time>
      </trkpt>
      <trkpt lat="44.57182" lon="3.11924">
        <ele>1328.2</ele>
        <time>2014-06-28T14:05:23Z</time>
      </trkpt>
      <trkpt lat="44.57178" lon="3.11884">
        <ele>1327.24</ele>
        <time>2014-06-28T14:05:47Z</time>
      </trkpt>
      <trkpt lat="44.57172" lon="3.11848">
        <ele>1326.28</ele>
        <time>2014-06-28T14:06:10Z</time>
      </trkpt>
      <trkpt lat="44.57168" lon="3.11836">
        <ele>1324.83</ele>
        <time>2014-06-28T14:06:18Z</time>
      </trkpt>
      <trkpt lat="44.5716" lon="3.11817">
        <ele>1325.31</ele>
        <time>2014-06-28T14:06:30Z</time>
      </trkpt>
      <trkpt lat="44.5715" lon="3.11801">
        <ele>1324.83</ele>
        <time>2014-06-28T14:06:43Z</time>
      </trkpt>
      <trkpt lat="44.57141" lon="3.11766">
        <ele>1324.83</ele>
        <time>2014-06-28T14:07:07Z</time>
      </trkpt>
      <trkpt lat="44.57147" lon="3.11743">
        <ele>1325.8</ele>
        <time>2014-06-28T14:07:24Z</time>
      </trkpt>
      <trkpt lat="44.57165" lon="3.11727">
        <ele>1326.76</ele>
        <time>2014-06-28T14:07:44Z</time>
      </trkpt>
      <trkpt lat="44.57186" lon="3.1171">
        <ele>1325.31</ele>
        <time>2014-06-28T14:08:05Z</time>
      </trkpt>
      <trkpt lat="44.57203" lon="3.11685">
        <ele>1324.83</ele>
        <time>2014-06-28T14:08:26Z</time>
      </trkpt>
      <trkpt lat="44.57207" lon="3.11672">
        <ele>1326.28</ele>
        <time>2014-06-28T14:08:35Z</time>
      </trkpt>
      <trkpt lat="44.57216" lon="3.11645">
        <ele>1327.24</ele>
        <time>2014-06-28T14:08:54Z</time>
      </trkpt>
      <trkpt lat="44.57224" lon="3.11622">
        <ele>1329.64</ele>
        <time>2014-06-28T14:09:14Z</time>
      </trkpt>
      <trkpt lat="44.57233" lon="3.11597">
        <ele>1331.56</ele>
        <time>2014-06-28T14:09:35Z</time>
      </trkpt>
      <trkpt lat="44.57244" lon="3.11565">
        <ele>1333.01</ele>
        <time>2014-06-28T14:09:57Z</time>
      </trkpt>
      <trkpt lat="44.57258" lon="3.11532">
        <ele>1333.97</ele>
        <time>2014-06-28T14:10:21Z</time>
      </trkpt>
      <trkpt lat="44.57273" lon="3.11503">
        <ele>1335.41</ele>
        <time>2014-06-28T14:10:45Z</time>
      </trkpt>
      <trkpt lat="44.5728" lon="3.11491">
        <ele>1336.37</ele>
        <time>2014-06-28T14:10:56Z</time>
      </trkpt>
      <trkpt lat="44.57294" lon="3.11464">
        <ele>1337.33</ele>
        <time>2014-06-28T14:11:16Z</time>
      </trkpt>
      <trkpt lat="44.57312" lon="3.11433">
        <ele>1338.29</ele>
        <time>2014-06-28T14:11:41Z</time>
      </trkpt>
      <trkpt lat="44.57331" lon="3.11411">
        <ele>1341.18</ele>
        <time>2014-06-28T14:12:05Z</time>
      </trkpt>
      <trkpt lat="44.57343" lon="3.11394">
        <ele>1342.62</ele>
        <time>2014-06-28T14:12:23Z</time>
      </trkpt>
      <trkpt lat="44.57363" lon="3.1137">
        <ele>1342.62</ele>
        <time>2014-06-28T14:12:44Z</time>
      </trkpt>
      <trkpt lat="44.57378" lon="3.11335">
        <ele>1343.1</ele>
        <time>2014-06-28T14:13:07Z</time>
      </trkpt>
      <trkpt lat="44.57389" lon="3.11306">
        <ele>1344.06</ele>
        <time>2014-06-28T14:13:29Z</time>
      </trkpt>
      <trkpt lat="44.57398" lon="3.11278">
        <ele>1345.02</ele>
        <time>2014-06-28T14:13:51Z</time>
      </trkpt>
      <trkpt lat="44.57403" lon="3.11263">
        <ele>1345.98</ele>
        <time>2014-06-28T14:14:07Z</time>
      </trkpt>
      <trkpt lat="44.57411" lon="3.11234">
        <ele>1347.91</ele>
        <time>2014-06-28T14:14:30Z</time>
      </trkpt>
      <trkpt lat="44.57422" lon="3.11213">
        <ele>1348.39</ele>
        <time>2014-06-28T14:14:46Z</time>
      </trkpt>
      <trkpt lat="44.57426" lon="3.11199">
        <ele>1349.35</ele>
        <time>2014-06-28T14:14:55Z</time>
      </trkpt>
      <trkpt lat="44.57434" lon="3.11172">
        <ele>1351.27</ele>
        <time>2014-06-28T14:15:15Z</time>
      </trkpt>
      <trkpt lat="44.57439" lon="3.11151">
        <ele>1349.83</ele>
        <time>2014-06-28T14:15:30Z</time>
      </trkpt>
      <trkpt lat="44.57439" lon="3.11146">
        <ele>1353.67</ele>
        <time>2014-06-28T14:15:34Z</time>
      </trkpt>
      <trkpt lat="44.5744" lon="3.11145">
        <ele>1353.67</ele>
        <time>2014-06-28T14:15:35Z</time>
      </trkpt>
      <trkpt lat="44.57442" lon="3.11139">
        <ele>1353.67</ele>
        <time>2014-06-28T14:15:40Z</time>
      </trkpt>
      <trkpt lat="44.57443" lon="3.11131">
        <ele>1353.67</ele>
        <time>2014-06-28T14:15:46Z</time>
      </trkpt>
      <trkpt lat="44.57445" lon="3.11109">
        <ele>1355.12</ele>
        <time>2014-06-28T14:16:02Z</time>
      </trkpt>
      <trkpt lat="44.57445" lon="3.11102">
        <ele>1355.12</ele>
        <time>2014-06-28T14:16:07Z</time>
      </trkpt>
      <trkpt lat="44.57444" lon="3.1108">
        <ele>1356.56</ele>
        <time>2014-06-28T14:16:22Z</time>
      </trkpt>
      <trkpt lat="44.57445" lon="3.11074">
        <ele>1356.56</ele>
        <time>2014-06-28T14:16:26Z</time>
      </trkpt>
      <trkpt lat="44.57444" lon="3.11071">
        <ele>1356.56</ele>
        <time>2014-06-28T14:16:28Z</time>
      </trkpt>
      <trkpt lat="44.57443" lon="3.11063">
        <ele>1357.04</ele>
        <time>2014-06-28T14:16:33Z</time>
      </trkpt>
      <trkpt lat="44.57442" lon="3.11059">
        <ele>1358</ele>
        <time>2014-06-28T14:16:36Z</time>
      </trkpt>
      <trkpt lat="44.5744" lon="3.11042">
        <ele>1358.96</ele>
        <time>2014-06-28T14:16:47Z</time>
      </trkpt>
      <trkpt lat="44.57438" lon="3.11029">
        <ele>1359.92</ele>
        <time>2014-06-28T14:16:56Z</time>
      </trkpt>
      <trkpt lat="44.57435" lon="3.11019">
        <ele>1360.88</ele>
        <time>2014-06-28T14:17:03Z</time>
      </trkpt>
      <trkpt lat="44.57435" lon="3.11016">
        <ele>1360.88</ele>
        <time>2014-06-28T14:17:05Z</time>
      </trkpt>
      <trkpt lat="44.5743" lon="3.10992">
        <ele>1363.29</ele>
        <time>2014-06-28T14:17:23Z</time>
      </trkpt>
      <trkpt lat="44.57428" lon="3.10984">
        <ele>1363.77</ele>
        <time>2014-06-28T14:17:29Z</time>
      </trkpt>
      <trkpt lat="44.57427" lon="3.10975">
        <ele>1364.25</ele>
        <time>2014-06-28T14:17:36Z</time>
      </trkpt>
      <trkpt lat="44.57427" lon="3.10968">
        <ele>1365.69</ele>
        <time>2014-06-28T14:17:41Z</time>
      </trkpt>
      <trkpt lat="44.57427" lon="3.10961">
        <ele>1366.17</ele>
        <time>2014-06-28T14:17:45Z</time>
      </trkpt>
      <trkpt lat="44.57426" lon="3.10956">
        <ele>1367.13</ele>
        <time>2014-06-28T14:17:49Z</time>
      </trkpt>
      <trkpt lat="44.57426" lon="3.1095">
        <ele>1367.13</ele>
        <time>2014-06-28T14:17:53Z</time>
      </trkpt>
      <trkpt lat="44.57425" lon="3.10943">
        <ele>1367.61</ele>
        <time>2014-06-28T14:17:59Z</time>
      </trkpt>
      <trkpt lat="44.57423" lon="3.1092">
        <ele>1369.54</ele>
        <time>2014-06-28T14:18:15Z</time>
      </trkpt>
      <trkpt lat="44.57423" lon="3.10917">
        <ele>1369.54</ele>
        <time>2014-06-28T14:18:17Z</time>
      </trkpt>
      <trkpt lat="44.57422" lon="3.10897">
        <ele>1370.5</ele>
        <time>2014-06-28T14:18:30Z</time>
      </trkpt>
      <trkpt lat="44.57421" lon="3.10881">
        <ele>1370.98</ele>
        <time>2014-06-28T14:18:41Z</time>
      </trkpt>
      <trkpt lat="44.57421" lon="3.10876">
        <ele>1370.98</ele>
        <time>2014-06-28T14:18:44Z</time>
      </trkpt>
      <trkpt lat="44.57419" lon="3.10855">
        <ele>1372.42</ele>
        <time>2014-06-28T14:18:58Z</time>
      </trkpt>
      <trkpt lat="44.57419" lon="3.10854">
        <ele>1372.42</ele>
        <time>2014-06-28T14:18:59Z</time>
      </trkpt>
      <trkpt lat="44.57418" lon="3.10849">
        <ele>1372.9</ele>
        <time>2014-06-28T14:19:03Z</time>
      </trkpt>
      <trkpt lat="44.57418" lon="3.10841">
        <ele>1372.9</ele>
        <time>2014-06-28T14:19:08Z</time>
      </trkpt>
      <trkpt lat="44.57418" lon="3.1083">
        <ele>1373.86</ele>
        <time>2014-06-28T14:19:15Z</time>
      </trkpt>
      <trkpt lat="44.57416" lon="3.10811">
        <ele>1374.82</ele>
        <time>2014-06-28T14:19:27Z</time>
      </trkpt>
      <trkpt lat="44.57416" lon="3.10801">
        <ele>1375.3</ele>
        <time>2014-06-28T14:19:33Z</time>
      </trkpt>
      <trkpt lat="44.57415" lon="3.10779">
        <ele>1375.78</ele>
        <time>2014-06-28T14:19:48Z</time>
      </trkpt>
      <trkpt lat="44.57414" lon="3.10755">
        <ele>1376.26</ele>
        <time>2014-06-28T14:20:03Z</time>
      </trkpt>
      <trkpt lat="44.57411" lon="3.10739">
        <ele>1377.23</ele>
        <time>2014-06-28T14:20:14Z</time>
      </trkpt>
      <trkpt lat="44.57406" lon="3.10719">
        <ele>1377.23</ele>
        <time>2014-06-28T14:20:28Z</time>
      </trkpt>
      <trkpt lat="44.57403" lon="3.10701">
        <ele>1375.78</ele>
        <time>2014-06-28T14:20:45Z</time>
      </trkpt>
      <trkpt lat="44.57401" lon="3.10693">
        <ele>1375.78</ele>
        <time>2014-06-28T14:20:56Z</time>
      </trkpt>
      <trkpt lat="44.57393" lon="3.10676">
        <ele>1374.82</ele>
        <time>2014-06-28T14:21:11Z</time>
      </trkpt>
      <trkpt lat="44.57392" lon="3.10673">
        <ele>1373.38</ele>
        <time>2014-06-28T14:21:13Z</time>
      </trkpt>
      <trkpt lat="44.57391" lon="3.10671">
        <ele>1375.78</ele>
        <time>2014-06-28T14:21:17Z</time>
      </trkpt>
      <trkpt lat="44.57389" lon="3.10668">
        <ele>1376.75</ele>
        <time>2014-06-28T14:21:37Z</time>
      </trkpt>
      <trkpt lat="44.57387" lon="3.10662">
        <ele>1376.75</ele>
        <time>2014-06-28T14:21:46Z</time>
      </trkpt>
      <trkpt lat="44.57385" lon="3.10656">
        <ele>1376.75</ele>
        <time>2014-06-28T14:21:50Z</time>
      </trkpt>
      <trkpt lat="44.57385" lon="3.10632">
        <ele>1376.75</ele>
        <time>2014-06-28T14:22:05Z</time>
      </trkpt>
      <trkpt lat="44.57385" lon="3.10628">
        <ele>1375.3</ele>
        <time>2014-06-28T14:22:08Z</time>
      </trkpt>
      <trkpt lat="44.57386" lon="3.10606">
        <ele>1374.34</ele>
        <time>2014-06-28T14:22:22Z</time>
      </trkpt>
      <trkpt lat="44.57393" lon="3.10584">
        <ele>1372.9</ele>
        <time>2014-06-28T14:22:37Z</time>
      </trkpt>
      <trkpt lat="44.574" lon="3.10559">
        <ele>1370.98</ele>
        <time>2014-06-28T14:22:51Z</time>
      </trkpt>
      <trkpt lat="44.57407" lon="3.10532">
        <ele>1369.05</ele>
        <time>2014-06-28T14:23:07Z</time>
      </trkpt>
      <trkpt lat="44.57415" lon="3.10508">
        <ele>1366.65</ele>
        <time>2014-06-28T14:23:23Z</time>
      </trkpt>
      <trkpt lat="44.57421" lon="3.10485">
        <ele>1365.21</ele>
        <time>2014-06-28T14:23:38Z</time>
      </trkpt>
      <trkpt lat="44.57428" lon="3.10462">
        <ele>1362.81</ele>
        <time>2014-06-28T14:23:53Z</time>
      </trkpt>
      <trkpt lat="44.57434" lon="3.10434">
        <ele>1360.4</ele>
        <time>2014-06-28T14:24:10Z</time>
      </trkpt>
      <trkpt lat="44.5744" lon="3.10414">
        <ele>1359.92</ele>
        <time>2014-06-28T14:24:23Z</time>
      </trkpt>
      <trkpt lat="44.57448" lon="3.10391">
        <ele>1359.44</ele>
        <time>2014-06-28T14:24:40Z</time>
      </trkpt>
      <trkpt lat="44.57455" lon="3.10363">
        <ele>1358</ele>
        <time>2014-06-28T14:24:57Z</time>
      </trkpt>
      <trkpt lat="44.57459" lon="3.10351">
        <ele>1358</ele>
        <time>2014-06-28T14:25:05Z</time>
      </trkpt>
      <trkpt lat="44.57467" lon="3.10319">
        <ele>1357.52</ele>
        <time>2014-06-28T14:25:25Z</time>
      </trkpt>
      <trkpt lat="44.57471" lon="3.10294">
        <ele>1355.12</ele>
        <time>2014-06-28T14:25:40Z</time>
      </trkpt>
      <trkpt lat="44.57479" lon="3.10274">
        <ele>1353.67</ele>
        <time>2014-06-28T14:25:55Z</time>
      </trkpt>
      <trkpt lat="44.57486" lon="3.10249">
        <ele>1352.23</ele>
        <time>2014-06-28T14:26:12Z</time>
      </trkpt>
      <trkpt lat="44.57493" lon="3.10226">
        <ele>1349.35</ele>
        <time>2014-06-28T14:26:29Z</time>
      </trkpt>
      <trkpt lat="44.57498" lon="3.10201">
        <ele>1348.87</ele>
        <time>2014-06-28T14:26:45Z</time>
      </trkpt>
      <trkpt lat="44.57505" lon="3.10177">
        <ele>1346.94</ele>
        <time>2014-06-28T14:27:01Z</time>
      </trkpt>
      <trkpt lat="44.57511" lon="3.10152">
        <ele>1345.5</ele>
        <time>2014-06-28T14:27:17Z</time>
      </trkpt>
      <trkpt lat="44.57512" lon="3.10146">
        <ele>1345.02</ele>
        <time>2014-06-28T14:27:21Z</time>
      </trkpt>
      <trkpt lat="44.57515" lon="3.10124">
        <ele>1345.02</ele>
        <time>2014-06-28T14:27:37Z</time>
      </trkpt>
      <trkpt lat="44.57517" lon="3.10116">
        <ele>1343.1</ele>
        <time>2014-06-28T14:27:43Z</time>
      </trkpt>
      <trkpt lat="44.57524" lon="3.10095">
        <ele>1341.18</ele>
        <time>2014-06-28T14:27:58Z</time>
      </trkpt>
      <trkpt lat="44.57526" lon="3.10085">
        <ele>1340.7</ele>
        <time>2014-06-28T14:28:05Z</time>
      </trkpt>
      <trkpt lat="44.57528" lon="3.10076">
        <ele>1338.77</ele>
        <time>2014-06-28T14:28:12Z</time>
      </trkpt>
      <trkpt lat="44.57529" lon="3.10067">
        <ele>1338.77</ele>
        <time>2014-06-28T14:28:17Z</time>
      </trkpt>
      <trkpt lat="44.5753" lon="3.10061">
        <ele>1337.33</ele>
        <time>2014-06-28T14:28:21Z</time>
      </trkpt>
      <trkpt lat="44.57531" lon="3.10054">
        <ele>1337.33</ele>
        <time>2014-06-28T14:28:25Z</time>
      </trkpt>
      <trkpt lat="44.57532" lon="3.10049">
        <ele>1336.37</ele>
        <time>2014-06-28T14:28:28Z</time>
      </trkpt>
      <trkpt lat="44.57535" lon="3.10028">
        <ele>1333.01</ele>
        <time>2014-06-28T14:28:42Z</time>
      </trkpt>
      <trkpt lat="44.5754" lon="3.10008">
        <ele>1330.6</ele>
        <time>2014-06-28T14:28:56Z</time>
      </trkpt>
      <trkpt lat="44.57541" lon="3.10005">
        <ele>1329.64</ele>
        <time>2014-06-28T14:28:58Z</time>
      </trkpt>
      <trkpt lat="44.57544" lon="3.09981">
        <ele>1328.2</ele>
        <time>2014-06-28T14:29:13Z</time>
      </trkpt>
      <trkpt lat="44.57549" lon="3.09955">
        <ele>1326.76</ele>
        <time>2014-06-28T14:29:30Z</time>
      </trkpt>
      <trkpt lat="44.57555" lon="3.09931">
        <ele>1323.87</ele>
        <time>2014-06-28T14:29:46Z</time>
      </trkpt>
      <trkpt lat="44.57562" lon="3.09904">
        <ele>1321.47</ele>
        <time>2014-06-28T14:30:04Z</time>
      </trkpt>
      <trkpt lat="44.57565" lon="3.09887">
        <ele>1320.51</ele>
        <time>2014-06-28T14:30:15Z</time>
      </trkpt>
      <trkpt lat="44.57569" lon="3.09868">
        <ele>1318.1</ele>
        <time>2014-06-28T14:30:28Z</time>
      </trkpt>
      <trkpt lat="44.57574" lon="3.09845">
        <ele>1317.62</ele>
        <time>2014-06-28T14:30:44Z</time>
      </trkpt>
      <trkpt lat="44.57578" lon="3.09838">
        <ele>1317.62</ele>
        <time>2014-06-28T14:30:57Z</time>
      </trkpt>
      <trkpt lat="44.5758" lon="3.09825">
        <ele>1317.14</ele>
        <time>2014-06-28T14:31:08Z</time>
      </trkpt>
      <trkpt lat="44.57584" lon="3.09819">
        <ele>1317.14</ele>
        <time>2014-06-28T14:31:20Z</time>
      </trkpt>
      <trkpt lat="44.57583" lon="3.09818">
        <ele>1317.14</ele>
        <time>2014-06-28T14:31:22Z</time>
      </trkpt>
      <trkpt lat="44.57587" lon="3.09798">
        <ele>1317.14</ele>
        <time>2014-06-28T14:31:37Z</time>
      </trkpt>
      <trkpt lat="44.5759" lon="3.09784">
        <ele>1318.59</ele>
        <time>2014-06-28T14:31:46Z</time>
      </trkpt>
      <trkpt lat="44.57591" lon="3.0978">
        <ele>1318.59</ele>
        <time>2014-06-28T14:31:49Z</time>
      </trkpt>
      <trkpt lat="44.5759" lon="3.09768">
        <ele>1320.03</ele>
        <time>2014-06-28T14:31:57Z</time>
      </trkpt>
      <trkpt lat="44.57589" lon="3.09766">
        <ele>1318.1</ele>
        <time>2014-06-28T14:31:59Z</time>
      </trkpt>
      <trkpt lat="44.57589" lon="3.09761">
        <ele>1318.1</ele>
        <time>2014-06-28T14:32:02Z</time>
      </trkpt>
      <trkpt lat="44.57587" lon="3.09746">
        <ele>1319.55</ele>
        <time>2014-06-28T14:32:13Z</time>
      </trkpt>
      <trkpt lat="44.57584" lon="3.09727">
        <ele>1319.55</ele>
        <time>2014-06-28T14:32:28Z</time>
      </trkpt>
      <trkpt lat="44.57585" lon="3.09718">
        <ele>1319.55</ele>
        <time>2014-06-28T14:32:38Z</time>
      </trkpt>
      <trkpt lat="44.57585" lon="3.09715">
        <ele>1320.99</ele>
        <time>2014-06-28T14:32:44Z</time>
      </trkpt>
      <trkpt lat="44.57585" lon="3.09715">
        <ele>1320.99</ele>
        <time>2014-06-28T14:33:07Z</time>
      </trkpt>
      <trkpt lat="44.57587" lon="3.09702">
        <ele>1320.99</ele>
        <time>2014-06-28T14:33:15Z</time>
      </trkpt>
      <trkpt lat="44.57593" lon="3.09675">
        <ele>1321.47</ele>
        <time>2014-06-28T14:33:32Z</time>
      </trkpt>
      <trkpt lat="44.57595" lon="3.09663">
        <ele>1321.47</ele>
        <time>2014-06-28T14:33:39Z</time>
      </trkpt>
      <trkpt lat="44.57596" lon="3.09654">
        <ele>1321.47</ele>
        <time>2014-06-28T14:33:44Z</time>
      </trkpt>
      <trkpt lat="44.57595" lon="3.09646">
        <ele>1321.47</ele>
        <time>2014-06-28T14:33:49Z</time>
      </trkpt>
      <trkpt lat="44.57595" lon="3.09638">
        <ele>1321.95</ele>
        <time>2014-06-28T14:33:54Z</time>
      </trkpt>
      <trkpt lat="44.5759" lon="3.09614">
        <ele>1322.43</ele>
        <time>2014-06-28T14:34:10Z</time>
      </trkpt>
      <trkpt lat="44.57587" lon="3.09595">
        <ele>1322.43</ele>
        <time>2014-06-28T14:34:22Z</time>
      </trkpt>
      <trkpt lat="44.57582" lon="3.09574">
        <ele>1322.91</ele>
        <time>2014-06-28T14:34:36Z</time>
      </trkpt>
      <trkpt lat="44.57581" lon="3.09572">
        <ele>1322.91</ele>
        <time>2014-06-28T14:34:37Z</time>
      </trkpt>
      <trkpt lat="44.57581" lon="3.09561">
        <ele>1323.39</ele>
        <time>2014-06-28T14:34:44Z</time>
      </trkpt>
      <trkpt lat="44.5758" lon="3.09541">
        <ele>1323.39</ele>
        <time>2014-06-28T14:34:56Z</time>
      </trkpt>
      <trkpt lat="44.57581" lon="3.09535">
        <ele>1323.39</ele>
        <time>2014-06-28T14:35:00Z</time>
      </trkpt>
      <trkpt lat="44.57582" lon="3.09526">
        <ele>1323.87</ele>
        <time>2014-06-28T14:35:06Z</time>
      </trkpt>
      <trkpt lat="44.57581" lon="3.09509">
        <ele>1325.31</ele>
        <time>2014-06-28T14:35:18Z</time>
      </trkpt>
      <trkpt lat="44.57581" lon="3.09501">
        <ele>1326.28</ele>
        <time>2014-06-28T14:35:24Z</time>
      </trkpt>
      <trkpt lat="44.5758" lon="3.09484">
        <ele>1326.76</ele>
        <time>2014-06-28T14:35:36Z</time>
      </trkpt>
      <trkpt lat="44.57579" lon="3.09482">
        <ele>1326.76</ele>
        <time>2014-06-28T14:35:38Z</time>
      </trkpt>
      <trkpt lat="44.57578" lon="3.09465">
        <ele>1328.2</ele>
        <time>2014-06-28T14:35:51Z</time>
      </trkpt>
      <trkpt lat="44.57578" lon="3.09463">
        <ele>1328.2</ele>
        <time>2014-06-28T14:35:53Z</time>
      </trkpt>
      <trkpt lat="44.57581" lon="3.09449">
        <ele>1330.12</ele>
        <time>2014-06-28T14:36:05Z</time>
      </trkpt>
      <trkpt lat="44.57582" lon="3.09442">
        <ele>1330.12</ele>
        <time>2014-06-28T14:36:12Z</time>
      </trkpt>
      <trkpt lat="44.57583" lon="3.09439">
        <ele>1330.12</ele>
        <time>2014-06-28T14:36:14Z</time>
      </trkpt>
      <trkpt lat="44.57584" lon="3.09435">
        <ele>1330.12</ele>
        <time>2014-06-28T14:36:17Z</time>
      </trkpt>
      <trkpt lat="44.57586" lon="3.09427">
        <ele>1331.08</ele>
        <time>2014-06-28T14:36:24Z</time>
      </trkpt>
      <trkpt lat="44.57592" lon="3.09414">
        <ele>1332.04</ele>
        <time>2014-06-28T14:36:36Z</time>
      </trkpt>
      <trkpt lat="44.57598" lon="3.09404">
        <ele>1332.04</ele>
        <time>2014-06-28T14:36:46Z</time>
      </trkpt>
      <trkpt lat="44.57602" lon="3.09398">
        <ele>1332.52</ele>
        <time>2014-06-28T14:36:55Z</time>
      </trkpt>
      <trkpt lat="44.57603" lon="3.09395">
        <ele>1332.52</ele>
        <time>2014-06-28T14:36:57Z</time>
      </trkpt>
      <trkpt lat="44.57603" lon="3.09391">
        <ele>1332.52</ele>
        <time>2014-06-28T14:37:00Z</time>
      </trkpt>
      <trkpt lat="44.57605" lon="3.09371">
        <ele>1333.97</ele>
        <time>2014-06-28T14:37:15Z</time>
      </trkpt>
      <trkpt lat="44.57613" lon="3.09368">
        <ele>1334.93</ele>
        <time>2014-06-28T14:37:24Z</time>
      </trkpt>
      <trkpt lat="44.57622" lon="3.09367">
        <ele>1335.89</ele>
        <time>2014-06-28T14:37:38Z</time>
      </trkpt>
      <trkpt lat="44.5762" lon="3.09356">
        <ele>1335.89</ele>
        <time>2014-06-28T14:37:47Z</time>
      </trkpt>
      <trkpt lat="44.57619" lon="3.09343">
        <ele>1335.89</ele>
        <time>2014-06-28T14:37:56Z</time>
      </trkpt>
      <trkpt lat="44.57622" lon="3.09342">
        <ele>1335.89</ele>
        <time>2014-06-28T14:37:59Z</time>
      </trkpt>
      <trkpt lat="44.57625" lon="3.09344">
        <ele>1335.89</ele>
        <time>2014-06-28T14:38:08Z</time>
      </trkpt>
      <trkpt lat="44.57622" lon="3.09355">
        <ele>1335.89</ele>
        <time>2014-06-28T14:38:16Z</time>
      </trkpt>
      <trkpt lat="44.57628" lon="3.09359">
        <ele>1336.37</ele>
        <time>2014-06-28T14:38:27Z</time>
      </trkpt>
      <trkpt lat="44.57633" lon="3.09351">
        <ele>1335.41</ele>
        <time>2014-06-28T14:38:43Z</time>
      </trkpt>
      <trkpt lat="44.5764" lon="3.09357">
        <ele>1336.37</ele>
        <time>2014-06-28T14:39:03Z</time>
      </trkpt>
      <trkpt lat="44.57643" lon="3.09399">
        <ele>1336.85</ele>
        <time>2014-06-28T14:39:31Z</time>
      </trkpt>
      <trkpt lat="44.57643" lon="3.09402">
        <ele>1335.41</ele>
        <time>2014-06-28T14:39:33Z</time>
      </trkpt>
      <trkpt lat="44.57637" lon="3.09344">
        <ele>1335.41</ele>
        <time>2014-06-28T14:39:58Z</time>
      </trkpt>
      <trkpt lat="44.57631" lon="3.09348">
        <ele>1335.89</ele>
        <time>2014-06-28T14:40:12Z</time>
      </trkpt>
    </trkseg>
  </trk>
</gpx>